GEFSMA_prec_meanprecacc_132.txt.gz
Total_Precipitation_Accumulation
0.40 0.41 0.38 0.36 0.31 0.30 0.28 0.25 0.23 0.20 0.18 0.17 0.17 0.17 0.18 0.16 0.13 0.10 0.07 0.05 0.04 0.05 0.08 0.12 0.17 0.21 0.22 0.24 0.24 0.23 0.19 0.13 0.09 0.06 0.04 0.03 0.03 0.02 0.02 0.01 0.01 0.02 0.03
0.48 0.46 0.44 0.44 0.39 0.37 0.34 0.34 0.31 0.31 0.27 0.24 0.20 0.17 0.17 0.17 0.15 0.13 0.11 0.08 0.07 0.06 0.07 0.11 0.18 0.24 0.30 0.35 0.36 0.35 0.29 0.23 0.19 0.15 0.12 0.08 0.06 0.05 0.04 0.03 0.03 0.02 0.02
0.55 0.55 0.52 0.46 0.43 0.45 0.46 0.47 0.46 0.44 0.36 0.31 0.26 0.25 0.24 0.23 0.21 0.18 0.16 0.14 0.12 0.12 0.11 0.12 0.17 0.26 0.34 0.40 0.47 0.49 0.45 0.36 0.27 0.22 0.19 0.16 0.13 0.11 0.08 0.07 0.05 0.04 0.04
0.61 0.64 0.62 0.56 0.53 0.55 0.55 0.54 0.51 0.50 0.42 0.36 0.32 0.32 0.32 0.30 0.29 0.28 0.27 0.24 0.20 0.17 0.16 0.16 0.19 0.26 0.35 0.40 0.49 0.59 0.61 0.52 0.39 0.31 0.27 0.24 0.20 0.17 0.15 0.12 0.11 0.08 0.07
0.64 0.65 0.62 0.60 0.62 0.59 0.58 0.57 0.51 0.49 0.46 0.44 0.43 0.40 0.37 0.36 0.34 0.34 0.34 0.34 0.33 0.30 0.27 0.25 0.21 0.19 0.24 0.29 0.39 0.54 0.66 0.65 0.54 0.44 0.37 0.32 0.28 0.25 0.22 0.19 0.18 0.15 0.13
0.73 0.69 0.65 0.68 0.69 0.65 0.58 0.57 0.56 0.55 0.50 0.52 0.52 0.46 0.43 0.41 0.38 0.36 0.35 0.35 0.34 0.33 0.32 0.30 0.28 0.25 0.22 0.24 0.28 0.40 0.54 0.64 0.64 0.58 0.50 0.45 0.41 0.37 0.33 0.32 0.31 0.29 0.26
0.89 0.88 0.81 0.79 0.81 0.73 0.67 0.71 0.77 0.73 0.67 0.68 0.64 0.49 0.41 0.40 0.40 0.38 0.36 0.34 0.32 0.31 0.28 0.27 0.27 0.27 0.26 0.27 0.28 0.33 0.44 0.57 0.66 0.67 0.63 0.57 0.55 0.50 0.48 0.48 0.47 0.45 0.42
1.08 1.06 1.04 1.03 1.01 0.92 0.83 0.82 0.86 0.85 0.83 0.87 0.85 0.76 0.54 0.40 0.34 0.32 0.33 0.32 0.34 0.34 0.31 0.30 0.29 0.28 0.26 0.25 0.26 0.28 0.33 0.44 0.58 0.70 0.72 0.68 0.65 0.64 0.64 0.63 0.63 0.61 0.57
1.30 1.22 1.20 1.25 1.22 1.12 1.01 0.97 0.98 0.97 0.97 1.00 0.98 0.99 0.77 0.52 0.39 0.32 0.28 0.27 0.31 0.36 0.37 0.36 0.33 0.30 0.26 0.23 0.23 0.25 0.27 0.31 0.46 0.67 0.79 0.80 0.76 0.74 0.78 0.83 0.85 0.83 0.77
1.43 1.41 1.39 1.36 1.34 1.30 1.18 1.14 1.14 1.12 1.09 1.05 1.03 0.93 0.86 0.71 0.63 0.47 0.34 0.30 0.29 0.30 0.34 0.34 0.33 0.34 0.33 0.31 0.29 0.28 0.28 0.28 0.37 0.57 0.81 0.98 1.01 1.00 1.03 1.06 1.10 1.15 1.09
1.46 1.43 1.42 1.37 1.28 1.24 1.24 1.22 1.20 1.16 1.08 1.02 0.97 0.92 0.88 0.74 0.63 0.59 0.44 0.33 0.31 0.28 0.28 0.30 0.32 0.33 0.37 0.38 0.36 0.37 0.39 0.36 0.41 0.55 0.77 1.01 1.20 1.29 1.34 1.36 1.35 1.34 1.31
1.51 1.47 1.45 1.37 1.27 1.19 1.15 1.16 1.16 1.14 1.09 1.03 0.97 0.94 0.92 0.84 0.71 0.68 0.64 0.49 0.42 0.35 0.32 0.32 0.34 0.35 0.37 0.41 0.45 0.54 0.55 0.53 0.56 0.66 0.85 1.07 1.25 1.37 1.43 1.51 1.56 1.55 1.50
1.38 1.38 1.42 1.40 1.35 1.30 1.31 1.28 1.26 1.19 1.16 1.10 1.03 0.96 0.92 0.87 0.79 0.79 0.80 0.68 0.56 0.45 0.39 0.36 0.38 0.42 0.45 0.49 0.55 0.71 0.72 0.75 0.76 0.82 1.01 1.19 1.26 1.28 1.30 1.41 1.58 1.69 1.68
1.34 1.32 1.33 1.34 1.35 1.30 1.26 1.26 1.27 1.24 1.23 1.19 1.11 1.02 0.94 0.86 0.85 0.88 0.93 0.97 0.92 0.72 0.59 0.54 0.51 0.56 0.63 0.70 0.82 0.93 0.84 0.95 0.97 1.05 1.17 1.32 1.28 1.17 1.12 1.17 1.29 1.43 1.46
1.32 1.30 1.29 1.23 1.21 1.19 1.16 1.15 1.15 1.12 1.11 1.11 1.07 1.04 0.99 0.92 0.93 0.96 1.03 1.14 1.28 1.20 0.94 0.75 0.72 0.74 0.81 0.87 1.00 0.95 0.88 1.05 1.07 1.08 1.14 1.14 1.07 1.00 0.98 0.99 1.02 1.08 1.12
1.07 1.13 1.16 1.15 1.11 1.09 1.07 1.06 1.02 0.99 0.98 0.94 0.92 0.95 0.96 0.95 0.98 1.00 1.06 1.14 1.25 1.34 1.21 0.89 0.77 0.79 0.89 0.97 1.07 0.97 0.91 1.04 1.01 1.00 1.00 0.95 0.89 0.86 0.84 0.83 0.80 0.81 0.84
0.86 0.91 1.01 1.07 1.05 1.03 1.01 0.99 0.95 0.91 0.89 0.86 0.84 0.86 0.88 0.87 0.92 0.94 0.99 1.07 1.17 1.31 1.36 1.12 0.95 0.93 0.97 0.97 0.96 0.86 0.80 0.79 0.77 0.84 0.79 0.74 0.71 0.69 0.68 0.68 0.69 0.71 0.71
0.78 0.78 0.77 0.80 0.86 0.89 0.90 0.91 0.89 0.85 0.82 0.80 0.79 0.81 0.82 0.83 0.89 0.93 1.00 1.07 1.13 1.19 1.25 1.15 0.98 0.89 0.83 0.76 0.72 0.67 0.61 0.59 0.56 0.65 0.62 0.57 0.55 0.52 0.51 0.52 0.56 0.58 0.58
0.61 0.66 0.65 0.64 0.64 0.64 0.66 0.71 0.77 0.79 0.78 0.76 0.78 0.82 0.84 0.87 0.90 0.93 0.99 1.05 1.06 1.04 1.02 0.96 0.82 0.70 0.64 0.60 0.59 0.56 0.49 0.47 0.44 0.51 0.52 0.48 0.45 0.43 0.41 0.42 0.44 0.46 0.47
0.36 0.39 0.43 0.47 0.50 0.52 0.52 0.52 0.57 0.65 0.72 0.76 0.78 0.81 0.86 0.95 1.01 1.05 1.05 1.04 1.00 0.95 0.90 0.85 0.77 0.67 0.58 0.50 0.50 0.51 0.48 0.42 0.38 0.36 0.41 0.41 0.41 0.40 0.36 0.33 0.32 0.33 0.37
0.17 0.21 0.25 0.30 0.34 0.38 0.43 0.47 0.48 0.52 0.57 0.65 0.74 0.81 0.87 0.97 1.00 0.95 0.87 0.80 0.75 0.73 0.73 0.73 0.69 0.60 0.51 0.47 0.45 0.40 0.40 0.38 0.37 0.33 0.34 0.34 0.32 0.31 0.30 0.31 0.31 0.31 0.32
0.12 0.14 0.18 0.22 0.27 0.32 0.44 0.44 0.41 0.44 0.53 0.59 0.64 0.69 0.76 0.80 0.74 0.70 0.65 0.60 0.61 0.65 0.65 0.58 0.51 0.44 0.36 0.32 0.31 0.35 0.39 0.45 0.45 0.32 0.31 0.32 0.31 0.32 0.29 0.28 0.32 0.33 0.33
0.18 0.19 0.20 0.22 0.26 0.35 0.45 0.46 0.51 0.49 0.53 0.57 0.57 0.55 0.52 0.52 0.53 0.45 0.46 0.46 0.46 0.48 0.45 0.40 0.39 0.33 0.29 0.27 0.32 0.39 0.40 0.40 0.34 0.25 0.29 0.34 0.30 0.29 0.25 0.26 0.31 0.31 0.33
0.36 0.36 0.36 0.37 0.39 0.48 0.54 0.51 0.50 0.46 0.46 0.45 0.41 0.36 0.34 0.33 0.34 0.36 0.38 0.40 0.34 0.29 0.27 0.25 0.23 0.22 0.24 0.28 0.34 0.40 0.41 0.41 0.34 0.29 0.32 0.37 0.32 0.27 0.22 0.22 0.28 0.29 0.32
0.63 0.62 0.62 0.60 0.57 0.55 0.51 0.41 0.35 0.31 0.30 0.28 0.25 0.23 0.22 0.21 0.25 0.30 0.31 0.31 0.29 0.27 0.26 0.27 0.27 0.26 0.28 0.31 0.33 0.38 0.44 0.53 0.49 0.36 0.30 0.32 0.29 0.26 0.25 0.25 0.27 0.33 0.35
0.61 0.58 0.56 0.51 0.46 0.38 0.32 0.23 0.18 0.15 0.15 0.14 0.14 0.14 0.17 0.18 0.25 0.31 0.28 0.27 0.27 0.25 0.26 0.28 0.28 0.26 0.25 0.26 0.31 0.28 0.32 0.51 0.53 0.40 0.24 0.26 0.29 0.34 0.44 0.32 0.29 0.33 0.38

GEFSMA_prec_meanprecacc_138.txt.gz
Total_Precipitation_Accumulation
0.41 0.42 0.38 0.37 0.32 0.30 0.29 0.26 0.23 0.21 0.19 0.18 0.18 0.18 0.19 0.19 0.18 0.19 0.16 0.09 0.07 0.07 0.11 0.16 0.23 0.28 0.29 0.30 0.30 0.30 0.26 0.19 0.14 0.11 0.09 0.07 0.06 0.04 0.04 0.04 0.04 0.04 0.04
0.50 0.47 0.45 0.44 0.39 0.37 0.35 0.34 0.32 0.31 0.28 0.25 0.21 0.18 0.17 0.18 0.17 0.16 0.16 0.13 0.10 0.09 0.10 0.15 0.23 0.32 0.39 0.45 0.47 0.45 0.39 0.31 0.26 0.22 0.18 0.14 0.11 0.09 0.08 0.07 0.06 0.05 0.04
0.57 0.57 0.54 0.48 0.44 0.46 0.46 0.48 0.47 0.46 0.38 0.33 0.28 0.26 0.25 0.24 0.22 0.20 0.18 0.16 0.14 0.15 0.15 0.16 0.23 0.32 0.42 0.51 0.59 0.63 0.59 0.48 0.37 0.31 0.28 0.23 0.19 0.16 0.13 0.12 0.10 0.08 0.07
0.63 0.66 0.65 0.59 0.55 0.57 0.58 0.56 0.55 0.54 0.46 0.41 0.36 0.35 0.33 0.31 0.30 0.29 0.29 0.26 0.22 0.19 0.19 0.20 0.24 0.32 0.42 0.48 0.60 0.74 0.79 0.69 0.54 0.45 0.39 0.34 0.30 0.27 0.24 0.21 0.18 0.14 0.12
0.66 0.67 0.64 0.62 0.64 0.63 0.63 0.63 0.58 0.55 0.50 0.48 0.48 0.43 0.39 0.37 0.35 0.34 0.35 0.35 0.34 0.32 0.30 0.29 0.25 0.24 0.31 0.37 0.48 0.67 0.83 0.83 0.70 0.59 0.51 0.46 0.43 0.39 0.34 0.30 0.27 0.23 0.20
0.75 0.72 0.69 0.71 0.72 0.67 0.61 0.61 0.61 0.60 0.54 0.56 0.56 0.49 0.44 0.42 0.39 0.36 0.36 0.37 0.37 0.36 0.36 0.34 0.31 0.29 0.29 0.31 0.38 0.50 0.67 0.80 0.80 0.72 0.64 0.59 0.53 0.50 0.47 0.46 0.43 0.39 0.36
0.91 0.91 0.84 0.83 0.84 0.77 0.70 0.74 0.82 0.78 0.71 0.71 0.67 0.52 0.44 0.42 0.40 0.39 0.37 0.36 0.34 0.33 0.31 0.31 0.32 0.31 0.31 0.32 0.34 0.40 0.52 0.68 0.79 0.81 0.77 0.72 0.69 0.64 0.62 0.63 0.62 0.58 0.53
1.10 1.09 1.08 1.07 1.05 0.97 0.88 0.86 0.90 0.89 0.87 0.90 0.87 0.79 0.56 0.41 0.35 0.34 0.35 0.34 0.36 0.36 0.33 0.33 0.32 0.32 0.31 0.31 0.32 0.35 0.40 0.52 0.69 0.84 0.90 0.85 0.81 0.79 0.80 0.80 0.80 0.77 0.73
1.31 1.23 1.23 1.27 1.25 1.15 1.04 1.00 1.01 1.00 1.01 1.04 1.01 1.03 0.80 0.54 0.40 0.34 0.30 0.29 0.33 0.38 0.40 0.40 0.38 0.35 0.31 0.29 0.29 0.32 0.33 0.38 0.54 0.77 0.93 0.96 0.91 0.89 0.94 0.99 1.02 1.01 0.95
1.43 1.41 1.39 1.36 1.35 1.31 1.19 1.15 1.16 1.14 1.12 1.09 1.07 0.97 0.89 0.74 0.64 0.48 0.35 0.31 0.30 0.31 0.36 0.40 0.40 0.40 0.40 0.38 0.36 0.35 0.35 0.34 0.42 0.63 0.89 1.07 1.11 1.12 1.16 1.20 1.25 1.31 1.28
1.46 1.44 1.42 1.37 1.29 1.25 1.24 1.23 1.20 1.17 1.09 1.02 0.98 0.94 0.89 0.75 0.64 0.60 0.45 0.33 0.31 0.28 0.28 0.32 0.36 0.39 0.42 0.44 0.43 0.46 0.48 0.45 0.48 0.63 0.85 1.09 1.27 1.38 1.44 1.47 1.46 1.46 1.45
1.52 1.47 1.45 1.37 1.27 1.19 1.15 1.16 1.17 1.14 1.09 1.03 0.97 0.94 0.92 0.85 0.72 0.68 0.64 0.50 0.43 0.35 0.32 0.33 0.36 0.38 0.42 0.46 0.51 0.64 0.64 0.64 0.67 0.77 0.95 1.15 1.32 1.44 1.51 1.59 1.65 1.63 1.59
1.38 1.38 1.42 1.40 1.35 1.30 1.31 1.28 1.26 1.19 1.16 1.10 1.03 0.96 0.93 0.87 0.80 0.80 0.81 0.69 0.57 0.45 0.40 0.38 0.39 0.45 0.49 0.55 0.62 0.79 0.81 0.83 0.85 0.93 1.12 1.28 1.33 1.35 1.38 1.50 1.66 1.76 1.76
1.34 1.32 1.33 1.34 1.35 1.30 1.26 1.26 1.27 1.24 1.23 1.19 1.12 1.03 0.94 0.86 0.85 0.88 0.93 0.98 0.93 0.73 0.59 0.54 0.52 0.57 0.64 0.72 0.86 0.99 0.90 1.01 1.03 1.11 1.24 1.40 1.35 1.24 1.19 1.25 1.38 1.52 1.54
1.32 1.30 1.29 1.23 1.21 1.19 1.16 1.15 1.15 1.12 1.11 1.11 1.07 1.04 0.99 0.93 0.93 0.97 1.03 1.15 1.29 1.21 0.95 0.76 0.73 0.75 0.81 0.88 1.01 0.97 0.91 1.10 1.13 1.13 1.18 1.19 1.12 1.05 1.02 1.04 1.08 1.15 1.20
1.07 1.13 1.16 1.15 1.11 1.09 1.07 1.06 1.02 0.99 0.98 0.94 0.92 0.95 0.96 0.95 0.98 1.00 1.06 1.15 1.26 1.34 1.21 0.89 0.77 0.80 0.90 0.97 1.09 0.98 0.92 1.06 1.04 1.04 1.04 0.99 0.93 0.90 0.88 0.87 0.85 0.86 0.89
0.86 0.91 1.01 1.07 1.05 1.03 1.01 0.99 0.95 0.91 0.89 0.86 0.85 0.86 0.88 0.87 0.92 0.95 0.99 1.07 1.18 1.31 1.37 1.13 0.96 0.94 0.98 0.97 0.96 0.87 0.80 0.80 0.79 0.87 0.83 0.79 0.75 0.73 0.72 0.72 0.73 0.75 0.76
0.78 0.78 0.77 0.80 0.86 0.89 0.90 0.91 0.89 0.85 0.82 0.80 0.79 0.81 0.82 0.84 0.89 0.93 1.00 1.07 1.13 1.20 1.25 1.16 0.98 0.89 0.83 0.76 0.72 0.68 0.62 0.60 0.58 0.69 0.66 0.61 0.59 0.56 0.54 0.56 0.59 0.61 0.62
0.61 0.66 0.65 0.64 0.64 0.64 0.66 0.71 0.77 0.79 0.78 0.76 0.78 0.82 0.84 0.87 0.91 0.94 1.00 1.05 1.07 1.05 1.03 0.97 0.83 0.71 0.65 0.61 0.61 0.57 0.51 0.49 0.47 0.54 0.56 0.52 0.50 0.47 0.45 0.45 0.47 0.49 0.51
0.36 0.39 0.44 0.47 0.50 0.52 0.52 0.53 0.57 0.65 0.72 0.76 0.78 0.82 0.87 0.95 1.02 1.05 1.06 1.04 1.00 0.96 0.90 0.86 0.78 0.68 0.59 0.52 0.51 0.52 0.49 0.43 0.40 0.38 0.44 0.44 0.44 0.43 0.40 0.37 0.35 0.36 0.40
0.17 0.21 0.26 0.30 0.34 0.39 0.43 0.47 0.48 0.52 0.57 0.65 0.74 0.82 0.88 0.98 1.01 0.95 0.87 0.80 0.75 0.73 0.73 0.74 0.69 0.60 0.52 0.47 0.45 0.41 0.40 0.39 0.37 0.34 0.35 0.35 0.34 0.33 0.32 0.33 0.33 0.33 0.34
0.12 0.14 0.18 0.22 0.27 0.32 0.44 0.44 0.41 0.44 0.53 0.59 0.64 0.69 0.76 0.81 0.75 0.70 0.65 0.61 0.61 0.65 0.65 0.58 0.51 0.44 0.36 0.32 0.32 0.35 0.39 0.45 0.45 0.32 0.31 0.32 0.31 0.33 0.30 0.28 0.33 0.33 0.33
0.18 0.19 0.20 0.22 0.26 0.35 0.46 0.47 0.51 0.49 0.53 0.57 0.57 0.55 0.52 0.52 0.53 0.45 0.46 0.46 0.47 0.48 0.45 0.40 0.39 0.33 0.29 0.27 0.33 0.39 0.40 0.40 0.34 0.25 0.29 0.34 0.30 0.29 0.25 0.26 0.32 0.31 0.33
0.36 0.36 0.36 0.37 0.39 0.48 0.54 0.51 0.50 0.46 0.46 0.45 0.41 0.36 0.34 0.33 0.34 0.36 0.38 0.40 0.34 0.29 0.28 0.25 0.23 0.22 0.24 0.28 0.34 0.41 0.41 0.41 0.35 0.29 0.32 0.38 0.32 0.27 0.22 0.22 0.28 0.29 0.32
0.63 0.62 0.62 0.60 0.57 0.55 0.51 0.41 0.35 0.31 0.30 0.28 0.25 0.23 0.22 0.21 0.25 0.30 0.31 0.31 0.29 0.27 0.26 0.27 0.27 0.26 0.28 0.31 0.34 0.38 0.45 0.53 0.49 0.36 0.30 0.32 0.29 0.26 0.25 0.25 0.27 0.33 0.35
0.61 0.58 0.56 0.51 0.46 0.39 0.32 0.23 0.18 0.15 0.15 0.14 0.14 0.14 0.17 0.18 0.25 0.31 0.28 0.27 0.27 0.25 0.26 0.28 0.28 0.26 0.25 0.26 0.31 0.29 0.33 0.51 0.53 0.40 0.24 0.26 0.29 0.34 0.44 0.32 0.29 0.33 0.38

GEFSMA_prec_meanprecacc_144.txt.gz
Total_Precipitation_Accumulation
0.44 0.45 0.41 0.38 0.33 0.31 0.29 0.26 0.23 0.21 0.19 0.18 0.18 0.18 0.20 0.19 0.18 0.19 0.17 0.12 0.09 0.09 0.13 0.18 0.26 0.32 0.34 0.36 0.37 0.37 0.33 0.28 0.22 0.19 0.15 0.13 0.10 0.08 0.07 0.07 0.07 0.07 0.07
0.53 0.51 0.49 0.46 0.40 0.38 0.35 0.34 0.32 0.31 0.28 0.25 0.21 0.19 0.18 0.18 0.17 0.16 0.16 0.15 0.12 0.11 0.11 0.16 0.25 0.35 0.44 0.51 0.54 0.53 0.47 0.39 0.35 0.31 0.27 0.22 0.18 0.15 0.13 0.12 0.11 0.09 0.09
0.59 0.60 0.58 0.51 0.46 0.46 0.47 0.49 0.48 0.46 0.38 0.34 0.28 0.27 0.26 0.25 0.23 0.21 0.19 0.17 0.16 0.16 0.16 0.17 0.24 0.35 0.46 0.57 0.67 0.73 0.69 0.58 0.47 0.41 0.39 0.34 0.30 0.25 0.21 0.19 0.17 0.15 0.14
0.64 0.69 0.69 0.63 0.58 0.58 0.58 0.57 0.55 0.54 0.47 0.42 0.37 0.36 0.35 0.33 0.31 0.30 0.29 0.26 0.23 0.20 0.20 0.21 0.26 0.34 0.44 0.53 0.68 0.84 0.91 0.81 0.65 0.55 0.50 0.46 0.44 0.42 0.38 0.33 0.28 0.23 0.20
0.69 0.69 0.67 0.67 0.69 0.65 0.63 0.64 0.58 0.56 0.51 0.49 0.48 0.44 0.40 0.38 0.35 0.35 0.35 0.35 0.34 0.32 0.30 0.29 0.26 0.26 0.32 0.41 0.53 0.74 0.92 0.93 0.80 0.70 0.63 0.59 0.56 0.53 0.49 0.44 0.39 0.32 0.27
0.79 0.75 0.71 0.74 0.77 0.71 0.62 0.62 0.62 0.61 0.55 0.57 0.57 0.50 0.46 0.43 0.40 0.37 0.36 0.37 0.37 0.37 0.36 0.35 0.33 0.31 0.30 0.33 0.41 0.56 0.74 0.89 0.90 0.83 0.75 0.70 0.64 0.61 0.58 0.56 0.53 0.50 0.45
0.95 0.96 0.88 0.86 0.89 0.83 0.74 0.76 0.83 0.80 0.73 0.74 0.69 0.54 0.45 0.43 0.41 0.40 0.38 0.37 0.34 0.34 0.32 0.32 0.32 0.32 0.32 0.34 0.36 0.44 0.58 0.76 0.89 0.92 0.87 0.82 0.79 0.74 0.74 0.75 0.73 0.70 0.66
1.15 1.15 1.13 1.12 1.10 1.02 0.94 0.93 0.95 0.92 0.89 0.92 0.89 0.81 0.59 0.45 0.38 0.36 0.37 0.36 0.37 0.37 0.34 0.33 0.33 0.33 0.31 0.31 0.34 0.37 0.44 0.58 0.76 0.94 1.02 0.99 0.95 0.91 0.91 0.92 0.94 0.91 0.86
1.38 1.30 1.28 1.33 1.30 1.20 1.09 1.06 1.06 1.04 1.04 1.07 1.03 1.05 0.83 0.57 0.44 0.38 0.35 0.32 0.35 0.39 0.41 0.40 0.38 0.35 0.31 0.29 0.29 0.32 0.35 0.41 0.60 0.84 1.02 1.07 1.05 1.05 1.10 1.14 1.18 1.18 1.12
1.49 1.47 1.44 1.41 1.40 1.36 1.25 1.20 1.20 1.18 1.15 1.12 1.10 1.00 0.92 0.78 0.69 0.53 0.39 0.35 0.32 0.33 0.37 0.41 0.41 0.40 0.40 0.38 0.37 0.36 0.36 0.35 0.45 0.70 0.99 1.18 1.22 1.24 1.30 1.37 1.43 1.49 1.47
1.49 1.47 1.45 1.40 1.32 1.29 1.29 1.28 1.26 1.23 1.15 1.07 1.03 0.99 0.93 0.79 0.67 0.64 0.49 0.37 0.33 0.30 0.30 0.34 0.38 0.40 0.43 0.44 0.43 0.47 0.50 0.47 0.52 0.67 0.92 1.19 1.38 1.48 1.54 1.57 1.57 1.59 1.59
1.53 1.49 1.48 1.40 1.29 1.22 1.18 1.19 1.20 1.18 1.14 1.08 1.01 0.97 0.95 0.88 0.74 0.71 0.66 0.51 0.44 0.36 0.33 0.33 0.36 0.39 0.42 0.46 0.52 0.65 0.66 0.67 0.71 0.83 1.03 1.26 1.44 1.55 1.63 1.70 1.75 1.73 1.69
1.39 1.39 1.43 1.42 1.37 1.32 1.33 1.30 1.28 1.21 1.18 1.12 1.05 0.97 0.94 0.88 0.81 0.81 0.82 0.69 0.58 0.46 0.40 0.38 0.39 0.45 0.50 0.55 0.63 0.82 0.83 0.86 0.89 0.99 1.19 1.35 1.41 1.43 1.47 1.58 1.74 1.84 1.84
1.35 1.33 1.34 1.35 1.36 1.31 1.28 1.28 1.28 1.25 1.24 1.20 1.12 1.03 0.95 0.87 0.85 0.89 0.94 0.98 0.93 0.73 0.59 0.54 0.52 0.57 0.65 0.73 0.87 1.01 0.92 1.04 1.07 1.15 1.29 1.44 1.40 1.29 1.24 1.30 1.42 1.56 1.60
1.33 1.31 1.30 1.24 1.22 1.19 1.17 1.16 1.15 1.13 1.12 1.11 1.07 1.04 0.99 0.93 0.93 0.97 1.04 1.15 1.30 1.22 0.96 0.76 0.73 0.75 0.81 0.88 1.02 0.97 0.92 1.12 1.15 1.15 1.21 1.22 1.15 1.08 1.06 1.07 1.11 1.19 1.24
1.07 1.13 1.16 1.15 1.11 1.10 1.08 1.07 1.02 0.99 0.98 0.94 0.92 0.95 0.96 0.95 0.98 1.00 1.07 1.15 1.26 1.35 1.22 0.89 0.77 0.80 0.90 0.97 1.09 0.98 0.92 1.07 1.05 1.05 1.05 1.00 0.95 0.91 0.90 0.89 0.87 0.89 0.92
0.86 0.91 1.01 1.08 1.05 1.03 1.01 0.99 0.95 0.91 0.89 0.86 0.85 0.86 0.88 0.87 0.92 0.95 0.99 1.07 1.18 1.32 1.37 1.13 0.96 0.94 0.98 0.98 0.97 0.87 0.81 0.81 0.79 0.87 0.84 0.79 0.76 0.74 0.73 0.73 0.74 0.77 0.77
0.78 0.78 0.77 0.80 0.86 0.89 0.90 0.91 0.89 0.85 0.82 0.80 0.79 0.81 0.82 0.84 0.89 0.93 1.00 1.07 1.13 1.20 1.26 1.16 0.98 0.90 0.84 0.77 0.73 0.69 0.63 0.60 0.59 0.69 0.66 0.61 0.59 0.57 0.55 0.56 0.60 0.62 0.63
0.62 0.66 0.65 0.64 0.64 0.64 0.66 0.71 0.77 0.79 0.78 0.76 0.78 0.82 0.84 0.87 0.91 0.94 1.00 1.05 1.07 1.05 1.03 0.97 0.84 0.71 0.65 0.61 0.61 0.58 0.52 0.50 0.48 0.55 0.57 0.53 0.50 0.48 0.45 0.46 0.48 0.50 0.51
0.36 0.39 0.44 0.47 0.50 0.52 0.52 0.53 0.57 0.65 0.72 0.76 0.78 0.82 0.87 0.95 1.02 1.06 1.06 1.04 1.00 0.96 0.91 0.86 0.78 0.68 0.60 0.53 0.53 0.54 0.51 0.45 0.41 0.39 0.45 0.45 0.45 0.44 0.41 0.38 0.36 0.37 0.41
0.17 0.21 0.26 0.30 0.34 0.39 0.43 0.47 0.48 0.52 0.57 0.65 0.74 0.82 0.88 0.99 1.02 0.96 0.88 0.81 0.76 0.75 0.74 0.74 0.69 0.60 0.52 0.48 0.46 0.42 0.41 0.40 0.38 0.34 0.35 0.35 0.34 0.34 0.33 0.34 0.34 0.33 0.35
0.12 0.14 0.18 0.22 0.27 0.32 0.44 0.45 0.42 0.45 0.53 0.59 0.64 0.69 0.76 0.81 0.76 0.72 0.67 0.62 0.62 0.66 0.66 0.59 0.52 0.44 0.37 0.32 0.32 0.36 0.40 0.46 0.45 0.32 0.31 0.32 0.31 0.33 0.30 0.29 0.33 0.34 0.34
0.18 0.19 0.20 0.22 0.26 0.35 0.46 0.47 0.52 0.49 0.53 0.57 0.57 0.55 0.52 0.52 0.53 0.46 0.47 0.47 0.47 0.48 0.45 0.41 0.39 0.33 0.29 0.27 0.33 0.39 0.41 0.40 0.34 0.25 0.29 0.34 0.30 0.29 0.25 0.26 0.32 0.32 0.34
0.37 0.37 0.37 0.37 0.40 0.48 0.54 0.51 0.50 0.47 0.46 0.45 0.41 0.37 0.34 0.33 0.34 0.36 0.38 0.40 0.34 0.29 0.28 0.25 0.23 0.22 0.24 0.28 0.34 0.41 0.41 0.41 0.35 0.29 0.32 0.38 0.32 0.27 0.22 0.23 0.29 0.30 0.33
0.63 0.62 0.62 0.60 0.57 0.55 0.51 0.41 0.35 0.31 0.30 0.28 0.25 0.23 0.22 0.21 0.25 0.30 0.31 0.31 0.29 0.27 0.26 0.27 0.27 0.26 0.28 0.31 0.34 0.38 0.45 0.54 0.49 0.36 0.30 0.32 0.29 0.26 0.25 0.25 0.27 0.33 0.35
0.61 0.58 0.56 0.52 0.46 0.39 0.32 0.24 0.18 0.15 0.15 0.14 0.14 0.14 0.17 0.18 0.25 0.31 0.28 0.27 0.27 0.25 0.26 0.28 0.28 0.26 0.25 0.26 0.31 0.29 0.33 0.52 0.54 0.41 0.24 0.26 0.29 0.34 0.45 0.32 0.29 0.33 0.38

GEFSMA_prec_meanprecacc_150.txt.gz
Total_Precipitation_Accumulation
0.46 0.47 0.43 0.40 0.35 0.33 0.30 0.27 0.24 0.21 0.19 0.18 0.18 0.18 0.20 0.19 0.18 0.19 0.17 0.12 0.09 0.10 0.14 0.20 0.28 0.34 0.37 0.39 0.40 0.40 0.37 0.32 0.28 0.24 0.21 0.18 0.14 0.11 0.10 0.10 0.11 0.11 0.11
0.54 0.52 0.50 0.48 0.43 0.40 0.37 0.36 0.33 0.32 0.28 0.25 0.21 0.19 0.18 0.18 0.17 0.16 0.16 0.16 0.15 0.12 0.12 0.18 0.27 0.37 0.46 0.55 0.57 0.56 0.50 0.43 0.40 0.36 0.33 0.27 0.23 0.21 0.19 0.18 0.17 0.15 0.15
0.60 0.60 0.59 0.53 0.48 0.49 0.50 0.51 0.49 0.47 0.39 0.34 0.28 0.27 0.26 0.25 0.23 0.21 0.19 0.17 0.19 0.18 0.17 0.19 0.27 0.37 0.49 0.62 0.72 0.77 0.72 0.61 0.51 0.46 0.44 0.40 0.36 0.32 0.29 0.28 0.26 0.24 0.22
0.66 0.69 0.69 0.64 0.60 0.61 0.61 0.60 0.57 0.57 0.48 0.42 0.38 0.36 0.35 0.33 0.31 0.30 0.29 0.26 0.24 0.21 0.21 0.22 0.27 0.35 0.46 0.57 0.75 0.89 0.93 0.83 0.68 0.58 0.54 0.51 0.48 0.48 0.46 0.45 0.42 0.36 0.31
0.72 0.70 0.68 0.67 0.71 0.68 0.66 0.66 0.61 0.58 0.52 0.49 0.49 0.44 0.40 0.38 0.35 0.35 0.35 0.35 0.35 0.33 0.30 0.30 0.27 0.26 0.33 0.42 0.56 0.77 0.94 0.95 0.82 0.72 0.66 0.63 0.62 0.59 0.54 0.50 0.48 0.45 0.41
0.86 0.79 0.72 0.75 0.78 0.75 0.66 0.64 0.64 0.64 0.58 0.58 0.57 0.50 0.46 0.43 0.40 0.37 0.37 0.37 0.37 0.37 0.36 0.35 0.33 0.31 0.30 0.34 0.42 0.58 0.77 0.91 0.92 0.84 0.77 0.72 0.68 0.66 0.64 0.61 0.59 0.56 0.53
1.04 1.03 0.93 0.88 0.90 0.84 0.78 0.80 0.86 0.82 0.75 0.75 0.69 0.54 0.46 0.44 0.42 0.40 0.39 0.37 0.35 0.34 0.32 0.32 0.32 0.32 0.32 0.34 0.36 0.45 0.60 0.77 0.91 0.94 0.90 0.85 0.82 0.79 0.79 0.81 0.79 0.76 0.72
1.22 1.21 1.18 1.15 1.12 1.04 0.98 0.96 0.99 0.96 0.91 0.93 0.89 0.81 0.59 0.45 0.38 0.36 0.37 0.36 0.37 0.37 0.35 0.34 0.33 0.33 0.31 0.32 0.34 0.38 0.45 0.59 0.78 0.96 1.04 1.01 0.99 0.97 0.98 1.00 1.01 0.98 0.93
1.43 1.34 1.31 1.35 1.32 1.22 1.13 1.10 1.09 1.08 1.08 1.09 1.04 1.06 0.83 0.58 0.45 0.38 0.35 0.33 0.35 0.40 0.42 0.41 0.39 0.36 0.32 0.29 0.29 0.33 0.35 0.41 0.60 0.86 1.03 1.08 1.08 1.09 1.16 1.20 1.24 1.25 1.20
1.53 1.49 1.47 1.44 1.44 1.41 1.29 1.25 1.26 1.22 1.19 1.16 1.13 1.01 0.93 0.79 0.70 0.54 0.40 0.36 0.34 0.34 0.38 0.41 0.41 0.41 0.40 0.39 0.37 0.37 0.36 0.36 0.46 0.71 1.01 1.20 1.25 1.27 1.34 1.41 1.48 1.54 1.54
1.55 1.50 1.48 1.42 1.34 1.33 1.36 1.36 1.34 1.31 1.20 1.11 1.06 1.01 0.95 0.81 0.69 0.65 0.50 0.38 0.35 0.32 0.32 0.36 0.40 0.42 0.45 0.45 0.44 0.48 0.51 0.48 0.53 0.68 0.94 1.20 1.40 1.51 1.58 1.62 1.62 1.65 1.65
1.60 1.55 1.52 1.42 1.31 1.23 1.21 1.25 1.29 1.28 1.25 1.17 1.08 1.02 0.99 0.91 0.77 0.73 0.69 0.53 0.46 0.38 0.34 0.35 0.37 0.41 0.44 0.48 0.54 0.67 0.67 0.68 0.72 0.84 1.05 1.27 1.46 1.58 1.67 1.76 1.80 1.78 1.74
1.45 1.46 1.48 1.45 1.39 1.34 1.35 1.33 1.33 1.28 1.25 1.21 1.15 1.05 0.99 0.92 0.84 0.84 0.85 0.72 0.60 0.47 0.41 0.39 0.40 0.46 0.51 0.56 0.64 0.82 0.84 0.87 0.90 1.00 1.20 1.37 1.43 1.45 1.49 1.62 1.81 1.90 1.89
1.40 1.39 1.39 1.39 1.38 1.32 1.29 1.29 1.31 1.29 1.29 1.26 1.20 1.11 1.01 0.91 0.88 0.91 0.96 1.00 0.94 0.74 0.60 0.55 0.53 0.58 0.65 0.73 0.88 1.01 0.92 1.05 1.08 1.17 1.30 1.46 1.42 1.31 1.26 1.33 1.47 1.62 1.66
1.36 1.35 1.34 1.29 1.25 1.22 1.18 1.17 1.17 1.15 1.15 1.15 1.11 1.10 1.06 0.98 0.97 0.99 1.05 1.17 1.31 1.23 0.96 0.76 0.73 0.75 0.82 0.88 1.02 0.98 0.92 1.12 1.15 1.16 1.22 1.23 1.17 1.10 1.08 1.10 1.15 1.23 1.28
1.09 1.15 1.19 1.18 1.14 1.13 1.10 1.08 1.04 1.00 1.00 0.96 0.95 0.98 1.00 1.00 1.02 1.03 1.09 1.17 1.28 1.36 1.23 0.90 0.78 0.80 0.90 0.98 1.09 0.98 0.92 1.08 1.05 1.05 1.06 1.01 0.96 0.93 0.92 0.91 0.89 0.91 0.95
0.88 0.93 1.04 1.10 1.08 1.06 1.04 1.01 0.96 0.92 0.90 0.87 0.86 0.89 0.90 0.90 0.95 0.97 1.01 1.09 1.20 1.33 1.38 1.14 0.96 0.95 0.98 0.98 0.97 0.87 0.81 0.81 0.79 0.88 0.84 0.80 0.77 0.75 0.74 0.75 0.76 0.78 0.79
0.79 0.79 0.78 0.82 0.88 0.91 0.92 0.93 0.90 0.86 0.82 0.80 0.79 0.81 0.83 0.85 0.91 0.95 1.01 1.08 1.14 1.21 1.26 1.16 0.98 0.90 0.84 0.77 0.73 0.69 0.63 0.61 0.59 0.70 0.66 0.62 0.60 0.58 0.56 0.57 0.61 0.63 0.64
0.62 0.66 0.66 0.65 0.64 0.65 0.67 0.71 0.77 0.79 0.78 0.76 0.78 0.82 0.84 0.88 0.91 0.95 1.01 1.06 1.08 1.06 1.04 0.98 0.84 0.72 0.66 0.61 0.61 0.58 0.52 0.50 0.48 0.55 0.57 0.53 0.51 0.48 0.46 0.46 0.48 0.50 0.52
0.36 0.40 0.44 0.47 0.50 0.52 0.52 0.53 0.57 0.65 0.72 0.76 0.78 0.82 0.87 0.95 1.02 1.06 1.06 1.04 1.00 0.96 0.91 0.86 0.78 0.68 0.60 0.53 0.53 0.54 0.51 0.45 0.42 0.40 0.45 0.45 0.45 0.44 0.41 0.38 0.36 0.37 0.41
0.17 0.21 0.26 0.30 0.35 0.39 0.43 0.47 0.48 0.52 0.57 0.65 0.74 0.82 0.89 0.99 1.02 0.96 0.88 0.81 0.76 0.75 0.74 0.74 0.70 0.61 0.53 0.48 0.46 0.42 0.42 0.40 0.38 0.35 0.36 0.36 0.35 0.34 0.33 0.34 0.34 0.34 0.35
0.12 0.14 0.18 0.22 0.27 0.32 0.44 0.45 0.42 0.45 0.53 0.59 0.64 0.69 0.76 0.81 0.76 0.72 0.67 0.62 0.63 0.66 0.67 0.60 0.52 0.45 0.37 0.33 0.32 0.36 0.41 0.46 0.46 0.33 0.32 0.33 0.31 0.33 0.30 0.29 0.33 0.34 0.34
0.19 0.20 0.20 0.22 0.26 0.35 0.46 0.47 0.52 0.49 0.53 0.57 0.57 0.55 0.52 0.52 0.53 0.46 0.47 0.47 0.48 0.49 0.46 0.42 0.40 0.34 0.30 0.27 0.33 0.40 0.41 0.41 0.35 0.26 0.30 0.34 0.31 0.30 0.25 0.26 0.32 0.32 0.34
0.37 0.37 0.37 0.37 0.40 0.48 0.54 0.51 0.51 0.47 0.46 0.45 0.41 0.37 0.34 0.33 0.34 0.36 0.38 0.40 0.34 0.30 0.28 0.25 0.23 0.22 0.24 0.28 0.35 0.42 0.42 0.42 0.35 0.30 0.32 0.38 0.32 0.27 0.22 0.23 0.29 0.30 0.33
0.63 0.62 0.62 0.60 0.57 0.56 0.51 0.41 0.35 0.32 0.30 0.28 0.25 0.23 0.22 0.21 0.25 0.30 0.31 0.31 0.29 0.27 0.26 0.27 0.27 0.26 0.28 0.31 0.34 0.39 0.46 0.55 0.50 0.36 0.31 0.32 0.29 0.26 0.25 0.25 0.27 0.33 0.35
0.61 0.58 0.56 0.52 0.46 0.39 0.32 0.24 0.19 0.16 0.15 0.14 0.14 0.14 0.17 0.19 0.25 0.31 0.28 0.27 0.27 0.25 0.26 0.28 0.28 0.27 0.25 0.26 0.31 0.30 0.34 0.53 0.55 0.41 0.24 0.26 0.29 0.34 0.45 0.32 0.29 0.33 0.38

GEFSMA_prec_meanprecacc_156.txt.gz
Total_Precipitation_Accumulation
0.51 0.51 0.48 0.44 0.38 0.36 0.33 0.30 0.26 0.24 0.22 0.20 0.19 0.19 0.20 0.19 0.18 0.19 0.17 0.12 0.09 0.10 0.15 0.21 0.29 0.35 0.38 0.41 0.42 0.42 0.39 0.34 0.29 0.26 0.23 0.21 0.18 0.15 0.14 0.14 0.15 0.15 0.15
0.58 0.56 0.53 0.51 0.46 0.42 0.38 0.37 0.34 0.34 0.30 0.28 0.23 0.19 0.18 0.19 0.17 0.17 0.16 0.16 0.15 0.12 0.13 0.19 0.28 0.38 0.48 0.57 0.60 0.59 0.53 0.45 0.42 0.38 0.35 0.29 0.26 0.24 0.24 0.22 0.21 0.19 0.18
0.62 0.61 0.60 0.54 0.50 0.50 0.51 0.52 0.50 0.48 0.41 0.37 0.32 0.30 0.27 0.25 0.23 0.21 0.19 0.18 0.19 0.19 0.18 0.20 0.28 0.38 0.51 0.64 0.75 0.81 0.75 0.63 0.53 0.48 0.45 0.41 0.37 0.34 0.33 0.32 0.30 0.28 0.26
0.69 0.71 0.70 0.65 0.61 0.61 0.62 0.61 0.59 0.58 0.50 0.45 0.40 0.39 0.38 0.34 0.31 0.30 0.29 0.27 0.24 0.22 0.21 0.23 0.28 0.37 0.48 0.60 0.78 0.92 0.96 0.85 0.69 0.59 0.55 0.52 0.50 0.49 0.49 0.48 0.45 0.40 0.35
0.77 0.74 0.70 0.69 0.72 0.69 0.67 0.67 0.62 0.59 0.54 0.51 0.50 0.46 0.42 0.39 0.36 0.35 0.36 0.36 0.35 0.33 0.31 0.30 0.28 0.27 0.33 0.43 0.58 0.80 0.97 0.97 0.83 0.73 0.67 0.64 0.63 0.61 0.57 0.54 0.51 0.49 0.45
0.90 0.84 0.77 0.78 0.80 0.76 0.67 0.65 0.65 0.65 0.59 0.60 0.59 0.52 0.47 0.44 0.41 0.38 0.37 0.37 0.37 0.37 0.37 0.35 0.33 0.31 0.31 0.35 0.43 0.60 0.81 0.93 0.93 0.85 0.78 0.73 0.69 0.67 0.66 0.64 0.62 0.59 0.57
1.08 1.05 0.95 0.91 0.92 0.86 0.79 0.81 0.86 0.83 0.76 0.77 0.71 0.55 0.47 0.44 0.42 0.40 0.39 0.37 0.35 0.34 0.33 0.33 0.33 0.33 0.33 0.34 0.37 0.46 0.63 0.81 0.93 0.96 0.92 0.87 0.83 0.80 0.81 0.83 0.82 0.79 0.75
1.28 1.24 1.20 1.17 1.13 1.05 0.98 0.97 1.00 0.97 0.91 0.95 0.91 0.82 0.60 0.46 0.39 0.36 0.37 0.36 0.38 0.37 0.35 0.34 0.34 0.34 0.32 0.32 0.34 0.38 0.46 0.62 0.81 0.99 1.07 1.03 1.00 0.98 0.99 1.01 1.03 1.01 0.95
1.50 1.38 1.34 1.37 1.33 1.23 1.13 1.11 1.10 1.09 1.09 1.10 1.06 1.08 0.84 0.58 0.45 0.39 0.35 0.33 0.35 0.40 0.42 0.42 0.39 0.36 0.32 0.29 0.30 0.33 0.36 0.43 0.63 0.88 1.06 1.10 1.09 1.11 1.18 1.22 1.26 1.27 1.23
1.61 1.56 1.51 1.47 1.46 1.42 1.30 1.26 1.27 1.23 1.20 1.17 1.14 1.02 0.94 0.79 0.71 0.54 0.40 0.36 0.35 0.35 0.39 0.42 0.42 0.41 0.41 0.39 0.38 0.37 0.37 0.36 0.48 0.73 1.03 1.21 1.26 1.29 1.36 1.44 1.51 1.57 1.56
1.60 1.55 1.53 1.45 1.36 1.34 1.36 1.37 1.35 1.32 1.21 1.13 1.08 1.02 0.96 0.82 0.70 0.66 0.51 0.38 0.35 0.32 0.32 0.36 0.40 0.43 0.45 0.45 0.44 0.49 0.52 0.49 0.54 0.71 0.96 1.22 1.41 1.52 1.60 1.64 1.65 1.67 1.67
1.65 1.58 1.55 1.45 1.33 1.24 1.21 1.25 1.30 1.29 1.26 1.19 1.09 1.04 1.00 0.92 0.78 0.75 0.70 0.54 0.46 0.38 0.35 0.35 0.38 0.41 0.45 0.48 0.54 0.68 0.68 0.69 0.74 0.87 1.08 1.30 1.47 1.59 1.68 1.77 1.82 1.79 1.75
1.49 1.48 1.49 1.47 1.41 1.35 1.35 1.34 1.33 1.28 1.26 1.23 1.17 1.08 1.02 0.94 0.85 0.86 0.87 0.74 0.62 0.49 0.43 0.40 0.41 0.46 0.52 0.57 0.65 0.84 0.85 0.89 0.92 1.03 1.23 1.39 1.44 1.46 1.49 1.63 1.82 1.92 1.91
1.41 1.42 1.42 1.40 1.40 1.34 1.29 1.30 1.31 1.30 1.29 1.27 1.21 1.13 1.02 0.92 0.90 0.93 0.98 1.03 0.97 0.76 0.61 0.56 0.53 0.59 0.66 0.74 0.89 1.03 0.94 1.06 1.09 1.18 1.32 1.47 1.43 1.32 1.26 1.33 1.47 1.63 1.67
1.37 1.36 1.37 1.32 1.27 1.23 1.19 1.17 1.17 1.15 1.16 1.16 1.12 1.11 1.07 0.99 0.98 1.01 1.07 1.19 1.34 1.25 0.97 0.77 0.74 0.76 0.83 0.89 1.04 0.99 0.93 1.14 1.17 1.17 1.23 1.24 1.18 1.10 1.09 1.10 1.15 1.23 1.28
1.10 1.16 1.20 1.21 1.18 1.16 1.12 1.10 1.04 1.00 1.00 0.97 0.95 0.98 1.01 1.01 1.03 1.04 1.10 1.18 1.29 1.38 1.24 0.91 0.79 0.81 0.91 0.99 1.11 1.00 0.94 1.10 1.07 1.07 1.07 1.02 0.96 0.93 0.92 0.91 0.89 0.92 0.96
0.88 0.94 1.04 1.11 1.10 1.09 1.07 1.04 0.98 0.93 0.90 0.87 0.86 0.89 0.90 0.90 0.96 0.99 1.03 1.11 1.21 1.34 1.39 1.14 0.97 0.96 1.00 0.99 0.98 0.88 0.82 0.82 0.80 0.89 0.85 0.81 0.77 0.75 0.75 0.75 0.76 0.79 0.79
0.80 0.79 0.78 0.82 0.88 0.92 0.94 0.95 0.93 0.88 0.83 0.81 0.80 0.82 0.83 0.85 0.92 0.97 1.03 1.10 1.16 1.23 1.28 1.18 1.00 0.91 0.85 0.78 0.75 0.70 0.63 0.61 0.60 0.70 0.67 0.62 0.60 0.58 0.56 0.57 0.61 0.64 0.65
0.63 0.67 0.66 0.65 0.65 0.65 0.68 0.73 0.79 0.82 0.80 0.78 0.79 0.82 0.84 0.88 0.92 0.95 1.02 1.08 1.10 1.08 1.05 0.99 0.85 0.73 0.67 0.63 0.63 0.59 0.53 0.51 0.49 0.56 0.57 0.54 0.51 0.48 0.46 0.46 0.48 0.50 0.52
0.37 0.41 0.45 0.48 0.51 0.53 0.52 0.53 0.58 0.67 0.74 0.78 0.79 0.83 0.87 0.95 1.02 1.06 1.07 1.06 1.02 0.98 0.93 0.88 0.80 0.70 0.61 0.54 0.54 0.55 0.52 0.46 0.42 0.40 0.46 0.46 0.46 0.45 0.41 0.38 0.36 0.37 0.41
0.18 0.22 0.27 0.31 0.35 0.39 0.44 0.47 0.49 0.53 0.59 0.67 0.76 0.83 0.89 0.99 1.02 0.97 0.88 0.82 0.77 0.76 0.75 0.76 0.71 0.62 0.54 0.49 0.47 0.43 0.42 0.41 0.39 0.35 0.36 0.36 0.35 0.34 0.33 0.34 0.34 0.34 0.35
0.13 0.15 0.19 0.23 0.28 0.33 0.45 0.45 0.42 0.45 0.54 0.60 0.65 0.71 0.77 0.82 0.76 0.72 0.67 0.63 0.63 0.67 0.67 0.61 0.53 0.46 0.38 0.34 0.33 0.37 0.41 0.47 0.47 0.33 0.32 0.33 0.32 0.33 0.30 0.29 0.34 0.34 0.34
0.19 0.20 0.21 0.23 0.27 0.36 0.47 0.47 0.52 0.49 0.53 0.57 0.57 0.55 0.53 0.53 0.54 0.46 0.47 0.47 0.48 0.50 0.47 0.42 0.40 0.34 0.30 0.28 0.34 0.41 0.42 0.42 0.35 0.26 0.31 0.35 0.31 0.30 0.25 0.26 0.33 0.32 0.34
0.37 0.37 0.37 0.37 0.40 0.48 0.55 0.52 0.51 0.47 0.46 0.45 0.41 0.37 0.34 0.34 0.34 0.36 0.39 0.40 0.34 0.30 0.28 0.26 0.24 0.23 0.25 0.29 0.35 0.42 0.43 0.42 0.35 0.30 0.32 0.38 0.32 0.27 0.22 0.23 0.29 0.30 0.33
0.63 0.62 0.62 0.60 0.58 0.56 0.51 0.42 0.36 0.32 0.31 0.28 0.25 0.23 0.22 0.21 0.25 0.30 0.32 0.32 0.30 0.27 0.26 0.27 0.27 0.27 0.29 0.32 0.35 0.40 0.47 0.56 0.51 0.36 0.31 0.32 0.29 0.26 0.25 0.25 0.27 0.34 0.35
0.61 0.58 0.56 0.52 0.46 0.39 0.32 0.24 0.19 0.16 0.15 0.14 0.14 0.14 0.17 0.19 0.25 0.32 0.29 0.28 0.27 0.25 0.26 0.28 0.28 0.27 0.25 0.26 0.31 0.30 0.35 0.54 0.56 0.42 0.24 0.26 0.29 0.35 0.45 0.32 0.29 0.33 0.38

GEFSMA_prec_meanprecacc_162.txt.gz
Total_Precipitation_Accumulation
0.54 0.53 0.49 0.46 0.40 0.38 0.35 0.31 0.27 0.26 0.24 0.22 0.20 0.20 0.20 0.19 0.18 0.19 0.17 0.12 0.10 0.10 0.16 0.22 0.31 0.37 0.40 0.43 0.43 0.43 0.40 0.36 0.31 0.28 0.24 0.22 0.20 0.17 0.16 0.16 0.17 0.18 0.18
0.63 0.58 0.54 0.53 0.47 0.43 0.39 0.37 0.35 0.35 0.32 0.31 0.25 0.21 0.20 0.19 0.17 0.17 0.16 0.16 0.15 0.13 0.13 0.20 0.30 0.39 0.50 0.59 0.62 0.61 0.54 0.47 0.44 0.41 0.37 0.31 0.27 0.25 0.24 0.23 0.22 0.20 0.20
0.66 0.64 0.62 0.55 0.50 0.51 0.51 0.52 0.50 0.49 0.43 0.39 0.34 0.32 0.29 0.26 0.24 0.21 0.19 0.18 0.19 0.19 0.18 0.20 0.28 0.39 0.53 0.67 0.78 0.84 0.77 0.65 0.56 0.51 0.48 0.43 0.39 0.35 0.33 0.33 0.32 0.29 0.27
0.75 0.75 0.73 0.67 0.62 0.62 0.63 0.62 0.60 0.59 0.50 0.45 0.42 0.41 0.39 0.36 0.32 0.30 0.29 0.27 0.24 0.22 0.21 0.23 0.28 0.37 0.49 0.62 0.81 0.95 0.98 0.87 0.71 0.62 0.57 0.54 0.51 0.51 0.50 0.50 0.47 0.42 0.37
0.87 0.83 0.75 0.74 0.76 0.72 0.69 0.69 0.64 0.61 0.55 0.51 0.51 0.48 0.44 0.41 0.37 0.35 0.36 0.36 0.35 0.33 0.31 0.30 0.28 0.27 0.34 0.44 0.60 0.82 0.99 0.98 0.85 0.74 0.68 0.66 0.64 0.62 0.58 0.56 0.54 0.51 0.47
0.99 0.92 0.83 0.83 0.84 0.79 0.70 0.67 0.67 0.67 0.60 0.61 0.60 0.53 0.49 0.46 0.42 0.38 0.37 0.37 0.37 0.37 0.37 0.35 0.33 0.31 0.31 0.35 0.44 0.62 0.83 0.96 0.95 0.87 0.79 0.75 0.71 0.68 0.67 0.66 0.64 0.61 0.59
1.14 1.12 1.01 0.95 0.95 0.89 0.81 0.82 0.88 0.84 0.77 0.79 0.73 0.57 0.48 0.46 0.44 0.41 0.39 0.37 0.35 0.34 0.33 0.33 0.33 0.33 0.33 0.34 0.37 0.46 0.64 0.84 0.97 0.99 0.94 0.89 0.86 0.82 0.82 0.85 0.83 0.80 0.76
1.33 1.30 1.25 1.20 1.15 1.06 1.00 0.98 1.01 0.97 0.92 0.95 0.92 0.83 0.61 0.47 0.39 0.37 0.38 0.37 0.38 0.37 0.35 0.34 0.34 0.34 0.32 0.32 0.34 0.38 0.47 0.64 0.85 1.03 1.11 1.07 1.04 1.01 1.01 1.03 1.05 1.02 0.96
1.54 1.43 1.38 1.40 1.35 1.24 1.14 1.12 1.10 1.09 1.09 1.10 1.06 1.08 0.85 0.59 0.45 0.39 0.35 0.33 0.36 0.40 0.42 0.42 0.39 0.36 0.32 0.29 0.30 0.33 0.36 0.43 0.65 0.92 1.11 1.15 1.13 1.14 1.20 1.25 1.29 1.30 1.25
1.65 1.60 1.55 1.50 1.49 1.44 1.31 1.27 1.27 1.23 1.21 1.18 1.14 1.03 0.95 0.80 0.71 0.54 0.40 0.36 0.35 0.35 0.39 0.42 0.42 0.41 0.41 0.39 0.38 0.38 0.37 0.37 0.48 0.76 1.07 1.26 1.30 1.32 1.39 1.46 1.53 1.60 1.59
1.66 1.60 1.56 1.48 1.39 1.37 1.38 1.38 1.36 1.32 1.22 1.13 1.08 1.03 0.97 0.83 0.70 0.66 0.51 0.38 0.36 0.32 0.32 0.36 0.40 0.43 0.45 0.46 0.44 0.49 0.52 0.49 0.55 0.72 0.99 1.25 1.44 1.55 1.63 1.67 1.67 1.69 1.69
1.71 1.64 1.59 1.49 1.36 1.27 1.23 1.27 1.31 1.30 1.27 1.19 1.10 1.04 1.01 0.93 0.79 0.75 0.70 0.54 0.47 0.39 0.35 0.35 0.38 0.41 0.45 0.49 0.54 0.68 0.68 0.69 0.74 0.88 1.10 1.34 1.51 1.62 1.71 1.79 1.84 1.81 1.77
1.54 1.55 1.55 1.52 1.45 1.38 1.38 1.36 1.35 1.30 1.27 1.23 1.18 1.08 1.02 0.94 0.86 0.86 0.88 0.75 0.62 0.49 0.43 0.40 0.41 0.47 0.52 0.57 0.65 0.84 0.86 0.89 0.92 1.03 1.24 1.42 1.47 1.48 1.51 1.64 1.83 1.93 1.92
1.45 1.47 1.48 1.45 1.44 1.37 1.31 1.31 1.33 1.31 1.31 1.28 1.22 1.14 1.03 0.93 0.91 0.94 0.99 1.03 0.97 0.76 0.62 0.56 0.54 0.59 0.66 0.74 0.90 1.04 0.94 1.07 1.10 1.19 1.34 1.50 1.45 1.34 1.28 1.34 1.48 1.64 1.68
1.38 1.39 1.42 1.35 1.30 1.26 1.21 1.19 1.18 1.16 1.17 1.17 1.13 1.12 1.07 0.99 0.99 1.02 1.08 1.20 1.35 1.26 0.98 0.78 0.75 0.77 0.83 0.90 1.05 1.00 0.94 1.16 1.19 1.19 1.25 1.26 1.20 1.13 1.11 1.13 1.17 1.24 1.29
1.11 1.17 1.23 1.23 1.20 1.18 1.14 1.11 1.05 1.01 1.01 0.97 0.96 0.98 1.01 1.01 1.04 1.05 1.11 1.19 1.31 1.39 1.25 0.92 0.80 0.82 0.92 1.00 1.12 1.01 0.95 1.12 1.10 1.10 1.10 1.06 1.00 0.97 0.96 0.94 0.92 0.93 0.97
0.89 0.95 1.05 1.12 1.11 1.10 1.08 1.05 0.99 0.93 0.91 0.88 0.86 0.89 0.91 0.90 0.97 0.99 1.03 1.11 1.22 1.35 1.41 1.15 0.98 0.96 1.00 1.00 0.99 0.90 0.83 0.84 0.82 0.91 0.88 0.84 0.81 0.80 0.78 0.78 0.78 0.80 0.80
0.81 0.81 0.80 0.83 0.89 0.93 0.94 0.96 0.93 0.88 0.83 0.81 0.80 0.82 0.83 0.86 0.92 0.97 1.04 1.11 1.17 1.24 1.29 1.18 1.00 0.92 0.86 0.79 0.75 0.70 0.64 0.63 0.62 0.73 0.70 0.65 0.64 0.61 0.59 0.59 0.62 0.65 0.66
0.64 0.69 0.67 0.66 0.66 0.66 0.68 0.73 0.79 0.83 0.81 0.78 0.79 0.83 0.85 0.88 0.92 0.96 1.03 1.09 1.10 1.08 1.06 1.00 0.86 0.73 0.67 0.63 0.63 0.59 0.53 0.52 0.50 0.57 0.59 0.56 0.53 0.50 0.48 0.47 0.49 0.51 0.52
0.38 0.42 0.46 0.49 0.52 0.54 0.53 0.54 0.58 0.67 0.75 0.79 0.80 0.83 0.88 0.96 1.03 1.06 1.07 1.06 1.03 0.99 0.93 0.88 0.80 0.70 0.61 0.54 0.54 0.55 0.52 0.46 0.43 0.41 0.47 0.47 0.47 0.46 0.43 0.39 0.37 0.38 0.42
0.19 0.23 0.28 0.32 0.36 0.40 0.45 0.48 0.49 0.53 0.59 0.67 0.77 0.84 0.90 1.00 1.03 0.97 0.89 0.82 0.77 0.76 0.76 0.76 0.72 0.62 0.54 0.49 0.47 0.43 0.43 0.42 0.40 0.36 0.37 0.37 0.36 0.35 0.34 0.35 0.35 0.34 0.36
0.14 0.16 0.20 0.24 0.29 0.33 0.46 0.46 0.42 0.45 0.54 0.61 0.66 0.72 0.78 0.83 0.77 0.73 0.68 0.64 0.64 0.68 0.68 0.62 0.54 0.46 0.38 0.34 0.34 0.38 0.42 0.48 0.48 0.35 0.33 0.34 0.32 0.34 0.31 0.30 0.34 0.35 0.35
0.20 0.21 0.22 0.24 0.28 0.37 0.48 0.48 0.53 0.50 0.54 0.58 0.58 0.56 0.54 0.54 0.54 0.47 0.48 0.48 0.49 0.50 0.48 0.43 0.41 0.35 0.31 0.29 0.35 0.42 0.43 0.43 0.37 0.28 0.32 0.36 0.32 0.31 0.26 0.27 0.34 0.33 0.35
0.38 0.38 0.38 0.38 0.41 0.49 0.56 0.53 0.51 0.47 0.47 0.46 0.42 0.38 0.35 0.35 0.35 0.37 0.39 0.41 0.35 0.30 0.29 0.26 0.25 0.23 0.25 0.30 0.37 0.45 0.45 0.44 0.37 0.32 0.34 0.40 0.33 0.28 0.23 0.24 0.30 0.31 0.34
0.64 0.63 0.63 0.61 0.58 0.57 0.52 0.42 0.36 0.33 0.31 0.29 0.26 0.24 0.23 0.22 0.26 0.31 0.32 0.32 0.30 0.27 0.27 0.28 0.28 0.27 0.30 0.33 0.36 0.41 0.49 0.58 0.53 0.38 0.32 0.33 0.30 0.27 0.26 0.26 0.28 0.34 0.35
0.62 0.59 0.57 0.53 0.46 0.39 0.33 0.25 0.19 0.16 0.16 0.15 0.15 0.15 0.18 0.20 0.26 0.33 0.30 0.29 0.28 0.26 0.27 0.29 0.28 0.27 0.26 0.27 0.32 0.31 0.36 0.56 0.58 0.44 0.25 0.27 0.30 0.36 0.46 0.33 0.29 0.33 0.38

GEFSMA_prec_meanprecacc_168.txt.gz
Total_Precipitation_Accumulation
0.57 0.56 0.52 0.48 0.41 0.38 0.35 0.32 0.28 0.26 0.24 0.23 0.22 0.22 0.22 0.20 0.19 0.20 0.17 0.13 0.10 0.11 0.17 0.24 0.33 0.39 0.42 0.45 0.45 0.44 0.41 0.36 0.32 0.29 0.26 0.23 0.21 0.18 0.18 0.18 0.18 0.19 0.19
0.66 0.62 0.58 0.55 0.48 0.44 0.39 0.39 0.36 0.35 0.33 0.31 0.26 0.23 0.23 0.22 0.19 0.18 0.17 0.16 0.15 0.13 0.13 0.21 0.32 0.43 0.53 0.62 0.64 0.63 0.55 0.48 0.45 0.42 0.38 0.32 0.28 0.27 0.26 0.25 0.24 0.22 0.21
0.70 0.68 0.66 0.59 0.53 0.52 0.51 0.53 0.51 0.49 0.43 0.39 0.35 0.33 0.31 0.29 0.26 0.22 0.19 0.18 0.19 0.19 0.18 0.20 0.29 0.41 0.55 0.70 0.81 0.86 0.78 0.66 0.57 0.52 0.49 0.44 0.40 0.37 0.35 0.36 0.34 0.31 0.29
0.80 0.80 0.78 0.72 0.66 0.65 0.64 0.62 0.61 0.59 0.51 0.46 0.42 0.41 0.40 0.37 0.34 0.31 0.30 0.27 0.25 0.22 0.21 0.23 0.28 0.38 0.50 0.64 0.83 0.97 0.99 0.88 0.72 0.63 0.58 0.54 0.52 0.52 0.52 0.52 0.49 0.44 0.39
0.94 0.91 0.83 0.83 0.84 0.77 0.72 0.71 0.65 0.62 0.55 0.51 0.52 0.48 0.45 0.42 0.38 0.37 0.37 0.36 0.35 0.33 0.31 0.30 0.28 0.27 0.34 0.45 0.61 0.84 1.01 1.00 0.86 0.75 0.69 0.67 0.66 0.64 0.60 0.57 0.56 0.52 0.48
1.03 0.99 0.92 0.92 0.93 0.87 0.74 0.71 0.69 0.69 0.62 0.62 0.61 0.55 0.51 0.47 0.44 0.40 0.38 0.38 0.38 0.37 0.37 0.36 0.33 0.32 0.31 0.35 0.44 0.63 0.84 0.97 0.97 0.88 0.81 0.76 0.73 0.70 0.69 0.68 0.66 0.63 0.60
1.17 1.17 1.09 1.04 1.05 0.98 0.87 0.86 0.91 0.86 0.78 0.80 0.74 0.58 0.49 0.47 0.45 0.43 0.41 0.38 0.35 0.34 0.33 0.33 0.33 0.33 0.33 0.34 0.37 0.47 0.65 0.85 0.98 1.00 0.96 0.91 0.87 0.83 0.84 0.87 0.84 0.81 0.77
1.36 1.34 1.33 1.30 1.25 1.16 1.06 1.01 1.03 0.98 0.93 0.96 0.93 0.85 0.62 0.48 0.41 0.39 0.40 0.38 0.39 0.38 0.35 0.35 0.34 0.34 0.32 0.32 0.34 0.38 0.47 0.65 0.86 1.04 1.13 1.09 1.05 1.03 1.04 1.06 1.08 1.04 0.98
1.58 1.48 1.44 1.49 1.45 1.34 1.21 1.15 1.13 1.11 1.11 1.11 1.07 1.09 0.86 0.60 0.47 0.41 0.37 0.35 0.37 0.41 0.43 0.42 0.40 0.36 0.32 0.29 0.30 0.33 0.36 0.44 0.66 0.94 1.13 1.17 1.16 1.17 1.23 1.28 1.32 1.33 1.28
1.68 1.64 1.59 1.57 1.58 1.53 1.38 1.30 1.29 1.26 1.23 1.19 1.15 1.04 0.96 0.80 0.72 0.55 0.41 0.38 0.37 0.36 0.40 0.43 0.42 0.41 0.41 0.39 0.38 0.38 0.38 0.37 0.49 0.77 1.08 1.27 1.32 1.35 1.42 1.50 1.57 1.64 1.62
1.68 1.63 1.60 1.53 1.47 1.46 1.46 1.42 1.37 1.35 1.25 1.15 1.09 1.04 0.98 0.84 0.71 0.67 0.52 0.39 0.37 0.34 0.34 0.38 0.42 0.44 0.45 0.46 0.45 0.49 0.52 0.49 0.55 0.73 1.00 1.26 1.46 1.58 1.66 1.70 1.71 1.73 1.72
1.73 1.66 1.62 1.53 1.42 1.36 1.33 1.33 1.34 1.33 1.30 1.22 1.12 1.06 1.02 0.94 0.80 0.76 0.71 0.55 0.48 0.40 0.37 0.37 0.40 0.43 0.46 0.49 0.55 0.69 0.68 0.69 0.75 0.88 1.11 1.35 1.53 1.64 1.73 1.82 1.87 1.85 1.80
1.57 1.57 1.57 1.54 1.49 1.43 1.46 1.42 1.39 1.32 1.30 1.26 1.20 1.11 1.04 0.95 0.87 0.87 0.88 0.75 0.63 0.50 0.44 0.41 0.43 0.48 0.53 0.58 0.66 0.86 0.87 0.90 0.93 1.03 1.25 1.43 1.49 1.50 1.53 1.67 1.86 1.96 1.95
1.48 1.50 1.50 1.47 1.47 1.41 1.37 1.38 1.37 1.33 1.33 1.29 1.23 1.15 1.04 0.94 0.92 0.95 0.99 1.03 0.97 0.76 0.62 0.56 0.54 0.60 0.67 0.75 0.91 1.05 0.95 1.08 1.11 1.20 1.34 1.50 1.45 1.34 1.29 1.36 1.51 1.68 1.73
1.42 1.42 1.44 1.38 1.33 1.30 1.25 1.24 1.23 1.19 1.19 1.18 1.14 1.13 1.08 1.01 1.00 1.03 1.09 1.21 1.35 1.26 0.98 0.78 0.75 0.77 0.84 0.90 1.05 1.01 0.95 1.17 1.20 1.20 1.26 1.26 1.20 1.13 1.12 1.14 1.19 1.28 1.33
1.13 1.20 1.25 1.26 1.23 1.23 1.19 1.16 1.11 1.05 1.03 0.99 0.97 1.00 1.02 1.02 1.05 1.06 1.12 1.20 1.31 1.39 1.25 0.92 0.80 0.82 0.92 1.00 1.13 1.01 0.95 1.13 1.10 1.10 1.11 1.07 1.01 0.98 0.97 0.96 0.94 0.96 1.00
0.91 0.97 1.07 1.15 1.14 1.14 1.13 1.09 1.03 0.98 0.94 0.89 0.87 0.90 0.92 0.91 0.97 1.00 1.04 1.12 1.22 1.36 1.41 1.16 0.98 0.96 1.00 1.00 0.99 0.90 0.84 0.84 0.83 0.92 0.88 0.85 0.82 0.81 0.80 0.81 0.82 0.84 0.84
0.82 0.82 0.81 0.84 0.91 0.96 0.99 1.01 0.98 0.92 0.87 0.84 0.81 0.83 0.84 0.86 0.93 0.98 1.05 1.11 1.17 1.24 1.29 1.18 1.00 0.92 0.86 0.79 0.75 0.71 0.65 0.63 0.62 0.74 0.71 0.66 0.64 0.62 0.60 0.61 0.65 0.67 0.68
0.65 0.70 0.69 0.68 0.68 0.68 0.72 0.79 0.84 0.86 0.84 0.81 0.82 0.84 0.85 0.89 0.93 0.97 1.04 1.10 1.11 1.09 1.06 1.00 0.86 0.73 0.67 0.63 0.63 0.59 0.53 0.52 0.50 0.57 0.60 0.56 0.54 0.51 0.49 0.49 0.51 0.53 0.54
0.39 0.43 0.47 0.50 0.54 0.55 0.54 0.57 0.63 0.71 0.78 0.82 0.83 0.85 0.89 0.97 1.04 1.08 1.08 1.07 1.04 0.99 0.93 0.88 0.80 0.70 0.61 0.54 0.55 0.56 0.52 0.46 0.43 0.41 0.48 0.48 0.48 0.47 0.44 0.40 0.38 0.39 0.43
0.20 0.24 0.29 0.33 0.37 0.42 0.46 0.49 0.51 0.56 0.62 0.69 0.79 0.86 0.91 1.01 1.04 0.98 0.90 0.83 0.78 0.77 0.76 0.76 0.72 0.62 0.54 0.49 0.47 0.43 0.43 0.42 0.40 0.36 0.37 0.38 0.36 0.35 0.35 0.36 0.36 0.35 0.37
0.15 0.17 0.21 0.25 0.30 0.34 0.47 0.48 0.45 0.47 0.56 0.62 0.67 0.72 0.79 0.83 0.78 0.74 0.69 0.64 0.64 0.68 0.68 0.62 0.54 0.46 0.38 0.34 0.34 0.38 0.42 0.49 0.48 0.35 0.33 0.34 0.33 0.35 0.32 0.31 0.35 0.36 0.36
0.21 0.22 0.23 0.25 0.29 0.37 0.48 0.49 0.54 0.52 0.56 0.59 0.59 0.57 0.55 0.54 0.55 0.47 0.48 0.49 0.49 0.51 0.48 0.44 0.42 0.35 0.31 0.29 0.35 0.43 0.44 0.44 0.37 0.28 0.32 0.37 0.33 0.32 0.27 0.28 0.35 0.34 0.36
0.38 0.38 0.39 0.39 0.42 0.51 0.57 0.53 0.52 0.48 0.48 0.47 0.43 0.39 0.36 0.35 0.36 0.38 0.40 0.42 0.36 0.31 0.30 0.27 0.25 0.24 0.26 0.30 0.38 0.45 0.46 0.45 0.38 0.33 0.35 0.42 0.35 0.29 0.25 0.25 0.32 0.32 0.35
0.65 0.64 0.64 0.62 0.59 0.58 0.53 0.43 0.37 0.33 0.32 0.29 0.26 0.24 0.23 0.23 0.27 0.32 0.33 0.33 0.31 0.28 0.28 0.28 0.29 0.28 0.31 0.34 0.37 0.42 0.50 0.59 0.54 0.39 0.33 0.35 0.31 0.28 0.27 0.27 0.30 0.36 0.37
0.62 0.59 0.57 0.53 0.47 0.40 0.34 0.25 0.20 0.17 0.16 0.15 0.15 0.15 0.18 0.20 0.27 0.34 0.31 0.30 0.29 0.27 0.28 0.30 0.29 0.28 0.27 0.28 0.33 0.32 0.37 0.58 0.60 0.45 0.26 0.29 0.31 0.37 0.48 0.34 0.31 0.35 0.39

GEFSMA_prec_meanprecacc_174.txt.gz
Total_Precipitation_Accumulation
0.60 0.60 0.54 0.49 0.43 0.40 0.38 0.34 0.29 0.27 0.25 0.23 0.22 0.22 0.22 0.20 0.19 0.20 0.18 0.13 0.10 0.12 0.19 0.27 0.36 0.43 0.45 0.48 0.47 0.46 0.43 0.37 0.33 0.29 0.26 0.24 0.21 0.19 0.19 0.19 0.20 0.20 0.21
0.70 0.66 0.62 0.59 0.50 0.45 0.41 0.41 0.37 0.37 0.33 0.32 0.26 0.24 0.23 0.22 0.19 0.18 0.18 0.17 0.15 0.13 0.14 0.23 0.34 0.45 0.56 0.65 0.66 0.65 0.57 0.50 0.46 0.43 0.39 0.33 0.29 0.27 0.27 0.26 0.25 0.23 0.22
0.73 0.71 0.69 0.62 0.56 0.54 0.54 0.55 0.53 0.51 0.44 0.40 0.35 0.33 0.32 0.30 0.26 0.23 0.21 0.19 0.20 0.19 0.18 0.21 0.30 0.42 0.58 0.73 0.84 0.88 0.79 0.67 0.57 0.52 0.50 0.45 0.40 0.37 0.36 0.36 0.35 0.32 0.30
0.84 0.82 0.80 0.75 0.71 0.70 0.68 0.66 0.63 0.61 0.52 0.46 0.43 0.42 0.40 0.38 0.35 0.33 0.31 0.28 0.26 0.22 0.21 0.23 0.29 0.39 0.52 0.67 0.87 1.00 1.01 0.89 0.72 0.63 0.58 0.55 0.53 0.53 0.53 0.53 0.50 0.45 0.40
0.97 0.93 0.85 0.85 0.88 0.84 0.79 0.77 0.70 0.64 0.56 0.52 0.52 0.49 0.45 0.43 0.39 0.38 0.39 0.39 0.38 0.35 0.31 0.31 0.28 0.28 0.35 0.47 0.64 0.87 1.03 1.01 0.86 0.76 0.70 0.67 0.67 0.64 0.60 0.58 0.56 0.53 0.49
1.06 1.01 0.93 0.93 0.95 0.90 0.79 0.77 0.74 0.71 0.63 0.63 0.62 0.55 0.51 0.48 0.45 0.42 0.41 0.42 0.42 0.41 0.39 0.37 0.34 0.32 0.32 0.36 0.46 0.66 0.87 1.00 0.99 0.89 0.82 0.77 0.74 0.71 0.70 0.68 0.66 0.64 0.61
1.19 1.19 1.10 1.05 1.06 0.99 0.90 0.91 0.95 0.89 0.80 0.81 0.76 0.59 0.50 0.48 0.46 0.44 0.42 0.41 0.38 0.37 0.35 0.34 0.34 0.33 0.33 0.35 0.38 0.48 0.68 0.89 1.01 1.02 0.97 0.92 0.89 0.84 0.85 0.87 0.85 0.82 0.79
1.38 1.36 1.34 1.32 1.26 1.18 1.10 1.06 1.07 1.02 0.95 0.97 0.94 0.86 0.63 0.49 0.42 0.40 0.41 0.40 0.40 0.39 0.36 0.35 0.35 0.34 0.32 0.32 0.34 0.38 0.48 0.68 0.90 1.07 1.14 1.10 1.06 1.03 1.04 1.06 1.09 1.05 1.00
1.61 1.50 1.45 1.50 1.46 1.35 1.25 1.20 1.17 1.15 1.15 1.14 1.09 1.11 0.87 0.61 0.48 0.42 0.39 0.36 0.39 0.44 0.45 0.44 0.40 0.36 0.32 0.30 0.30 0.33 0.36 0.44 0.67 0.96 1.15 1.19 1.16 1.17 1.24 1.29 1.33 1.34 1.30
1.70 1.66 1.61 1.58 1.59 1.55 1.40 1.35 1.34 1.29 1.26 1.22 1.18 1.06 0.97 0.81 0.73 0.56 0.43 0.39 0.38 0.38 0.42 0.44 0.43 0.41 0.41 0.40 0.38 0.38 0.38 0.37 0.49 0.77 1.10 1.29 1.33 1.35 1.43 1.51 1.59 1.65 1.64
1.70 1.64 1.62 1.55 1.49 1.48 1.48 1.45 1.41 1.38 1.28 1.18 1.12 1.06 1.00 0.86 0.73 0.69 0.53 0.41 0.40 0.36 0.36 0.40 0.43 0.44 0.45 0.46 0.45 0.50 0.53 0.49 0.56 0.73 1.00 1.28 1.47 1.59 1.67 1.71 1.72 1.74 1.74
1.75 1.68 1.64 1.55 1.44 1.37 1.34 1.35 1.37 1.37 1.34 1.26 1.18 1.13 1.07 0.99 0.85 0.81 0.75 0.58 0.50 0.43 0.40 0.41 0.43 0.45 0.47 0.50 0.55 0.70 0.69 0.70 0.75 0.88 1.11 1.36 1.54 1.65 1.73 1.82 1.87 1.85 1.81
1.60 1.60 1.59 1.56 1.50 1.45 1.47 1.44 1.42 1.36 1.34 1.30 1.24 1.16 1.11 1.01 0.91 0.90 0.91 0.77 0.64 0.51 0.46 0.44 0.47 0.52 0.55 0.60 0.67 0.87 0.87 0.90 0.93 1.04 1.25 1.43 1.49 1.51 1.54 1.67 1.86 1.97 1.96
1.52 1.53 1.52 1.49 1.49 1.42 1.39 1.40 1.39 1.36 1.35 1.31 1.25 1.17 1.07 0.97 0.94 0.96 1.00 1.05 0.98 0.77 0.62 0.57 0.56 0.64 0.72 0.79 0.93 1.07 0.96 1.09 1.11 1.20 1.34 1.51 1.46 1.34 1.29 1.37 1.52 1.69 1.73
1.45 1.44 1.46 1.39 1.34 1.31 1.27 1.26 1.25 1.20 1.20 1.20 1.15 1.14 1.09 1.02 1.02 1.04 1.10 1.22 1.36 1.27 0.99 0.78 0.75 0.78 0.86 0.95 1.11 1.05 0.97 1.18 1.21 1.20 1.26 1.26 1.20 1.13 1.12 1.14 1.20 1.29 1.34
1.16 1.23 1.27 1.28 1.24 1.24 1.21 1.18 1.13 1.07 1.04 1.00 0.98 1.00 1.03 1.03 1.05 1.07 1.14 1.22 1.32 1.41 1.26 0.92 0.80 0.82 0.93 1.01 1.15 1.06 1.00 1.16 1.12 1.11 1.12 1.07 1.01 0.99 0.98 0.96 0.94 0.96 1.01
0.93 0.99 1.09 1.17 1.16 1.15 1.15 1.12 1.06 1.01 0.97 0.91 0.89 0.91 0.92 0.92 0.98 1.01 1.05 1.13 1.24 1.37 1.42 1.17 0.99 0.97 1.00 1.00 1.00 0.90 0.85 0.87 0.86 0.94 0.90 0.85 0.82 0.81 0.80 0.81 0.82 0.84 0.85
0.85 0.85 0.84 0.87 0.93 0.98 1.01 1.03 1.00 0.95 0.91 0.87 0.84 0.84 0.86 0.88 0.94 0.99 1.05 1.12 1.18 1.25 1.30 1.19 1.01 0.92 0.86 0.79 0.75 0.71 0.65 0.64 0.63 0.75 0.72 0.67 0.65 0.62 0.60 0.62 0.65 0.67 0.68
0.68 0.73 0.72 0.71 0.69 0.70 0.74 0.81 0.86 0.88 0.87 0.85 0.85 0.87 0.87 0.91 0.94 0.98 1.04 1.10 1.11 1.09 1.07 1.00 0.86 0.74 0.68 0.64 0.63 0.60 0.54 0.52 0.50 0.58 0.60 0.57 0.55 0.52 0.49 0.49 0.51 0.53 0.55
0.42 0.46 0.51 0.54 0.57 0.57 0.56 0.59 0.65 0.73 0.80 0.84 0.86 0.88 0.91 0.98 1.05 1.09 1.09 1.08 1.04 1.00 0.94 0.89 0.81 0.71 0.62 0.55 0.55 0.56 0.53 0.46 0.43 0.41 0.48 0.48 0.48 0.47 0.44 0.41 0.39 0.39 0.43
0.23 0.27 0.32 0.36 0.41 0.45 0.48 0.51 0.53 0.58 0.64 0.71 0.82 0.89 0.94 1.03 1.05 1.00 0.91 0.84 0.79 0.78 0.77 0.77 0.72 0.63 0.55 0.50 0.48 0.44 0.43 0.42 0.40 0.36 0.37 0.38 0.37 0.36 0.35 0.36 0.36 0.36 0.37
0.17 0.20 0.24 0.28 0.33 0.38 0.50 0.50 0.46 0.49 0.58 0.64 0.69 0.75 0.81 0.86 0.79 0.75 0.70 0.65 0.65 0.69 0.69 0.63 0.55 0.47 0.39 0.35 0.34 0.39 0.43 0.49 0.49 0.35 0.33 0.34 0.33 0.35 0.32 0.31 0.36 0.37 0.37
0.23 0.24 0.25 0.28 0.32 0.40 0.51 0.51 0.55 0.53 0.57 0.61 0.61 0.59 0.57 0.56 0.56 0.48 0.49 0.49 0.50 0.52 0.49 0.44 0.43 0.36 0.32 0.30 0.36 0.44 0.45 0.45 0.38 0.28 0.33 0.37 0.33 0.32 0.27 0.29 0.36 0.35 0.37
0.40 0.40 0.40 0.41 0.44 0.53 0.59 0.55 0.53 0.49 0.49 0.48 0.45 0.41 0.38 0.37 0.37 0.39 0.41 0.42 0.36 0.32 0.30 0.28 0.26 0.25 0.26 0.31 0.39 0.47 0.47 0.47 0.40 0.34 0.36 0.42 0.35 0.30 0.25 0.25 0.32 0.33 0.36
0.66 0.66 0.66 0.64 0.61 0.60 0.55 0.45 0.38 0.34 0.32 0.30 0.27 0.26 0.26 0.25 0.29 0.34 0.35 0.34 0.32 0.28 0.28 0.29 0.30 0.29 0.32 0.36 0.39 0.45 0.52 0.62 0.56 0.40 0.34 0.36 0.32 0.29 0.28 0.28 0.31 0.37 0.38
0.63 0.61 0.59 0.56 0.50 0.43 0.36 0.28 0.23 0.19 0.18 0.16 0.16 0.16 0.20 0.22 0.29 0.36 0.33 0.31 0.30 0.28 0.29 0.31 0.31 0.30 0.28 0.29 0.35 0.34 0.39 0.61 0.62 0.47 0.28 0.30 0.33 0.39 0.50 0.35 0.31 0.36 0.40

GEFSMA_prec_meanprecacc_180.txt.gz
Total_Precipitation_Accumulation
0.67 0.65 0.58 0.53 0.46 0.42 0.40 0.36 0.32 0.30 0.27 0.24 0.22 0.22 0.22 0.21 0.19 0.20 0.18 0.13 0.11 0.13 0.21 0.29 0.38 0.45 0.48 0.50 0.49 0.48 0.44 0.39 0.35 0.31 0.27 0.25 0.22 0.20 0.20 0.20 0.21 0.21 0.22
0.77 0.71 0.67 0.64 0.56 0.49 0.43 0.43 0.40 0.41 0.38 0.35 0.28 0.24 0.24 0.22 0.20 0.19 0.18 0.18 0.16 0.14 0.15 0.24 0.35 0.46 0.58 0.66 0.68 0.66 0.58 0.51 0.48 0.44 0.40 0.34 0.30 0.28 0.27 0.27 0.26 0.24 0.23
0.83 0.78 0.74 0.67 0.61 0.58 0.57 0.58 0.56 0.55 0.49 0.44 0.39 0.35 0.32 0.30 0.27 0.23 0.21 0.19 0.20 0.20 0.19 0.22 0.31 0.43 0.59 0.74 0.85 0.89 0.80 0.68 0.58 0.53 0.50 0.46 0.41 0.38 0.37 0.37 0.35 0.33 0.31
0.90 0.90 0.87 0.82 0.76 0.74 0.72 0.68 0.65 0.63 0.55 0.50 0.47 0.45 0.42 0.39 0.35 0.33 0.32 0.28 0.26 0.23 0.22 0.23 0.29 0.39 0.52 0.68 0.88 1.02 1.02 0.90 0.73 0.64 0.59 0.55 0.53 0.53 0.53 0.53 0.51 0.45 0.41
1.01 0.98 0.90 0.91 0.93 0.87 0.81 0.79 0.73 0.67 0.59 0.55 0.56 0.52 0.48 0.44 0.40 0.40 0.40 0.39 0.38 0.35 0.32 0.31 0.29 0.28 0.35 0.48 0.65 0.89 1.05 1.03 0.88 0.77 0.70 0.68 0.67 0.65 0.60 0.58 0.57 0.53 0.50
1.08 1.05 0.97 0.96 0.97 0.91 0.80 0.78 0.76 0.74 0.66 0.66 0.64 0.58 0.54 0.50 0.46 0.43 0.42 0.42 0.42 0.42 0.40 0.38 0.35 0.33 0.32 0.36 0.47 0.67 0.89 1.01 1.01 0.91 0.83 0.78 0.75 0.72 0.70 0.69 0.67 0.64 0.62
1.20 1.22 1.13 1.08 1.08 1.01 0.91 0.91 0.96 0.90 0.82 0.84 0.79 0.62 0.52 0.50 0.48 0.45 0.43 0.42 0.39 0.37 0.35 0.35 0.35 0.34 0.34 0.35 0.38 0.49 0.69 0.90 1.03 1.05 0.99 0.93 0.89 0.84 0.85 0.87 0.85 0.83 0.79
1.39 1.38 1.37 1.36 1.30 1.20 1.11 1.06 1.07 1.03 0.96 0.99 0.98 0.90 0.67 0.52 0.45 0.42 0.42 0.40 0.41 0.40 0.37 0.36 0.36 0.35 0.33 0.33 0.35 0.39 0.49 0.69 0.91 1.10 1.18 1.13 1.08 1.04 1.04 1.07 1.09 1.06 1.00
1.61 1.51 1.47 1.53 1.50 1.39 1.27 1.21 1.18 1.16 1.16 1.16 1.11 1.14 0.91 0.64 0.51 0.45 0.41 0.37 0.39 0.44 0.45 0.44 0.41 0.37 0.33 0.31 0.31 0.34 0.37 0.45 0.68 0.98 1.20 1.25 1.22 1.19 1.24 1.29 1.34 1.35 1.30
1.71 1.67 1.62 1.60 1.62 1.57 1.42 1.36 1.35 1.30 1.27 1.24 1.20 1.08 0.99 0.84 0.75 0.59 0.44 0.41 0.39 0.38 0.42 0.44 0.44 0.42 0.42 0.41 0.40 0.39 0.39 0.38 0.50 0.78 1.12 1.33 1.40 1.42 1.47 1.52 1.59 1.66 1.65
1.71 1.65 1.63 1.56 1.50 1.49 1.49 1.46 1.42 1.38 1.28 1.19 1.13 1.08 1.02 0.88 0.75 0.70 0.55 0.42 0.41 0.37 0.37 0.41 0.44 0.46 0.47 0.47 0.46 0.51 0.54 0.50 0.56 0.74 1.02 1.30 1.50 1.63 1.72 1.75 1.74 1.75 1.74
1.76 1.70 1.65 1.56 1.45 1.38 1.35 1.36 1.38 1.37 1.34 1.27 1.19 1.13 1.09 1.00 0.86 0.82 0.76 0.59 0.51 0.44 0.41 0.42 0.44 0.46 0.48 0.51 0.57 0.71 0.71 0.71 0.77 0.91 1.13 1.38 1.56 1.67 1.76 1.85 1.90 1.87 1.81
1.62 1.62 1.61 1.57 1.51 1.46 1.48 1.46 1.43 1.37 1.35 1.31 1.25 1.17 1.12 1.02 0.92 0.91 0.92 0.79 0.65 0.52 0.46 0.45 0.48 0.53 0.56 0.60 0.68 0.87 0.88 0.91 0.94 1.06 1.28 1.45 1.51 1.52 1.55 1.69 1.88 1.97 1.96
1.54 1.56 1.54 1.50 1.49 1.43 1.40 1.41 1.40 1.37 1.37 1.33 1.26 1.18 1.09 0.99 0.96 0.98 1.02 1.06 0.99 0.78 0.63 0.58 0.57 0.64 0.73 0.80 0.94 1.08 0.96 1.09 1.12 1.20 1.36 1.52 1.47 1.35 1.30 1.38 1.54 1.70 1.74
1.47 1.47 1.48 1.41 1.35 1.32 1.28 1.27 1.26 1.22 1.22 1.21 1.16 1.15 1.11 1.03 1.03 1.05 1.11 1.23 1.37 1.27 0.99 0.79 0.76 0.79 0.87 0.96 1.13 1.06 0.98 1.19 1.21 1.21 1.26 1.27 1.21 1.14 1.13 1.15 1.20 1.30 1.36
1.18 1.25 1.29 1.29 1.26 1.25 1.22 1.19 1.14 1.08 1.05 1.01 0.98 1.01 1.04 1.04 1.06 1.08 1.14 1.22 1.33 1.41 1.27 0.93 0.81 0.83 0.93 1.02 1.17 1.08 1.02 1.18 1.13 1.12 1.13 1.08 1.02 0.99 0.99 0.98 0.95 0.97 1.02
0.95 1.01 1.11 1.18 1.17 1.16 1.16 1.12 1.07 1.01 0.97 0.92 0.89 0.91 0.93 0.93 0.99 1.01 1.05 1.14 1.24 1.38 1.43 1.17 0.99 0.97 1.01 1.01 1.01 0.92 0.87 0.89 0.88 0.97 0.92 0.87 0.84 0.82 0.81 0.82 0.83 0.84 0.85
0.86 0.87 0.86 0.88 0.94 0.98 1.02 1.04 1.00 0.96 0.91 0.88 0.85 0.85 0.86 0.89 0.95 1.00 1.06 1.13 1.18 1.25 1.31 1.21 1.02 0.93 0.87 0.80 0.76 0.72 0.66 0.65 0.65 0.78 0.75 0.69 0.67 0.64 0.62 0.63 0.67 0.68 0.69
0.69 0.74 0.74 0.72 0.71 0.71 0.75 0.81 0.87 0.90 0.88 0.85 0.85 0.87 0.88 0.91 0.95 0.99 1.05 1.11 1.12 1.10 1.08 1.02 0.87 0.75 0.69 0.64 0.64 0.61 0.55 0.53 0.52 0.60 0.62 0.59 0.57 0.54 0.51 0.51 0.53 0.55 0.56
0.43 0.47 0.52 0.55 0.59 0.59 0.58 0.60 0.66 0.74 0.81 0.85 0.87 0.89 0.92 0.99 1.06 1.10 1.10 1.09 1.06 1.01 0.95 0.90 0.82 0.72 0.63 0.56 0.56 0.58 0.54 0.48 0.44 0.42 0.49 0.49 0.50 0.49 0.45 0.42 0.40 0.40 0.44
0.24 0.28 0.33 0.37 0.42 0.46 0.50 0.53 0.55 0.60 0.66 0.73 0.83 0.90 0.94 1.04 1.07 1.01 0.92 0.86 0.81 0.79 0.78 0.78 0.74 0.64 0.55 0.51 0.49 0.45 0.45 0.44 0.41 0.37 0.39 0.39 0.37 0.36 0.36 0.37 0.37 0.37 0.38
0.18 0.21 0.25 0.29 0.34 0.39 0.51 0.51 0.48 0.51 0.60 0.66 0.70 0.76 0.82 0.87 0.81 0.77 0.72 0.67 0.67 0.71 0.71 0.64 0.56 0.48 0.40 0.35 0.35 0.40 0.45 0.51 0.51 0.36 0.34 0.35 0.34 0.35 0.32 0.31 0.37 0.38 0.38
0.24 0.25 0.27 0.30 0.33 0.42 0.53 0.53 0.58 0.55 0.59 0.63 0.63 0.60 0.58 0.57 0.57 0.49 0.51 0.51 0.52 0.53 0.50 0.46 0.44 0.37 0.33 0.30 0.37 0.45 0.47 0.47 0.39 0.29 0.34 0.38 0.34 0.32 0.28 0.29 0.36 0.36 0.38
0.41 0.42 0.42 0.43 0.47 0.55 0.62 0.58 0.56 0.52 0.52 0.51 0.47 0.43 0.40 0.39 0.39 0.40 0.42 0.43 0.38 0.34 0.31 0.29 0.27 0.25 0.27 0.32 0.40 0.48 0.49 0.49 0.42 0.35 0.38 0.44 0.36 0.30 0.25 0.26 0.33 0.34 0.37
0.68 0.68 0.68 0.66 0.64 0.63 0.59 0.49 0.42 0.37 0.35 0.33 0.31 0.29 0.28 0.28 0.32 0.36 0.36 0.36 0.34 0.31 0.31 0.31 0.31 0.30 0.33 0.37 0.40 0.46 0.54 0.63 0.58 0.42 0.35 0.37 0.33 0.30 0.29 0.29 0.31 0.38 0.39
0.65 0.63 0.62 0.58 0.53 0.46 0.40 0.32 0.27 0.23 0.21 0.20 0.19 0.20 0.23 0.25 0.33 0.40 0.36 0.34 0.33 0.30 0.31 0.33 0.32 0.31 0.30 0.31 0.36 0.35 0.40 0.62 0.64 0.49 0.28 0.31 0.33 0.39 0.51 0.35 0.32 0.36 0.41

GEFSMA_prec_meanprecacc_186.txt.gz
Total_Precipitation_Accumulation
0.72 0.73 0.66 0.60 0.51 0.46 0.42 0.38 0.33 0.31 0.28 0.25 0.23 0.23 0.23 0.21 0.19 0.20 0.18 0.13 0.11 0.15 0.23 0.31 0.41 0.47 0.50 0.52 0.50 0.48 0.45 0.40 0.36 0.32 0.29 0.26 0.22 0.20 0.21 0.21 0.22 0.22 0.23
0.81 0.77 0.71 0.68 0.60 0.53 0.47 0.45 0.41 0.42 0.39 0.36 0.30 0.26 0.25 0.23 0.20 0.19 0.18 0.18 0.16 0.15 0.17 0.26 0.37 0.48 0.59 0.68 0.69 0.67 0.58 0.52 0.48 0.46 0.42 0.36 0.31 0.28 0.28 0.28 0.26 0.25 0.24
0.93 0.86 0.81 0.72 0.65 0.62 0.60 0.61 0.58 0.57 0.51 0.46 0.40 0.37 0.35 0.32 0.27 0.24 0.21 0.19 0.20 0.20 0.19 0.23 0.32 0.44 0.60 0.76 0.87 0.90 0.81 0.69 0.59 0.54 0.52 0.48 0.43 0.38 0.37 0.37 0.36 0.33 0.31
1.00 1.00 0.96 0.90 0.82 0.79 0.76 0.72 0.68 0.66 0.57 0.53 0.48 0.46 0.44 0.41 0.37 0.34 0.32 0.29 0.26 0.23 0.22 0.24 0.30 0.39 0.53 0.70 0.90 1.03 1.04 0.91 0.74 0.64 0.59 0.56 0.55 0.55 0.54 0.53 0.51 0.45 0.41
1.08 1.06 0.97 0.97 0.99 0.94 0.86 0.83 0.75 0.69 0.61 0.58 0.58 0.53 0.50 0.48 0.45 0.42 0.41 0.40 0.38 0.35 0.32 0.31 0.29 0.28 0.36 0.49 0.66 0.91 1.07 1.05 0.89 0.77 0.71 0.68 0.68 0.67 0.62 0.58 0.57 0.53 0.50
1.13 1.09 1.02 1.00 1.01 0.96 0.85 0.82 0.79 0.76 0.68 0.67 0.66 0.58 0.54 0.52 0.51 0.48 0.45 0.44 0.43 0.42 0.40 0.38 0.35 0.33 0.32 0.37 0.48 0.68 0.90 1.03 1.02 0.92 0.84 0.79 0.76 0.73 0.72 0.70 0.67 0.64 0.62
1.24 1.24 1.16 1.11 1.11 1.04 0.95 0.95 0.98 0.92 0.84 0.85 0.79 0.62 0.53 0.51 0.49 0.48 0.47 0.44 0.41 0.39 0.36 0.36 0.35 0.34 0.34 0.35 0.38 0.50 0.70 0.91 1.04 1.06 1.00 0.94 0.91 0.86 0.87 0.89 0.86 0.83 0.79
1.41 1.39 1.38 1.37 1.31 1.22 1.14 1.10 1.09 1.04 0.97 1.00 0.99 0.91 0.68 0.53 0.46 0.44 0.45 0.43 0.43 0.42 0.38 0.37 0.36 0.35 0.33 0.33 0.35 0.39 0.49 0.70 0.93 1.12 1.20 1.15 1.09 1.05 1.06 1.08 1.10 1.07 1.01
1.63 1.52 1.48 1.54 1.51 1.40 1.29 1.24 1.21 1.18 1.16 1.16 1.12 1.15 0.92 0.65 0.52 0.47 0.45 0.41 0.42 0.45 0.46 0.45 0.41 0.37 0.33 0.31 0.31 0.34 0.38 0.46 0.69 1.00 1.21 1.27 1.24 1.21 1.26 1.31 1.35 1.37 1.31
1.73 1.68 1.63 1.60 1.62 1.59 1.45 1.40 1.38 1.32 1.28 1.24 1.20 1.08 1.00 0.84 0.76 0.60 0.47 0.46 0.44 0.42 0.43 0.45 0.44 0.43 0.43 0.41 0.40 0.39 0.39 0.38 0.50 0.79 1.13 1.35 1.43 1.46 1.50 1.55 1.61 1.67 1.66
1.74 1.68 1.64 1.57 1.50 1.50 1.51 1.50 1.46 1.42 1.30 1.20 1.14 1.08 1.02 0.88 0.75 0.71 0.56 0.45 0.46 0.43 0.40 0.42 0.45 0.46 0.47 0.48 0.46 0.51 0.55 0.51 0.57 0.75 1.03 1.32 1.53 1.68 1.78 1.81 1.78 1.77 1.76
1.78 1.72 1.67 1.58 1.46 1.39 1.36 1.39 1.42 1.41 1.38 1.29 1.19 1.14 1.09 1.01 0.86 0.82 0.77 0.60 0.54 0.49 0.47 0.46 0.46 0.47 0.48 0.51 0.57 0.72 0.71 0.72 0.78 0.92 1.15 1.40 1.59 1.71 1.81 1.90 1.97 1.94 1.86
1.63 1.63 1.62 1.59 1.53 1.47 1.49 1.47 1.46 1.40 1.39 1.35 1.28 1.18 1.12 1.03 0.92 0.92 0.93 0.80 0.67 0.54 0.51 0.51 0.52 0.55 0.58 0.62 0.69 0.88 0.89 0.92 0.95 1.07 1.30 1.48 1.54 1.56 1.60 1.72 1.92 2.04 2.04
1.55 1.57 1.55 1.51 1.51 1.44 1.40 1.41 1.42 1.40 1.40 1.37 1.30 1.21 1.10 1.00 0.96 0.98 1.02 1.07 1.00 0.79 0.66 0.63 0.61 0.67 0.75 0.82 0.96 1.09 0.97 1.10 1.13 1.22 1.37 1.54 1.49 1.38 1.33 1.40 1.56 1.73 1.79
1.48 1.49 1.51 1.42 1.37 1.33 1.28 1.27 1.27 1.23 1.24 1.25 1.20 1.19 1.13 1.05 1.04 1.06 1.12 1.24 1.38 1.29 1.01 0.81 0.80 0.82 0.89 0.99 1.15 1.08 1.00 1.21 1.23 1.22 1.28 1.28 1.22 1.16 1.15 1.17 1.22 1.32 1.39
1.19 1.28 1.33 1.32 1.27 1.27 1.23 1.19 1.14 1.09 1.06 1.03 1.01 1.04 1.07 1.06 1.08 1.09 1.15 1.23 1.34 1.43 1.28 0.93 0.82 0.86 0.96 1.04 1.20 1.10 1.04 1.21 1.16 1.14 1.14 1.10 1.03 1.01 1.00 0.99 0.96 0.98 1.05
0.97 1.04 1.15 1.21 1.19 1.18 1.17 1.13 1.07 1.02 0.98 0.93 0.90 0.93 0.94 0.94 1.01 1.03 1.07 1.15 1.26 1.39 1.44 1.18 0.99 0.98 1.04 1.04 1.03 0.94 0.89 0.91 0.90 0.99 0.93 0.88 0.85 0.84 0.83 0.84 0.85 0.86 0.86
0.88 0.90 0.89 0.91 0.97 1.00 1.03 1.05 1.01 0.96 0.92 0.88 0.85 0.86 0.87 0.89 0.96 1.01 1.07 1.14 1.20 1.27 1.32 1.21 1.02 0.93 0.88 0.82 0.78 0.73 0.68 0.66 0.66 0.79 0.76 0.71 0.69 0.66 0.64 0.65 0.68 0.71 0.71
0.71 0.77 0.76 0.75 0.74 0.74 0.77 0.83 0.88 0.91 0.89 0.86 0.86 0.88 0.89 0.92 0.96 1.00 1.07 1.12 1.13 1.11 1.09 1.03 0.88 0.76 0.69 0.65 0.65 0.62 0.56 0.54 0.53 0.61 0.64 0.61 0.59 0.56 0.53 0.53 0.55 0.57 0.58
0.46 0.50 0.54 0.57 0.61 0.62 0.60 0.63 0.68 0.76 0.83 0.87 0.88 0.90 0.93 1.00 1.07 1.11 1.11 1.10 1.07 1.02 0.96 0.91 0.83 0.73 0.64 0.57 0.57 0.58 0.55 0.49 0.46 0.44 0.51 0.52 0.52 0.51 0.48 0.44 0.41 0.42 0.46
0.26 0.30 0.35 0.40 0.44 0.48 0.52 0.55 0.57 0.62 0.67 0.75 0.84 0.91 0.96 1.05 1.08 1.02 0.93 0.87 0.82 0.80 0.80 0.79 0.74 0.65 0.56 0.51 0.50 0.46 0.46 0.45 0.43 0.39 0.41 0.41 0.40 0.39 0.38 0.39 0.39 0.38 0.40
0.19 0.22 0.26 0.31 0.36 0.40 0.53 0.53 0.49 0.52 0.62 0.67 0.72 0.77 0.83 0.88 0.82 0.78 0.73 0.68 0.68 0.72 0.72 0.65 0.58 0.49 0.41 0.36 0.36 0.41 0.46 0.53 0.52 0.37 0.36 0.37 0.35 0.37 0.34 0.33 0.39 0.40 0.40
0.24 0.26 0.28 0.31 0.35 0.43 0.55 0.55 0.59 0.56 0.61 0.65 0.64 0.62 0.59 0.58 0.58 0.50 0.51 0.52 0.53 0.54 0.51 0.47 0.45 0.38 0.34 0.31 0.38 0.46 0.48 0.48 0.40 0.30 0.35 0.40 0.35 0.34 0.30 0.31 0.39 0.38 0.40
0.42 0.43 0.43 0.44 0.48 0.56 0.64 0.60 0.58 0.53 0.53 0.53 0.49 0.44 0.41 0.40 0.40 0.41 0.42 0.44 0.38 0.34 0.32 0.29 0.27 0.26 0.28 0.33 0.42 0.50 0.50 0.50 0.43 0.36 0.38 0.45 0.37 0.31 0.26 0.27 0.34 0.35 0.38
0.69 0.69 0.69 0.67 0.65 0.63 0.60 0.50 0.44 0.39 0.37 0.35 0.32 0.30 0.29 0.29 0.33 0.38 0.37 0.37 0.35 0.32 0.32 0.32 0.32 0.31 0.34 0.38 0.42 0.48 0.56 0.66 0.60 0.43 0.37 0.38 0.34 0.31 0.29 0.29 0.32 0.39 0.40
0.66 0.64 0.63 0.59 0.54 0.47 0.41 0.33 0.28 0.25 0.23 0.22 0.22 0.23 0.26 0.27 0.35 0.42 0.38 0.36 0.35 0.32 0.33 0.35 0.34 0.32 0.31 0.32 0.38 0.37 0.42 0.65 0.66 0.51 0.30 0.32 0.35 0.41 0.52 0.36 0.32 0.37 0.42

GEFSMA_prec_meanprecacc_192.txt.gz
Total_Precipitation_Accumulation
0.79 0.77 0.69 0.64 0.57 0.53 0.50 0.46 0.38 0.33 0.29 0.26 0.24 0.24 0.24 0.22 0.20 0.21 0.19 0.14 0.13 0.17 0.28 0.36 0.44 0.50 0.52 0.54 0.52 0.50 0.46 0.41 0.37 0.33 0.30 0.27 0.24 0.21 0.21 0.22 0.23 0.23 0.24
0.89 0.82 0.74 0.71 0.65 0.58 0.53 0.53 0.49 0.47 0.42 0.37 0.30 0.26 0.25 0.24 0.20 0.19 0.18 0.18 0.16 0.16 0.20 0.30 0.40 0.50 0.61 0.70 0.71 0.68 0.60 0.53 0.50 0.47 0.43 0.37 0.32 0.29 0.28 0.28 0.27 0.25 0.24
1.04 0.94 0.86 0.75 0.68 0.66 0.64 0.65 0.64 0.63 0.55 0.49 0.41 0.37 0.35 0.32 0.28 0.24 0.22 0.20 0.21 0.21 0.21 0.26 0.36 0.46 0.61 0.77 0.89 0.93 0.84 0.71 0.60 0.55 0.52 0.48 0.44 0.40 0.38 0.38 0.36 0.34 0.32
1.14 1.12 1.06 0.97 0.86 0.82 0.79 0.74 0.71 0.70 0.61 0.56 0.51 0.48 0.45 0.41 0.38 0.35 0.33 0.30 0.27 0.24 0.23 0.25 0.32 0.42 0.55 0.71 0.91 1.05 1.07 0.94 0.76 0.66 0.60 0.57 0.56 0.56 0.55 0.54 0.51 0.46 0.41
1.21 1.17 1.06 1.05 1.06 0.98 0.89 0.85 0.77 0.72 0.64 0.61 0.61 0.55 0.51 0.49 0.45 0.43 0.42 0.41 0.40 0.37 0.33 0.32 0.30 0.30 0.38 0.49 0.67 0.92 1.09 1.09 0.93 0.81 0.73 0.70 0.69 0.68 0.65 0.60 0.58 0.54 0.50
1.27 1.22 1.11 1.07 1.08 1.04 0.91 0.85 0.81 0.79 0.71 0.70 0.68 0.61 0.55 0.52 0.52 0.49 0.46 0.45 0.44 0.44 0.42 0.39 0.36 0.34 0.34 0.38 0.48 0.69 0.91 1.06 1.07 0.97 0.87 0.81 0.77 0.75 0.74 0.73 0.70 0.65 0.62
1.35 1.37 1.27 1.20 1.18 1.10 1.02 1.01 1.02 0.96 0.87 0.88 0.83 0.64 0.54 0.52 0.50 0.49 0.47 0.45 0.42 0.40 0.38 0.37 0.37 0.35 0.35 0.36 0.39 0.50 0.71 0.93 1.07 1.11 1.05 0.98 0.93 0.88 0.88 0.91 0.90 0.86 0.81
1.51 1.48 1.48 1.45 1.37 1.26 1.17 1.14 1.14 1.08 1.01 1.04 1.02 0.94 0.69 0.54 0.47 0.45 0.45 0.44 0.44 0.43 0.39 0.38 0.38 0.36 0.33 0.33 0.35 0.40 0.50 0.71 0.94 1.14 1.23 1.18 1.12 1.08 1.08 1.10 1.13 1.11 1.05
1.72 1.59 1.53 1.59 1.55 1.43 1.31 1.26 1.24 1.21 1.20 1.19 1.14 1.18 0.93 0.66 0.52 0.48 0.45 0.42 0.43 0.47 0.48 0.46 0.43 0.39 0.34 0.31 0.31 0.35 0.38 0.46 0.70 1.01 1.23 1.29 1.26 1.23 1.29 1.34 1.38 1.39 1.35
1.81 1.75 1.68 1.64 1.65 1.61 1.47 1.40 1.39 1.34 1.31 1.27 1.22 1.10 1.01 0.85 0.76 0.60 0.47 0.46 0.45 0.44 0.46 0.47 0.46 0.44 0.44 0.42 0.41 0.40 0.39 0.38 0.51 0.80 1.14 1.37 1.45 1.48 1.53 1.57 1.64 1.70 1.69
1.84 1.75 1.70 1.62 1.54 1.53 1.53 1.51 1.47 1.42 1.32 1.21 1.16 1.10 1.04 0.89 0.76 0.72 0.56 0.45 0.46 0.44 0.43 0.45 0.47 0.48 0.49 0.49 0.48 0.52 0.55 0.51 0.58 0.75 1.04 1.33 1.55 1.70 1.81 1.84 1.81 1.80 1.78
1.88 1.79 1.72 1.63 1.50 1.42 1.39 1.40 1.42 1.42 1.39 1.31 1.22 1.16 1.11 1.02 0.87 0.83 0.77 0.60 0.54 0.49 0.49 0.50 0.49 0.49 0.50 0.53 0.58 0.73 0.72 0.73 0.79 0.93 1.16 1.42 1.61 1.74 1.84 1.94 2.01 1.97 1.89
1.71 1.70 1.67 1.63 1.56 1.50 1.52 1.49 1.47 1.41 1.39 1.36 1.30 1.21 1.15 1.05 0.94 0.93 0.94 0.80 0.67 0.55 0.52 0.54 0.56 0.58 0.60 0.63 0.70 0.90 0.90 0.93 0.96 1.08 1.31 1.50 1.56 1.59 1.63 1.77 1.96 2.08 2.08
1.60 1.61 1.58 1.53 1.52 1.46 1.42 1.43 1.43 1.41 1.41 1.37 1.32 1.24 1.13 1.03 0.98 1.00 1.04 1.08 1.01 0.80 0.66 0.64 0.65 0.71 0.78 0.84 0.98 1.11 0.99 1.12 1.14 1.23 1.38 1.55 1.51 1.39 1.35 1.45 1.61 1.78 1.85
1.51 1.51 1.52 1.43 1.37 1.34 1.29 1.28 1.28 1.24 1.25 1.25 1.21 1.20 1.15 1.07 1.07 1.09 1.15 1.26 1.40 1.30 1.02 0.81 0.82 0.86 0.93 1.02 1.18 1.10 1.01 1.24 1.26 1.25 1.29 1.30 1.24 1.18 1.17 1.19 1.25 1.36 1.43
1.21 1.29 1.34 1.32 1.28 1.27 1.23 1.20 1.15 1.09 1.07 1.03 1.01 1.04 1.08 1.08 1.10 1.12 1.18 1.26 1.37 1.45 1.30 0.95 0.83 0.88 1.00 1.09 1.25 1.13 1.06 1.23 1.19 1.18 1.17 1.12 1.06 1.04 1.03 1.03 1.01 1.02 1.08
0.99 1.05 1.16 1.22 1.20 1.18 1.17 1.14 1.08 1.03 0.98 0.93 0.90 0.93 0.95 0.95 1.02 1.05 1.09 1.17 1.28 1.42 1.46 1.19 1.01 1.00 1.06 1.08 1.08 0.99 0.93 0.94 0.92 1.02 0.96 0.91 0.88 0.87 0.86 0.88 0.89 0.90 0.90
0.91 0.91 0.90 0.92 0.98 1.01 1.04 1.05 1.01 0.97 0.92 0.88 0.85 0.86 0.88 0.90 0.97 1.02 1.09 1.15 1.21 1.28 1.34 1.23 1.04 0.94 0.89 0.84 0.82 0.79 0.73 0.70 0.68 0.81 0.79 0.73 0.71 0.68 0.66 0.68 0.72 0.74 0.74
0.73 0.79 0.77 0.76 0.75 0.75 0.78 0.84 0.89 0.91 0.90 0.87 0.87 0.89 0.90 0.93 0.97 1.01 1.07 1.13 1.14 1.12 1.10 1.04 0.89 0.77 0.70 0.66 0.68 0.66 0.63 0.61 0.57 0.64 0.67 0.64 0.61 0.58 0.55 0.55 0.57 0.60 0.61
0.48 0.52 0.55 0.58 0.63 0.63 0.62 0.64 0.70 0.77 0.84 0.88 0.89 0.91 0.94 1.01 1.08 1.11 1.12 1.11 1.08 1.03 0.97 0.92 0.84 0.73 0.64 0.57 0.58 0.61 0.61 0.56 0.51 0.48 0.54 0.55 0.55 0.54 0.50 0.46 0.43 0.43 0.48
0.28 0.32 0.37 0.41 0.46 0.50 0.53 0.57 0.59 0.64 0.69 0.76 0.85 0.92 0.97 1.06 1.09 1.03 0.94 0.88 0.83 0.81 0.81 0.80 0.75 0.66 0.57 0.52 0.51 0.47 0.48 0.49 0.48 0.43 0.44 0.44 0.43 0.41 0.40 0.42 0.41 0.40 0.42
0.22 0.24 0.28 0.33 0.38 0.42 0.55 0.55 0.51 0.54 0.63 0.69 0.73 0.78 0.84 0.89 0.83 0.79 0.74 0.69 0.70 0.73 0.73 0.66 0.59 0.50 0.41 0.37 0.37 0.42 0.48 0.55 0.55 0.40 0.39 0.40 0.38 0.40 0.36 0.35 0.41 0.42 0.42
0.26 0.28 0.30 0.33 0.37 0.45 0.56 0.56 0.61 0.58 0.62 0.66 0.65 0.62 0.60 0.59 0.59 0.51 0.52 0.53 0.54 0.55 0.52 0.48 0.46 0.39 0.35 0.32 0.39 0.47 0.49 0.50 0.42 0.32 0.37 0.43 0.38 0.36 0.31 0.33 0.40 0.39 0.42
0.45 0.45 0.45 0.47 0.50 0.58 0.65 0.61 0.60 0.55 0.54 0.53 0.49 0.44 0.42 0.41 0.40 0.42 0.44 0.45 0.39 0.35 0.33 0.30 0.28 0.27 0.30 0.35 0.43 0.52 0.53 0.53 0.45 0.39 0.41 0.48 0.40 0.33 0.28 0.29 0.36 0.37 0.40
0.71 0.70 0.70 0.69 0.67 0.65 0.61 0.52 0.45 0.41 0.38 0.36 0.33 0.31 0.30 0.30 0.35 0.40 0.39 0.39 0.36 0.33 0.33 0.34 0.33 0.33 0.36 0.40 0.44 0.51 0.59 0.69 0.63 0.46 0.39 0.40 0.36 0.32 0.31 0.31 0.34 0.40 0.41
0.68 0.65 0.64 0.60 0.55 0.48 0.42 0.34 0.30 0.26 0.24 0.23 0.23 0.24 0.27 0.29 0.37 0.45 0.40 0.38 0.38 0.34 0.35 0.37 0.36 0.35 0.33 0.34 0.40 0.39 0.45 0.68 0.70 0.53 0.31 0.34 0.36 0.42 0.54 0.38 0.34 0.38 0.43

GEFSMA_prec_meanprecacc_198.txt.gz
Total_Precipitation_Accumulation
0.87 0.86 0.77 0.69 0.63 0.58 0.55 0.50 0.43 0.38 0.32 0.27 0.25 0.24 0.24 0.22 0.20 0.21 0.20 0.16 0.15 0.20 0.30 0.40 0.48 0.54 0.56 0.57 0.54 0.52 0.48 0.43 0.38 0.34 0.31 0.28 0.25 0.22 0.22 0.22 0.23 0.23 0.24
0.96 0.92 0.85 0.80 0.72 0.64 0.58 0.57 0.52 0.50 0.45 0.41 0.32 0.27 0.26 0.24 0.21 0.20 0.19 0.19 0.18 0.17 0.22 0.33 0.44 0.55 0.64 0.73 0.74 0.70 0.61 0.55 0.52 0.49 0.44 0.38 0.33 0.30 0.29 0.29 0.27 0.25 0.25
1.09 1.01 0.97 0.86 0.76 0.72 0.68 0.69 0.67 0.65 0.57 0.52 0.44 0.39 0.36 0.33 0.28 0.25 0.22 0.20 0.22 0.22 0.23 0.28 0.38 0.50 0.65 0.80 0.91 0.94 0.85 0.72 0.62 0.58 0.55 0.51 0.46 0.41 0.39 0.39 0.37 0.34 0.32
1.19 1.18 1.14 1.07 0.94 0.89 0.84 0.77 0.73 0.71 0.64 0.59 0.55 0.50 0.46 0.42 0.38 0.35 0.33 0.30 0.28 0.25 0.24 0.28 0.35 0.44 0.57 0.73 0.93 1.07 1.08 0.95 0.78 0.69 0.63 0.61 0.60 0.60 0.58 0.56 0.52 0.46 0.42
1.27 1.22 1.14 1.14 1.16 1.05 0.94 0.88 0.79 0.73 0.66 0.63 0.64 0.59 0.54 0.51 0.46 0.43 0.42 0.41 0.40 0.38 0.35 0.34 0.32 0.33 0.40 0.53 0.70 0.94 1.11 1.09 0.94 0.82 0.75 0.72 0.72 0.72 0.68 0.63 0.60 0.55 0.51
1.32 1.26 1.17 1.16 1.19 1.14 0.98 0.90 0.84 0.80 0.72 0.72 0.71 0.64 0.59 0.55 0.53 0.50 0.46 0.45 0.44 0.44 0.43 0.40 0.37 0.36 0.36 0.41 0.52 0.72 0.94 1.07 1.07 0.98 0.89 0.83 0.79 0.77 0.77 0.77 0.72 0.68 0.65
1.39 1.41 1.32 1.27 1.27 1.20 1.10 1.07 1.07 0.98 0.89 0.90 0.86 0.68 0.57 0.54 0.52 0.50 0.48 0.46 0.42 0.41 0.39 0.38 0.38 0.36 0.36 0.38 0.43 0.54 0.74 0.95 1.08 1.12 1.06 1.00 0.95 0.90 0.91 0.94 0.92 0.89 0.84
1.55 1.52 1.52 1.50 1.44 1.34 1.26 1.20 1.18 1.12 1.03 1.06 1.05 0.98 0.74 0.57 0.49 0.46 0.46 0.44 0.44 0.44 0.40 0.39 0.39 0.37 0.34 0.34 0.38 0.44 0.55 0.74 0.96 1.16 1.25 1.20 1.13 1.09 1.10 1.12 1.14 1.12 1.08
1.76 1.63 1.57 1.64 1.60 1.49 1.39 1.34 1.29 1.24 1.22 1.22 1.18 1.22 0.98 0.69 0.54 0.49 0.46 0.43 0.44 0.48 0.49 0.48 0.44 0.40 0.35 0.32 0.33 0.38 0.43 0.51 0.72 1.02 1.25 1.31 1.28 1.25 1.31 1.36 1.40 1.40 1.36
1.87 1.80 1.72 1.67 1.69 1.65 1.52 1.47 1.44 1.37 1.33 1.28 1.25 1.13 1.04 0.88 0.79 0.62 0.49 0.47 0.46 0.44 0.46 0.48 0.47 0.46 0.45 0.43 0.42 0.42 0.43 0.44 0.55 0.82 1.16 1.39 1.47 1.50 1.55 1.59 1.66 1.72 1.70
1.90 1.82 1.77 1.67 1.58 1.57 1.56 1.55 1.51 1.46 1.34 1.23 1.18 1.12 1.06 0.90 0.77 0.73 0.57 0.46 0.47 0.45 0.45 0.47 0.50 0.51 0.51 0.51 0.49 0.53 0.57 0.55 0.62 0.78 1.05 1.35 1.58 1.73 1.83 1.86 1.83 1.81 1.80
1.95 1.87 1.80 1.71 1.57 1.47 1.43 1.43 1.46 1.45 1.42 1.32 1.23 1.17 1.12 1.03 0.89 0.85 0.79 0.62 0.55 0.50 0.50 0.52 0.52 0.52 0.54 0.56 0.60 0.74 0.74 0.75 0.82 0.96 1.18 1.44 1.63 1.76 1.87 1.97 2.03 2.00 1.91
1.77 1.77 1.74 1.71 1.63 1.55 1.56 1.53 1.50 1.43 1.41 1.38 1.31 1.22 1.16 1.06 0.95 0.94 0.96 0.82 0.69 0.56 0.53 0.55 0.58 0.61 0.64 0.68 0.74 0.93 0.92 0.95 0.99 1.11 1.33 1.51 1.57 1.60 1.65 1.80 1.99 2.10 2.10
1.65 1.66 1.63 1.58 1.57 1.50 1.46 1.46 1.46 1.44 1.43 1.39 1.33 1.25 1.14 1.04 1.00 1.01 1.05 1.09 1.03 0.82 0.68 0.65 0.66 0.73 0.81 0.88 1.03 1.16 1.02 1.15 1.17 1.25 1.41 1.58 1.52 1.40 1.36 1.46 1.64 1.81 1.87
1.56 1.55 1.56 1.47 1.42 1.38 1.33 1.32 1.30 1.25 1.26 1.26 1.22 1.21 1.16 1.08 1.08 1.10 1.16 1.27 1.42 1.33 1.04 0.83 0.84 0.88 0.95 1.05 1.24 1.16 1.06 1.28 1.30 1.28 1.32 1.32 1.26 1.19 1.18 1.20 1.27 1.38 1.45
1.28 1.34 1.37 1.35 1.31 1.31 1.27 1.24 1.18 1.11 1.08 1.04 1.02 1.05 1.08 1.08 1.10 1.12 1.19 1.27 1.39 1.48 1.33 0.97 0.86 0.90 1.02 1.11 1.29 1.19 1.12 1.29 1.24 1.23 1.21 1.15 1.08 1.05 1.04 1.04 1.02 1.04 1.10
1.04 1.11 1.19 1.24 1.22 1.21 1.21 1.17 1.10 1.04 0.99 0.94 0.91 0.94 0.95 0.95 1.02 1.05 1.09 1.18 1.29 1.43 1.48 1.21 1.03 1.02 1.09 1.11 1.12 1.02 0.97 0.98 0.97 1.06 1.00 0.95 0.91 0.89 0.88 0.90 0.91 0.92 0.92
0.93 0.96 0.94 0.95 1.00 1.03 1.05 1.07 1.03 0.98 0.93 0.89 0.86 0.87 0.88 0.90 0.97 1.02 1.09 1.16 1.22 1.30 1.35 1.25 1.05 0.96 0.91 0.86 0.85 0.82 0.76 0.73 0.72 0.85 0.82 0.77 0.74 0.71 0.68 0.70 0.74 0.77 0.77
0.76 0.82 0.82 0.80 0.78 0.76 0.80 0.86 0.90 0.92 0.91 0.87 0.87 0.89 0.90 0.93 0.97 1.01 1.08 1.14 1.15 1.13 1.12 1.05 0.91 0.77 0.71 0.67 0.69 0.68 0.64 0.63 0.60 0.68 0.71 0.68 0.65 0.61 0.57 0.57 0.59 0.62 0.64
0.50 0.54 0.57 0.61 0.65 0.65 0.64 0.66 0.71 0.78 0.85 0.89 0.90 0.92 0.94 1.02 1.09 1.12 1.13 1.12 1.09 1.05 0.99 0.94 0.85 0.74 0.65 0.58 0.59 0.62 0.62 0.58 0.55 0.52 0.59 0.60 0.60 0.58 0.54 0.49 0.45 0.45 0.50
0.30 0.34 0.39 0.43 0.48 0.51 0.55 0.58 0.60 0.65 0.70 0.77 0.86 0.93 0.98 1.07 1.10 1.05 0.96 0.89 0.84 0.83 0.82 0.82 0.76 0.66 0.58 0.53 0.51 0.48 0.49 0.51 0.52 0.49 0.49 0.49 0.48 0.46 0.44 0.46 0.45 0.44 0.45
0.24 0.27 0.30 0.34 0.39 0.43 0.56 0.57 0.53 0.56 0.65 0.70 0.74 0.79 0.85 0.90 0.85 0.81 0.76 0.71 0.71 0.75 0.74 0.68 0.60 0.51 0.42 0.37 0.37 0.42 0.49 0.57 0.58 0.45 0.45 0.47 0.45 0.46 0.41 0.39 0.44 0.45 0.45
0.29 0.31 0.32 0.34 0.38 0.46 0.57 0.57 0.62 0.59 0.63 0.67 0.66 0.63 0.61 0.60 0.60 0.52 0.54 0.54 0.55 0.57 0.53 0.49 0.47 0.40 0.35 0.33 0.40 0.48 0.50 0.51 0.44 0.34 0.41 0.50 0.47 0.45 0.39 0.38 0.45 0.43 0.45
0.47 0.47 0.48 0.49 0.51 0.59 0.66 0.62 0.61 0.56 0.55 0.54 0.50 0.45 0.42 0.41 0.41 0.42 0.44 0.46 0.40 0.36 0.34 0.31 0.29 0.28 0.30 0.35 0.44 0.53 0.53 0.54 0.48 0.41 0.43 0.52 0.45 0.42 0.38 0.37 0.42 0.41 0.43
0.72 0.72 0.73 0.71 0.69 0.67 0.62 0.52 0.46 0.41 0.39 0.36 0.33 0.31 0.30 0.30 0.35 0.40 0.40 0.39 0.37 0.34 0.34 0.34 0.34 0.34 0.37 0.41 0.46 0.52 0.61 0.72 0.66 0.49 0.41 0.43 0.39 0.36 0.38 0.39 0.41 0.45 0.45
0.69 0.67 0.66 0.63 0.57 0.51 0.44 0.36 0.31 0.27 0.25 0.23 0.23 0.24 0.27 0.29 0.38 0.46 0.41 0.39 0.39 0.35 0.35 0.38 0.37 0.35 0.34 0.35 0.41 0.41 0.47 0.71 0.73 0.56 0.34 0.36 0.40 0.46 0.58 0.43 0.39 0.44 0.47

GEFSMA_prec_meanprecacc_204.txt.gz
Total_Precipitation_Accumulation
0.94 0.92 0.82 0.73 0.67 0.64 0.62 0.57 0.49 0.44 0.37 0.31 0.27 0.26 0.25 0.22 0.20 0.21 0.20 0.16 0.16 0.22 0.32 0.42 0.51 0.56 0.58 0.60 0.57 0.55 0.50 0.44 0.39 0.35 0.32 0.29 0.26 0.23 0.23 0.23 0.24 0.24 0.25
1.07 1.01 0.91 0.84 0.75 0.70 0.66 0.66 0.58 0.56 0.51 0.46 0.36 0.30 0.27 0.25 0.21 0.20 0.19 0.20 0.19 0.19 0.23 0.34 0.47 0.58 0.67 0.75 0.77 0.73 0.64 0.56 0.53 0.50 0.45 0.39 0.34 0.32 0.32 0.31 0.29 0.27 0.26
1.22 1.12 1.06 0.93 0.81 0.78 0.77 0.79 0.76 0.72 0.62 0.56 0.49 0.43 0.38 0.35 0.29 0.25 0.22 0.21 0.23 0.23 0.24 0.30 0.40 0.52 0.67 0.82 0.94 0.97 0.88 0.75 0.64 0.59 0.55 0.51 0.47 0.43 0.43 0.43 0.40 0.37 0.34
1.32 1.30 1.25 1.19 1.03 0.97 0.93 0.87 0.84 0.80 0.68 0.62 0.58 0.54 0.49 0.45 0.41 0.37 0.34 0.31 0.29 0.26 0.25 0.29 0.36 0.46 0.59 0.76 0.95 1.09 1.11 0.98 0.80 0.70 0.64 0.61 0.60 0.61 0.61 0.61 0.56 0.49 0.44
1.37 1.33 1.25 1.26 1.26 1.14 1.03 0.97 0.89 0.82 0.71 0.67 0.67 0.62 0.56 0.53 0.49 0.47 0.44 0.42 0.41 0.38 0.35 0.35 0.33 0.34 0.41 0.55 0.72 0.96 1.13 1.12 0.97 0.85 0.77 0.73 0.72 0.72 0.70 0.66 0.63 0.58 0.54
1.39 1.33 1.25 1.27 1.29 1.22 1.07 0.99 0.93 0.89 0.78 0.76 0.75 0.67 0.62 0.58 0.56 0.53 0.48 0.46 0.45 0.45 0.44 0.41 0.38 0.37 0.37 0.43 0.54 0.74 0.96 1.10 1.11 1.01 0.91 0.85 0.80 0.78 0.78 0.78 0.75 0.70 0.67
1.45 1.46 1.37 1.34 1.34 1.27 1.17 1.15 1.16 1.07 0.96 0.95 0.89 0.71 0.61 0.58 0.55 0.53 0.50 0.47 0.43 0.42 0.40 0.39 0.38 0.36 0.37 0.40 0.44 0.56 0.76 0.99 1.13 1.15 1.09 1.02 0.97 0.91 0.93 0.96 0.95 0.91 0.86
1.60 1.57 1.56 1.55 1.49 1.40 1.32 1.27 1.27 1.21 1.11 1.11 1.08 1.01 0.77 0.61 0.52 0.49 0.49 0.46 0.47 0.46 0.42 0.40 0.39 0.38 0.35 0.35 0.39 0.45 0.56 0.77 1.02 1.22 1.29 1.22 1.15 1.11 1.12 1.14 1.16 1.15 1.09
1.81 1.67 1.61 1.68 1.64 1.54 1.44 1.39 1.36 1.32 1.29 1.26 1.20 1.24 1.01 0.72 0.57 0.52 0.49 0.45 0.46 0.50 0.51 0.49 0.45 0.40 0.36 0.33 0.33 0.39 0.44 0.52 0.78 1.11 1.32 1.36 1.30 1.27 1.32 1.38 1.42 1.43 1.38
1.92 1.85 1.77 1.71 1.72 1.69 1.56 1.52 1.50 1.44 1.40 1.34 1.27 1.14 1.06 0.90 0.81 0.64 0.51 0.50 0.49 0.47 0.48 0.50 0.49 0.47 0.46 0.44 0.42 0.42 0.44 0.45 0.59 0.90 1.26 1.47 1.53 1.53 1.57 1.61 1.68 1.75 1.73
1.95 1.88 1.82 1.71 1.62 1.60 1.61 1.59 1.56 1.51 1.40 1.29 1.21 1.14 1.07 0.92 0.79 0.75 0.59 0.49 0.50 0.47 0.46 0.48 0.51 0.52 0.53 0.52 0.50 0.54 0.58 0.56 0.64 0.84 1.17 1.48 1.68 1.78 1.87 1.90 1.86 1.85 1.84
1.99 1.93 1.87 1.77 1.62 1.53 1.48 1.48 1.50 1.49 1.46 1.36 1.26 1.19 1.13 1.04 0.90 0.86 0.80 0.63 0.57 0.52 0.51 0.53 0.53 0.53 0.55 0.58 0.62 0.76 0.75 0.76 0.83 1.00 1.27 1.58 1.77 1.86 1.90 1.99 2.05 2.02 1.94
1.81 1.81 1.80 1.78 1.69 1.60 1.61 1.57 1.55 1.48 1.46 1.41 1.34 1.25 1.19 1.08 0.97 0.96 0.97 0.83 0.71 0.58 0.54 0.56 0.59 0.62 0.66 0.70 0.77 0.97 0.94 0.97 1.01 1.14 1.39 1.62 1.71 1.72 1.71 1.82 2.01 2.13 2.13
1.68 1.69 1.66 1.64 1.64 1.56 1.52 1.52 1.51 1.49 1.48 1.43 1.36 1.28 1.18 1.08 1.03 1.04 1.07 1.11 1.05 0.83 0.69 0.66 0.68 0.76 0.84 0.91 1.07 1.22 1.07 1.20 1.21 1.29 1.46 1.65 1.63 1.52 1.44 1.50 1.66 1.83 1.90
1.59 1.58 1.59 1.50 1.47 1.45 1.41 1.39 1.36 1.31 1.31 1.30 1.26 1.24 1.19 1.11 1.11 1.12 1.17 1.28 1.43 1.34 1.05 0.85 0.87 0.91 0.98 1.08 1.28 1.21 1.13 1.37 1.37 1.33 1.36 1.37 1.32 1.28 1.27 1.25 1.29 1.40 1.47
1.31 1.37 1.40 1.38 1.35 1.36 1.35 1.31 1.24 1.17 1.14 1.09 1.05 1.08 1.10 1.10 1.12 1.14 1.20 1.28 1.39 1.49 1.34 0.98 0.88 0.94 1.06 1.14 1.32 1.23 1.18 1.37 1.32 1.29 1.27 1.20 1.13 1.10 1.12 1.11 1.05 1.05 1.12
1.06 1.13 1.22 1.28 1.26 1.26 1.28 1.23 1.15 1.09 1.04 0.97 0.94 0.96 0.98 0.97 1.04 1.06 1.11 1.19 1.30 1.44 1.49 1.22 1.03 1.04 1.11 1.13 1.13 1.05 1.00 1.02 1.02 1.12 1.07 1.01 0.97 0.93 0.92 0.96 0.98 0.95 0.94
0.95 0.98 0.97 0.98 1.03 1.07 1.11 1.13 1.08 1.03 0.98 0.92 0.88 0.89 0.90 0.92 0.99 1.04 1.10 1.17 1.23 1.30 1.36 1.25 1.06 0.97 0.92 0.88 0.86 0.83 0.77 0.75 0.74 0.88 0.86 0.81 0.78 0.75 0.71 0.74 0.81 0.84 0.81
0.78 0.84 0.83 0.82 0.80 0.79 0.83 0.90 0.94 0.97 0.94 0.90 0.89 0.91 0.92 0.95 0.99 1.02 1.09 1.15 1.17 1.15 1.13 1.07 0.91 0.78 0.72 0.68 0.70 0.68 0.65 0.64 0.61 0.69 0.73 0.72 0.69 0.64 0.60 0.59 0.62 0.69 0.69
0.52 0.56 0.59 0.63 0.67 0.67 0.66 0.69 0.75 0.82 0.88 0.90 0.91 0.94 0.97 1.04 1.10 1.13 1.14 1.13 1.10 1.06 1.00 0.95 0.86 0.76 0.66 0.59 0.60 0.63 0.63 0.60 0.57 0.53 0.60 0.61 0.64 0.64 0.59 0.52 0.47 0.49 0.55
0.33 0.37 0.41 0.45 0.50 0.53 0.57 0.60 0.62 0.68 0.73 0.79 0.88 0.95 1.00 1.10 1.12 1.06 0.98 0.91 0.85 0.85 0.84 0.83 0.78 0.68 0.59 0.54 0.53 0.49 0.51 0.53 0.54 0.50 0.50 0.51 0.50 0.50 0.50 0.51 0.48 0.46 0.48
0.28 0.30 0.33 0.37 0.41 0.45 0.58 0.58 0.54 0.57 0.66 0.71 0.75 0.80 0.87 0.92 0.86 0.83 0.78 0.73 0.74 0.77 0.77 0.70 0.61 0.53 0.43 0.38 0.39 0.45 0.51 0.59 0.60 0.47 0.47 0.48 0.46 0.48 0.45 0.45 0.50 0.49 0.48
0.31 0.33 0.34 0.37 0.40 0.48 0.59 0.59 0.64 0.60 0.64 0.68 0.67 0.64 0.62 0.61 0.62 0.53 0.55 0.56 0.57 0.59 0.55 0.51 0.49 0.42 0.36 0.34 0.42 0.50 0.52 0.54 0.46 0.36 0.44 0.52 0.49 0.47 0.42 0.43 0.52 0.48 0.49
0.50 0.50 0.50 0.51 0.54 0.61 0.68 0.64 0.62 0.56 0.56 0.55 0.50 0.45 0.43 0.42 0.41 0.43 0.45 0.47 0.40 0.36 0.35 0.32 0.30 0.29 0.31 0.36 0.45 0.55 0.56 0.57 0.50 0.43 0.45 0.55 0.48 0.44 0.41 0.41 0.47 0.47 0.49
0.76 0.76 0.76 0.74 0.71 0.69 0.64 0.54 0.47 0.42 0.40 0.37 0.34 0.32 0.31 0.31 0.35 0.41 0.41 0.40 0.38 0.34 0.34 0.35 0.35 0.35 0.38 0.42 0.47 0.54 0.64 0.75 0.69 0.50 0.42 0.45 0.41 0.38 0.40 0.43 0.46 0.51 0.50
0.73 0.70 0.70 0.66 0.60 0.52 0.45 0.37 0.32 0.28 0.26 0.24 0.23 0.25 0.28 0.30 0.38 0.46 0.42 0.40 0.40 0.36 0.36 0.39 0.38 0.36 0.34 0.35 0.42 0.42 0.49 0.73 0.76 0.58 0.35 0.37 0.41 0.47 0.60 0.45 0.43 0.49 0.52

GEFSMA_prec_meanprecacc_210.txt.gz
Total_Precipitation_Accumulation
1.04 1.00 0.87 0.77 0.69 0.66 0.64 0.59 0.51 0.46 0.40 0.34 0.29 0.28 0.27 0.23 0.21 0.22 0.21 0.18 0.17 0.25 0.36 0.44 0.53 0.59 0.61 0.62 0.59 0.57 0.53 0.48 0.42 0.37 0.33 0.30 0.27 0.24 0.24 0.24 0.25 0.25 0.26
1.20 1.14 1.00 0.90 0.80 0.73 0.69 0.68 0.61 0.58 0.55 0.50 0.41 0.34 0.31 0.27 0.23 0.21 0.20 0.21 0.21 0.21 0.26 0.37 0.49 0.61 0.70 0.78 0.79 0.75 0.68 0.60 0.56 0.52 0.47 0.40 0.36 0.34 0.33 0.32 0.30 0.28 0.27
1.29 1.21 1.15 1.02 0.89 0.84 0.81 0.82 0.79 0.75 0.67 0.61 0.53 0.48 0.43 0.38 0.32 0.26 0.23 0.22 0.25 0.26 0.27 0.32 0.42 0.55 0.70 0.85 0.96 0.99 0.90 0.78 0.67 0.61 0.58 0.53 0.48 0.44 0.44 0.44 0.41 0.38 0.35
1.37 1.34 1.29 1.26 1.13 1.06 1.01 0.93 0.89 0.84 0.74 0.68 0.63 0.59 0.54 0.50 0.46 0.41 0.36 0.32 0.31 0.28 0.27 0.31 0.39 0.48 0.62 0.78 0.98 1.11 1.13 0.99 0.82 0.73 0.67 0.63 0.62 0.63 0.63 0.61 0.57 0.50 0.45
1.43 1.38 1.28 1.29 1.34 1.25 1.14 1.07 0.96 0.89 0.78 0.74 0.74 0.68 0.62 0.58 0.54 0.52 0.51 0.47 0.44 0.40 0.37 0.37 0.35 0.35 0.43 0.57 0.75 0.99 1.15 1.14 0.98 0.86 0.79 0.75 0.75 0.74 0.72 0.68 0.64 0.59 0.55
1.45 1.38 1.29 1.30 1.33 1.31 1.20 1.13 1.04 0.98 0.88 0.86 0.84 0.76 0.70 0.64 0.61 0.57 0.53 0.52 0.51 0.48 0.46 0.43 0.39 0.38 0.38 0.45 0.57 0.77 0.99 1.12 1.12 1.02 0.92 0.87 0.82 0.80 0.81 0.81 0.77 0.72 0.69
1.51 1.51 1.41 1.38 1.39 1.33 1.27 1.27 1.29 1.18 1.07 1.07 1.01 0.83 0.72 0.67 0.61 0.57 0.54 0.51 0.47 0.46 0.43 0.41 0.39 0.37 0.37 0.41 0.46 0.58 0.78 1.01 1.15 1.17 1.10 1.04 0.99 0.94 0.95 0.98 0.97 0.93 0.87
1.66 1.62 1.61 1.59 1.53 1.43 1.38 1.35 1.36 1.31 1.21 1.21 1.20 1.13 0.90 0.73 0.61 0.54 0.52 0.49 0.50 0.49 0.45 0.43 0.42 0.39 0.36 0.36 0.40 0.46 0.57 0.79 1.04 1.24 1.31 1.24 1.18 1.13 1.14 1.16 1.19 1.17 1.12
1.87 1.71 1.66 1.73 1.69 1.57 1.48 1.44 1.42 1.39 1.39 1.36 1.30 1.35 1.11 0.81 0.66 0.58 0.52 0.47 0.49 0.54 0.54 0.52 0.48 0.43 0.38 0.35 0.34 0.40 0.45 0.54 0.80 1.13 1.35 1.38 1.33 1.30 1.35 1.40 1.45 1.46 1.41
1.95 1.88 1.81 1.76 1.77 1.73 1.61 1.56 1.53 1.48 1.48 1.45 1.37 1.23 1.14 0.96 0.85 0.69 0.55 0.52 0.51 0.50 0.51 0.53 0.52 0.50 0.49 0.46 0.44 0.44 0.45 0.46 0.60 0.92 1.29 1.50 1.56 1.56 1.61 1.64 1.71 1.78 1.77
1.98 1.91 1.84 1.74 1.64 1.62 1.64 1.64 1.61 1.56 1.46 1.36 1.29 1.20 1.13 0.98 0.83 0.78 0.63 0.51 0.52 0.49 0.48 0.50 0.53 0.55 0.56 0.55 0.53 0.57 0.61 0.58 0.66 0.87 1.19 1.50 1.71 1.84 1.93 1.94 1.90 1.89 1.87
2.02 1.96 1.90 1.79 1.64 1.54 1.49 1.51 1.54 1.54 1.52 1.42 1.32 1.24 1.17 1.09 0.95 0.89 0.82 0.65 0.60 0.54 0.53 0.54 0.54 0.55 0.57 0.60 0.66 0.81 0.79 0.80 0.86 1.04 1.32 1.62 1.81 1.92 1.99 2.07 2.11 2.06 1.98
1.83 1.83 1.82 1.81 1.72 1.63 1.64 1.60 1.58 1.51 1.49 1.45 1.39 1.30 1.22 1.11 1.01 1.01 1.01 0.85 0.72 0.59 0.55 0.57 0.60 0.63 0.67 0.72 0.81 1.02 1.01 1.04 1.07 1.21 1.46 1.68 1.76 1.77 1.81 1.93 2.10 2.19 2.17
1.70 1.70 1.68 1.66 1.66 1.60 1.56 1.56 1.55 1.52 1.51 1.46 1.40 1.31 1.21 1.11 1.06 1.08 1.13 1.15 1.07 0.85 0.71 0.67 0.69 0.77 0.85 0.92 1.10 1.26 1.13 1.27 1.29 1.37 1.51 1.70 1.66 1.56 1.51 1.60 1.76 1.91 1.95
1.61 1.60 1.61 1.53 1.49 1.48 1.46 1.44 1.40 1.35 1.35 1.34 1.29 1.28 1.22 1.14 1.13 1.15 1.21 1.33 1.47 1.36 1.07 0.86 0.88 0.92 0.99 1.09 1.29 1.23 1.16 1.42 1.42 1.39 1.41 1.41 1.35 1.31 1.31 1.33 1.38 1.48 1.54
1.32 1.38 1.42 1.40 1.37 1.40 1.40 1.36 1.28 1.21 1.18 1.12 1.09 1.12 1.14 1.13 1.14 1.16 1.23 1.31 1.43 1.51 1.36 0.99 0.88 0.94 1.06 1.15 1.33 1.24 1.19 1.39 1.34 1.32 1.30 1.24 1.16 1.14 1.14 1.15 1.12 1.13 1.17
1.07 1.14 1.23 1.29 1.28 1.29 1.31 1.27 1.18 1.12 1.08 1.01 0.98 1.00 1.01 1.00 1.07 1.09 1.13 1.22 1.32 1.46 1.51 1.23 1.04 1.04 1.12 1.13 1.14 1.06 1.02 1.04 1.03 1.14 1.09 1.04 1.00 0.97 0.95 0.98 1.02 1.03 1.01
0.96 0.99 0.98 0.99 1.05 1.09 1.14 1.16 1.12 1.06 1.01 0.95 0.91 0.93 0.94 0.96 1.02 1.06 1.12 1.19 1.26 1.33 1.38 1.27 1.07 0.97 0.93 0.89 0.87 0.84 0.78 0.76 0.75 0.90 0.88 0.83 0.80 0.78 0.75 0.77 0.84 0.89 0.89
0.79 0.86 0.85 0.84 0.82 0.81 0.86 0.94 0.99 1.02 0.98 0.93 0.93 0.95 0.95 0.98 1.02 1.04 1.11 1.17 1.18 1.17 1.15 1.08 0.93 0.79 0.73 0.68 0.70 0.69 0.66 0.66 0.62 0.71 0.75 0.73 0.71 0.66 0.62 0.61 0.65 0.72 0.76
0.53 0.57 0.61 0.64 0.69 0.69 0.68 0.72 0.79 0.87 0.94 0.95 0.95 0.97 1.00 1.06 1.12 1.15 1.16 1.15 1.12 1.08 1.02 0.97 0.87 0.77 0.67 0.60 0.61 0.64 0.64 0.61 0.59 0.54 0.62 0.64 0.66 0.66 0.60 0.54 0.49 0.51 0.59
0.34 0.38 0.43 0.47 0.52 0.55 0.59 0.62 0.65 0.71 0.76 0.83 0.91 0.99 1.03 1.13 1.15 1.09 1.00 0.92 0.87 0.86 0.85 0.84 0.79 0.69 0.60 0.55 0.54 0.50 0.52 0.54 0.56 0.52 0.52 0.52 0.52 0.52 0.52 0.53 0.50 0.48 0.51
0.29 0.31 0.35 0.39 0.43 0.47 0.61 0.60 0.56 0.59 0.68 0.74 0.78 0.85 0.91 0.96 0.89 0.86 0.80 0.75 0.75 0.79 0.78 0.71 0.63 0.54 0.44 0.39 0.39 0.46 0.52 0.61 0.63 0.49 0.49 0.50 0.48 0.50 0.47 0.47 0.53 0.52 0.50
0.32 0.34 0.36 0.39 0.42 0.50 0.61 0.61 0.66 0.62 0.66 0.70 0.69 0.68 0.65 0.64 0.64 0.55 0.57 0.58 0.59 0.60 0.57 0.52 0.51 0.43 0.37 0.34 0.43 0.52 0.54 0.56 0.49 0.39 0.47 0.56 0.51 0.49 0.43 0.45 0.56 0.54 0.53
0.51 0.51 0.51 0.52 0.55 0.64 0.71 0.66 0.64 0.58 0.58 0.57 0.53 0.48 0.46 0.44 0.44 0.45 0.47 0.48 0.42 0.37 0.36 0.33 0.31 0.30 0.32 0.37 0.46 0.56 0.57 0.58 0.51 0.45 0.48 0.58 0.51 0.46 0.42 0.42 0.49 0.51 0.54
0.77 0.77 0.77 0.75 0.72 0.70 0.66 0.56 0.49 0.44 0.42 0.39 0.35 0.33 0.33 0.33 0.38 0.44 0.43 0.42 0.39 0.35 0.36 0.36 0.36 0.36 0.39 0.43 0.47 0.55 0.64 0.76 0.70 0.51 0.43 0.47 0.44 0.40 0.41 0.44 0.48 0.53 0.54
0.74 0.71 0.71 0.67 0.60 0.53 0.47 0.39 0.33 0.29 0.27 0.26 0.25 0.26 0.30 0.31 0.40 0.48 0.44 0.42 0.42 0.37 0.38 0.40 0.39 0.37 0.35 0.36 0.43 0.43 0.50 0.75 0.77 0.60 0.36 0.39 0.44 0.50 0.63 0.46 0.45 0.51 0.54

GEFSMA_prec_meanprecacc_216.txt.gz
Total_Precipitation_Accumulation
1.06 1.03 0.95 0.85 0.73 0.68 0.67 0.63 0.55 0.50 0.44 0.37 0.31 0.31 0.29 0.26 0.24 0.24 0.23 0.19 0.20 0.28 0.39 0.49 0.58 0.63 0.65 0.66 0.62 0.60 0.56 0.50 0.44 0.40 0.35 0.32 0.28 0.25 0.25 0.25 0.26 0.26 0.27
1.23 1.18 1.08 1.02 0.89 0.77 0.72 0.72 0.65 0.62 0.59 0.54 0.43 0.37 0.33 0.29 0.25 0.23 0.22 0.22 0.23 0.24 0.28 0.40 0.53 0.66 0.77 0.84 0.82 0.77 0.70 0.63 0.59 0.54 0.48 0.42 0.37 0.35 0.34 0.33 0.31 0.29 0.28
1.34 1.27 1.23 1.11 0.96 0.89 0.85 0.86 0.84 0.80 0.72 0.66 0.57 0.50 0.45 0.41 0.35 0.30 0.27 0.25 0.26 0.28 0.30 0.36 0.47 0.60 0.76 0.93 1.02 1.03 0.94 0.83 0.72 0.64 0.60 0.55 0.50 0.45 0.45 0.45 0.42 0.39 0.36
1.43 1.41 1.35 1.32 1.17 1.09 1.04 0.97 0.95 0.91 0.80 0.73 0.67 0.62 0.57 0.53 0.49 0.45 0.41 0.37 0.35 0.30 0.31 0.36 0.43 0.54 0.67 0.84 1.05 1.18 1.18 1.04 0.87 0.77 0.69 0.65 0.64 0.64 0.63 0.63 0.58 0.51 0.46
1.50 1.44 1.32 1.33 1.37 1.27 1.16 1.10 1.03 0.99 0.90 0.83 0.79 0.72 0.66 0.62 0.58 0.56 0.56 0.52 0.48 0.44 0.40 0.40 0.39 0.40 0.49 0.64 0.81 1.05 1.21 1.18 1.01 0.88 0.81 0.77 0.76 0.75 0.72 0.69 0.66 0.61 0.56
1.50 1.43 1.32 1.32 1.36 1.33 1.22 1.16 1.08 1.04 0.99 0.97 0.93 0.83 0.76 0.69 0.65 0.62 0.58 0.58 0.56 0.54 0.49 0.46 0.42 0.41 0.42 0.50 0.63 0.83 1.05 1.17 1.15 1.04 0.94 0.88 0.84 0.82 0.82 0.82 0.78 0.73 0.70
1.54 1.55 1.45 1.41 1.42 1.36 1.29 1.30 1.33 1.25 1.14 1.14 1.07 0.90 0.79 0.74 0.67 0.62 0.58 0.55 0.53 0.53 0.50 0.46 0.42 0.39 0.39 0.43 0.49 0.62 0.84 1.07 1.20 1.21 1.13 1.05 1.00 0.95 0.96 0.99 0.98 0.95 0.89
1.70 1.67 1.65 1.63 1.56 1.46 1.40 1.38 1.40 1.38 1.30 1.30 1.27 1.19 0.97 0.81 0.68 0.60 0.58 0.54 0.54 0.54 0.51 0.50 0.48 0.43 0.38 0.38 0.42 0.49 0.61 0.84 1.09 1.28 1.33 1.26 1.20 1.15 1.16 1.18 1.21 1.19 1.14
1.93 1.77 1.70 1.77 1.73 1.60 1.50 1.46 1.44 1.42 1.45 1.44 1.37 1.42 1.19 0.89 0.73 0.65 0.59 0.55 0.54 0.58 0.59 0.59 0.56 0.51 0.44 0.39 0.38 0.43 0.48 0.58 0.84 1.18 1.38 1.41 1.35 1.31 1.37 1.42 1.47 1.48 1.43
2.01 1.94 1.86 1.80 1.81 1.77 1.63 1.58 1.56 1.51 1.52 1.51 1.44 1.30 1.21 1.03 0.92 0.76 0.63 0.59 0.58 0.55 0.55 0.57 0.58 0.57 0.55 0.52 0.49 0.48 0.49 0.49 0.64 0.97 1.34 1.54 1.60 1.60 1.63 1.66 1.73 1.80 1.79
2.02 1.97 1.91 1.79 1.69 1.66 1.67 1.67 1.63 1.59 1.50 1.41 1.35 1.27 1.20 1.05 0.90 0.85 0.71 0.59 0.60 0.56 0.54 0.55 0.58 0.59 0.61 0.60 0.56 0.60 0.64 0.61 0.70 0.91 1.24 1.54 1.74 1.88 1.97 1.98 1.93 1.91 1.89
2.06 2.01 1.98 1.85 1.69 1.58 1.53 1.55 1.57 1.57 1.55 1.47 1.37 1.30 1.24 1.17 1.02 0.97 0.90 0.72 0.66 0.62 0.59 0.59 0.57 0.57 0.59 0.62 0.67 0.82 0.82 0.83 0.90 1.08 1.36 1.66 1.85 1.95 2.03 2.12 2.16 2.11 2.02
1.87 1.89 1.91 1.87 1.77 1.67 1.67 1.65 1.62 1.54 1.52 1.49 1.43 1.35 1.29 1.19 1.08 1.09 1.10 0.94 0.79 0.66 0.61 0.62 0.63 0.65 0.68 0.73 0.82 1.03 1.02 1.07 1.13 1.28 1.55 1.76 1.83 1.83 1.85 1.98 2.15 2.24 2.24
1.74 1.75 1.74 1.71 1.70 1.63 1.59 1.60 1.60 1.56 1.54 1.49 1.43 1.35 1.26 1.16 1.11 1.14 1.20 1.24 1.15 0.92 0.76 0.71 0.72 0.79 0.86 0.93 1.10 1.27 1.14 1.29 1.33 1.44 1.62 1.81 1.77 1.65 1.57 1.64 1.80 1.97 2.01
1.63 1.64 1.66 1.57 1.53 1.52 1.50 1.48 1.45 1.40 1.39 1.36 1.32 1.31 1.25 1.16 1.17 1.19 1.26 1.40 1.56 1.44 1.13 0.90 0.90 0.95 1.01 1.10 1.30 1.24 1.17 1.43 1.45 1.42 1.46 1.47 1.42 1.38 1.37 1.37 1.42 1.52 1.58
1.34 1.41 1.45 1.45 1.42 1.44 1.45 1.40 1.32 1.26 1.23 1.16 1.12 1.15 1.17 1.15 1.16 1.19 1.26 1.36 1.48 1.59 1.42 1.04 0.91 0.96 1.08 1.17 1.35 1.25 1.20 1.41 1.36 1.35 1.34 1.29 1.22 1.19 1.18 1.18 1.15 1.15 1.19
1.08 1.16 1.25 1.32 1.31 1.32 1.35 1.33 1.23 1.17 1.12 1.06 1.02 1.04 1.04 1.02 1.08 1.11 1.16 1.25 1.36 1.51 1.57 1.28 1.07 1.07 1.14 1.15 1.17 1.08 1.03 1.06 1.05 1.16 1.12 1.08 1.06 1.02 0.98 1.00 1.04 1.05 1.03
0.97 1.00 0.99 1.00 1.06 1.11 1.17 1.21 1.18 1.11 1.05 0.99 0.96 0.96 0.96 0.97 1.03 1.08 1.15 1.23 1.28 1.35 1.42 1.32 1.12 1.02 0.96 0.91 0.89 0.86 0.80 0.78 0.77 0.92 0.89 0.85 0.83 0.82 0.79 0.79 0.85 0.91 0.90
0.80 0.87 0.87 0.85 0.83 0.82 0.88 0.97 1.03 1.06 1.02 0.98 0.98 0.99 0.98 1.00 1.03 1.07 1.14 1.21 1.22 1.20 1.18 1.12 0.97 0.84 0.76 0.72 0.73 0.71 0.67 0.67 0.63 0.72 0.77 0.75 0.72 0.68 0.65 0.64 0.67 0.74 0.78
0.53 0.57 0.62 0.65 0.69 0.70 0.70 0.75 0.82 0.91 0.98 0.99 1.00 1.01 1.03 1.08 1.14 1.19 1.20 1.18 1.15 1.11 1.06 1.00 0.91 0.81 0.71 0.63 0.64 0.66 0.65 0.62 0.59 0.55 0.63 0.65 0.67 0.68 0.62 0.55 0.51 0.52 0.61
0.34 0.38 0.44 0.47 0.53 0.58 0.61 0.65 0.68 0.74 0.79 0.86 0.95 1.02 1.07 1.16 1.19 1.13 1.03 0.95 0.90 0.90 0.89 0.89 0.82 0.72 0.63 0.58 0.57 0.52 0.54 0.55 0.56 0.53 0.53 0.53 0.54 0.54 0.54 0.55 0.52 0.49 0.52
0.29 0.32 0.36 0.40 0.46 0.49 0.62 0.63 0.59 0.60 0.69 0.75 0.80 0.87 0.95 1.00 0.94 0.90 0.84 0.78 0.79 0.83 0.82 0.74 0.66 0.57 0.47 0.41 0.42 0.48 0.55 0.63 0.63 0.50 0.50 0.51 0.49 0.52 0.49 0.49 0.56 0.54 0.52
0.34 0.35 0.37 0.39 0.43 0.50 0.62 0.63 0.67 0.63 0.66 0.70 0.70 0.70 0.68 0.66 0.67 0.58 0.60 0.60 0.62 0.64 0.61 0.56 0.54 0.45 0.39 0.36 0.45 0.55 0.57 0.58 0.50 0.40 0.48 0.57 0.52 0.51 0.45 0.46 0.58 0.57 0.56
0.53 0.52 0.52 0.53 0.56 0.65 0.72 0.67 0.65 0.59 0.58 0.58 0.54 0.50 0.48 0.46 0.45 0.47 0.49 0.50 0.43 0.40 0.38 0.35 0.33 0.31 0.33 0.39 0.48 0.59 0.60 0.61 0.53 0.47 0.49 0.60 0.52 0.48 0.43 0.43 0.51 0.52 0.56
0.79 0.78 0.78 0.75 0.73 0.72 0.68 0.57 0.50 0.44 0.43 0.40 0.37 0.35 0.34 0.34 0.40 0.46 0.45 0.44 0.41 0.38 0.38 0.39 0.38 0.38 0.42 0.45 0.50 0.57 0.67 0.79 0.72 0.53 0.45 0.49 0.46 0.42 0.44 0.46 0.49 0.54 0.55
0.75 0.73 0.72 0.68 0.62 0.54 0.48 0.40 0.35 0.30 0.28 0.26 0.26 0.27 0.31 0.33 0.42 0.51 0.46 0.45 0.45 0.40 0.41 0.43 0.41 0.39 0.37 0.38 0.45 0.45 0.52 0.78 0.80 0.62 0.37 0.41 0.46 0.53 0.66 0.49 0.46 0.53 0.56

GEFSMA_prec_meanprecacc_222.txt.gz
Total_Precipitation_Accumulation
1.08 1.05 0.96 0.87 0.76 0.73 0.70 0.65 0.57 0.53 0.48 0.41 0.35 0.35 0.34 0.30 0.27 0.25 0.24 0.21 0.23 0.33 0.45 0.56 0.66 0.71 0.71 0.70 0.65 0.63 0.58 0.52 0.47 0.42 0.36 0.33 0.29 0.27 0.26 0.26 0.26 0.27 0.28
1.24 1.19 1.08 1.03 0.91 0.81 0.76 0.74 0.67 0.65 0.64 0.58 0.47 0.41 0.38 0.34 0.29 0.26 0.25 0.25 0.25 0.27 0.33 0.47 0.61 0.73 0.85 0.90 0.86 0.80 0.72 0.65 0.60 0.56 0.50 0.43 0.38 0.36 0.35 0.34 0.32 0.30 0.29
1.36 1.29 1.25 1.13 1.00 0.93 0.89 0.88 0.85 0.82 0.76 0.70 0.61 0.55 0.49 0.45 0.39 0.34 0.32 0.30 0.30 0.31 0.33 0.42 0.55 0.68 0.85 1.02 1.10 1.08 0.97 0.85 0.74 0.67 0.62 0.56 0.51 0.46 0.46 0.46 0.43 0.40 0.37
1.46 1.45 1.38 1.35 1.21 1.13 1.08 0.99 0.96 0.93 0.83 0.77 0.70 0.66 0.61 0.57 0.53 0.50 0.47 0.43 0.40 0.35 0.35 0.41 0.50 0.60 0.74 0.92 1.13 1.25 1.24 1.09 0.91 0.81 0.73 0.68 0.66 0.66 0.65 0.63 0.59 0.52 0.47
1.53 1.50 1.37 1.36 1.40 1.30 1.19 1.12 1.05 1.01 0.93 0.87 0.84 0.77 0.71 0.67 0.63 0.62 0.62 0.58 0.55 0.50 0.44 0.45 0.45 0.46 0.55 0.70 0.88 1.12 1.27 1.23 1.06 0.93 0.85 0.82 0.81 0.80 0.75 0.71 0.67 0.62 0.57
1.54 1.48 1.37 1.36 1.41 1.38 1.25 1.18 1.09 1.06 1.01 1.02 0.99 0.90 0.82 0.75 0.73 0.70 0.67 0.66 0.64 0.59 0.55 0.51 0.46 0.45 0.47 0.54 0.69 0.89 1.11 1.22 1.20 1.08 0.99 0.93 0.90 0.88 0.88 0.86 0.82 0.76 0.72
1.58 1.58 1.48 1.44 1.45 1.40 1.32 1.33 1.36 1.27 1.16 1.16 1.10 0.93 0.83 0.78 0.73 0.71 0.69 0.62 0.59 0.58 0.56 0.53 0.47 0.42 0.43 0.47 0.54 0.68 0.91 1.13 1.25 1.25 1.18 1.10 1.04 0.99 0.99 1.02 1.01 0.98 0.91
1.72 1.68 1.67 1.65 1.59 1.49 1.44 1.40 1.43 1.41 1.32 1.31 1.28 1.20 0.99 0.85 0.74 0.67 0.66 0.61 0.58 0.58 0.56 0.57 0.55 0.48 0.41 0.42 0.46 0.55 0.68 0.91 1.15 1.34 1.39 1.32 1.24 1.18 1.18 1.20 1.23 1.21 1.16
1.93 1.77 1.72 1.79 1.76 1.63 1.53 1.48 1.46 1.45 1.48 1.45 1.39 1.44 1.21 0.92 0.77 0.70 0.66 0.61 0.59 0.61 0.63 0.63 0.64 0.58 0.48 0.43 0.43 0.48 0.54 0.65 0.91 1.24 1.45 1.47 1.41 1.36 1.41 1.45 1.49 1.49 1.45
2.01 1.95 1.87 1.83 1.84 1.80 1.67 1.61 1.58 1.53 1.55 1.53 1.46 1.32 1.23 1.05 0.95 0.80 0.69 0.65 0.63 0.60 0.59 0.61 0.63 0.65 0.64 0.59 0.56 0.54 0.53 0.54 0.71 1.07 1.43 1.62 1.66 1.66 1.68 1.70 1.76 1.82 1.80
2.03 1.97 1.91 1.81 1.71 1.69 1.70 1.70 1.66 1.62 1.53 1.44 1.38 1.29 1.22 1.07 0.92 0.88 0.75 0.64 0.65 0.62 0.59 0.60 0.64 0.68 0.70 0.69 0.64 0.67 0.71 0.66 0.74 0.96 1.33 1.65 1.83 1.94 2.02 2.02 1.97 1.94 1.91
2.07 2.02 1.99 1.87 1.72 1.61 1.56 1.58 1.61 1.61 1.58 1.49 1.39 1.33 1.27 1.20 1.06 1.01 0.94 0.76 0.72 0.68 0.66 0.66 0.64 0.66 0.67 0.68 0.72 0.87 0.86 0.87 0.94 1.11 1.40 1.74 1.95 2.03 2.08 2.15 2.20 2.14 2.05
1.88 1.90 1.92 1.90 1.82 1.72 1.71 1.68 1.65 1.59 1.56 1.52 1.45 1.37 1.31 1.22 1.11 1.14 1.16 1.00 0.85 0.72 0.69 0.70 0.70 0.72 0.75 0.78 0.86 1.06 1.05 1.10 1.15 1.31 1.57 1.80 1.91 1.94 1.94 2.04 2.21 2.31 2.31
1.75 1.77 1.76 1.75 1.76 1.70 1.67 1.66 1.65 1.61 1.58 1.53 1.47 1.38 1.29 1.19 1.16 1.20 1.26 1.31 1.23 0.98 0.82 0.78 0.78 0.84 0.91 0.99 1.15 1.31 1.17 1.32 1.35 1.46 1.64 1.83 1.80 1.73 1.69 1.76 1.93 2.12 2.18
1.64 1.65 1.67 1.59 1.57 1.57 1.57 1.55 1.51 1.44 1.43 1.41 1.36 1.36 1.29 1.21 1.21 1.24 1.31 1.45 1.62 1.51 1.18 0.94 0.95 0.99 1.05 1.16 1.36 1.28 1.21 1.47 1.48 1.44 1.48 1.48 1.43 1.41 1.43 1.47 1.51 1.60 1.67
1.35 1.42 1.47 1.46 1.44 1.47 1.49 1.45 1.37 1.30 1.27 1.19 1.15 1.19 1.22 1.19 1.20 1.22 1.29 1.39 1.53 1.63 1.47 1.08 0.95 1.01 1.12 1.21 1.40 1.29 1.24 1.44 1.40 1.38 1.36 1.30 1.23 1.20 1.21 1.23 1.22 1.21 1.23
1.09 1.17 1.26 1.34 1.35 1.36 1.39 1.37 1.27 1.21 1.16 1.09 1.05 1.07 1.08 1.06 1.12 1.14 1.18 1.27 1.38 1.54 1.60 1.31 1.11 1.10 1.18 1.20 1.21 1.11 1.07 1.09 1.08 1.19 1.14 1.10 1.07 1.04 1.01 1.04 1.08 1.09 1.06
0.98 1.01 1.01 1.02 1.09 1.14 1.20 1.24 1.21 1.14 1.09 1.03 0.99 1.00 1.00 1.01 1.07 1.11 1.17 1.24 1.30 1.37 1.45 1.35 1.15 1.05 0.99 0.95 0.93 0.89 0.84 0.81 0.80 0.95 0.92 0.87 0.85 0.84 0.81 0.81 0.88 0.94 0.93
0.81 0.88 0.88 0.86 0.85 0.85 0.91 1.00 1.05 1.08 1.05 1.00 1.01 1.02 1.01 1.03 1.07 1.10 1.16 1.22 1.23 1.21 1.19 1.15 1.01 0.86 0.79 0.75 0.77 0.74 0.71 0.71 0.66 0.75 0.80 0.77 0.74 0.70 0.67 0.67 0.70 0.77 0.80
0.54 0.58 0.63 0.66 0.71 0.73 0.73 0.78 0.84 0.93 0.99 1.01 1.03 1.04 1.06 1.12 1.18 1.22 1.22 1.20 1.16 1.12 1.07 1.02 0.94 0.84 0.74 0.66 0.67 0.70 0.69 0.66 0.63 0.57 0.65 0.67 0.69 0.69 0.63 0.58 0.53 0.55 0.63
0.36 0.40 0.45 0.49 0.55 0.60 0.64 0.67 0.69 0.75 0.81 0.87 0.96 1.04 1.10 1.20 1.23 1.17 1.06 0.97 0.91 0.91 0.90 0.90 0.85 0.75 0.67 0.61 0.60 0.55 0.57 0.58 0.60 0.55 0.55 0.55 0.55 0.55 0.55 0.57 0.53 0.51 0.54
0.32 0.34 0.37 0.41 0.47 0.51 0.64 0.65 0.60 0.61 0.71 0.76 0.81 0.89 0.96 1.02 0.96 0.94 0.88 0.82 0.82 0.85 0.84 0.76 0.68 0.59 0.50 0.45 0.45 0.51 0.58 0.67 0.68 0.53 0.52 0.52 0.49 0.53 0.50 0.51 0.58 0.55 0.54
0.36 0.38 0.38 0.41 0.44 0.51 0.63 0.64 0.68 0.63 0.67 0.71 0.70 0.71 0.69 0.68 0.68 0.59 0.63 0.64 0.65 0.68 0.64 0.58 0.56 0.47 0.41 0.39 0.48 0.58 0.60 0.60 0.53 0.42 0.50 0.59 0.53 0.51 0.46 0.48 0.59 0.58 0.57
0.55 0.55 0.54 0.55 0.58 0.65 0.72 0.67 0.65 0.59 0.59 0.58 0.54 0.50 0.48 0.47 0.46 0.48 0.50 0.51 0.45 0.42 0.41 0.37 0.34 0.33 0.35 0.41 0.51 0.61 0.63 0.64 0.55 0.49 0.52 0.63 0.55 0.49 0.44 0.45 0.53 0.55 0.59
0.80 0.81 0.80 0.76 0.73 0.72 0.68 0.57 0.50 0.45 0.43 0.40 0.37 0.35 0.35 0.35 0.41 0.47 0.46 0.45 0.42 0.39 0.41 0.42 0.41 0.40 0.44 0.47 0.52 0.60 0.71 0.83 0.76 0.56 0.48 0.51 0.48 0.45 0.46 0.47 0.51 0.57 0.58
0.77 0.74 0.73 0.68 0.62 0.54 0.48 0.41 0.36 0.30 0.29 0.27 0.27 0.28 0.32 0.34 0.43 0.52 0.47 0.46 0.46 0.42 0.43 0.45 0.43 0.41 0.39 0.40 0.47 0.46 0.55 0.81 0.83 0.64 0.39 0.44 0.49 0.57 0.69 0.51 0.48 0.55 0.59

GEFSMA_prec_meanprecacc_228.txt.gz
Total_Precipitation_Accumulation
1.12 1.09 1.00 0.89 0.79 0.76 0.75 0.72 0.63 0.57 0.51 0.45 0.40 0.39 0.38 0.33 0.30 0.29 0.27 0.22 0.24 0.36 0.49 0.62 0.74 0.77 0.76 0.75 0.70 0.67 0.62 0.55 0.48 0.43 0.37 0.33 0.30 0.27 0.27 0.27 0.28 0.28 0.29
1.28 1.22 1.11 1.06 0.94 0.85 0.81 0.80 0.71 0.69 0.68 0.64 0.53 0.46 0.43 0.39 0.34 0.30 0.29 0.27 0.27 0.29 0.38 0.54 0.68 0.80 0.90 0.95 0.91 0.85 0.76 0.68 0.63 0.58 0.51 0.43 0.39 0.37 0.37 0.35 0.34 0.32 0.30
1.39 1.32 1.27 1.16 1.02 0.95 0.92 0.94 0.90 0.85 0.79 0.74 0.66 0.61 0.56 0.51 0.44 0.39 0.36 0.33 0.33 0.34 0.38 0.48 0.62 0.74 0.89 1.07 1.17 1.15 1.03 0.89 0.77 0.69 0.64 0.58 0.52 0.48 0.48 0.48 0.45 0.41 0.38
1.47 1.47 1.42 1.39 1.24 1.15 1.10 1.03 1.00 0.95 0.85 0.79 0.73 0.70 0.66 0.63 0.59 0.56 0.53 0.48 0.45 0.39 0.39 0.45 0.55 0.66 0.80 0.98 1.20 1.32 1.30 1.14 0.95 0.84 0.75 0.70 0.67 0.67 0.66 0.64 0.60 0.53 0.48
1.55 1.51 1.38 1.39 1.45 1.35 1.21 1.15 1.08 1.03 0.94 0.89 0.86 0.80 0.75 0.71 0.68 0.67 0.67 0.64 0.60 0.55 0.49 0.50 0.50 0.52 0.62 0.78 0.95 1.19 1.34 1.29 1.10 0.97 0.88 0.84 0.83 0.82 0.78 0.73 0.70 0.64 0.60
1.56 1.50 1.38 1.38 1.43 1.40 1.28 1.20 1.11 1.07 1.03 1.04 1.00 0.91 0.84 0.78 0.75 0.73 0.70 0.70 0.69 0.64 0.60 0.56 0.51 0.50 0.54 0.63 0.78 0.99 1.19 1.29 1.25 1.13 1.02 0.96 0.92 0.91 0.91 0.90 0.86 0.79 0.75
1.61 1.60 1.49 1.46 1.47 1.42 1.35 1.35 1.38 1.28 1.18 1.17 1.11 0.94 0.83 0.79 0.74 0.73 0.71 0.66 0.63 0.64 0.63 0.61 0.54 0.49 0.49 0.53 0.61 0.77 1.03 1.24 1.32 1.31 1.23 1.15 1.08 1.02 1.02 1.06 1.06 1.02 0.96
1.75 1.70 1.68 1.67 1.60 1.51 1.45 1.42 1.45 1.44 1.34 1.33 1.29 1.21 1.00 0.86 0.75 0.68 0.68 0.63 0.61 0.63 0.62 0.64 0.63 0.55 0.46 0.46 0.50 0.61 0.77 1.01 1.25 1.40 1.44 1.37 1.30 1.23 1.22 1.23 1.26 1.24 1.19
1.96 1.79 1.73 1.80 1.77 1.64 1.55 1.49 1.47 1.47 1.50 1.47 1.40 1.45 1.22 0.93 0.78 0.71 0.67 0.63 0.62 0.65 0.67 0.68 0.69 0.64 0.53 0.46 0.46 0.52 0.61 0.73 1.02 1.33 1.52 1.54 1.48 1.43 1.46 1.50 1.53 1.53 1.47
2.04 1.97 1.89 1.84 1.85 1.81 1.68 1.62 1.59 1.55 1.57 1.55 1.48 1.33 1.24 1.05 0.96 0.82 0.70 0.66 0.65 0.62 0.63 0.65 0.68 0.70 0.68 0.64 0.60 0.59 0.59 0.62 0.82 1.19 1.53 1.70 1.74 1.74 1.75 1.76 1.81 1.87 1.84
2.06 2.01 1.94 1.83 1.73 1.70 1.72 1.72 1.67 1.63 1.55 1.45 1.39 1.31 1.24 1.08 0.93 0.89 0.76 0.66 0.67 0.64 0.63 0.64 0.69 0.73 0.75 0.74 0.69 0.73 0.77 0.73 0.81 1.07 1.45 1.74 1.91 2.04 2.12 2.10 2.02 1.99 1.97
2.09 2.05 2.02 1.89 1.74 1.63 1.57 1.59 1.63 1.62 1.60 1.51 1.40 1.33 1.28 1.21 1.07 1.02 0.95 0.78 0.74 0.71 0.69 0.70 0.69 0.70 0.72 0.74 0.78 0.94 0.93 0.93 1.01 1.19 1.51 1.85 2.04 2.13 2.20 2.26 2.28 2.22 2.11
1.89 1.92 1.95 1.93 1.83 1.74 1.73 1.70 1.68 1.61 1.59 1.54 1.47 1.38 1.32 1.23 1.13 1.15 1.18 1.04 0.89 0.76 0.73 0.74 0.76 0.78 0.81 0.85 0.92 1.12 1.11 1.15 1.22 1.39 1.66 1.90 2.01 2.03 2.04 2.15 2.29 2.37 2.36
1.77 1.78 1.77 1.76 1.77 1.71 1.68 1.68 1.67 1.63 1.61 1.56 1.49 1.40 1.30 1.20 1.17 1.21 1.28 1.34 1.26 1.02 0.86 0.81 0.82 0.89 0.98 1.05 1.21 1.36 1.23 1.37 1.41 1.52 1.71 1.91 1.87 1.81 1.77 1.84 2.01 2.18 2.23
1.66 1.67 1.69 1.60 1.58 1.58 1.58 1.56 1.52 1.45 1.44 1.43 1.39 1.38 1.31 1.22 1.22 1.25 1.32 1.47 1.65 1.54 1.21 0.97 0.98 1.03 1.10 1.21 1.41 1.33 1.25 1.51 1.52 1.48 1.52 1.53 1.48 1.46 1.50 1.53 1.57 1.65 1.71
1.35 1.43 1.48 1.47 1.45 1.48 1.50 1.46 1.38 1.31 1.27 1.21 1.18 1.22 1.24 1.21 1.22 1.24 1.31 1.41 1.55 1.66 1.50 1.10 0.98 1.04 1.16 1.25 1.45 1.33 1.29 1.49 1.43 1.41 1.40 1.34 1.27 1.24 1.26 1.29 1.28 1.26 1.27
1.10 1.18 1.27 1.35 1.35 1.37 1.40 1.38 1.28 1.22 1.17 1.11 1.07 1.10 1.11 1.09 1.14 1.16 1.20 1.30 1.42 1.57 1.63 1.34 1.14 1.13 1.21 1.23 1.24 1.15 1.10 1.13 1.12 1.24 1.18 1.14 1.11 1.07 1.04 1.08 1.13 1.15 1.11
0.99 1.02 1.01 1.03 1.10 1.15 1.21 1.25 1.22 1.15 1.10 1.05 1.01 1.03 1.04 1.04 1.10 1.14 1.19 1.27 1.33 1.40 1.47 1.38 1.17 1.07 1.02 0.98 0.96 0.93 0.88 0.85 0.84 0.99 0.96 0.92 0.90 0.89 0.86 0.86 0.92 0.99 0.99
0.81 0.88 0.89 0.87 0.86 0.86 0.92 1.00 1.07 1.10 1.07 1.02 1.03 1.04 1.04 1.06 1.11 1.13 1.19 1.25 1.25 1.22 1.21 1.17 1.03 0.89 0.82 0.79 0.81 0.78 0.74 0.75 0.70 0.79 0.83 0.81 0.79 0.75 0.73 0.73 0.75 0.81 0.85
0.55 0.59 0.64 0.67 0.72 0.74 0.75 0.79 0.86 0.94 1.01 1.03 1.05 1.06 1.08 1.14 1.21 1.25 1.24 1.22 1.18 1.14 1.08 1.03 0.96 0.86 0.77 0.69 0.72 0.74 0.73 0.70 0.66 0.61 0.69 0.71 0.73 0.73 0.67 0.62 0.59 0.60 0.67
0.37 0.40 0.46 0.50 0.56 0.62 0.66 0.69 0.71 0.77 0.83 0.89 0.98 1.06 1.11 1.21 1.25 1.19 1.08 0.99 0.93 0.92 0.92 0.91 0.85 0.77 0.69 0.64 0.63 0.59 0.60 0.62 0.64 0.59 0.59 0.59 0.59 0.59 0.59 0.60 0.57 0.55 0.58
0.33 0.34 0.38 0.42 0.48 0.52 0.67 0.68 0.62 0.63 0.72 0.78 0.83 0.90 0.98 1.03 0.98 0.95 0.89 0.83 0.83 0.87 0.86 0.78 0.69 0.60 0.51 0.46 0.46 0.53 0.59 0.69 0.71 0.56 0.55 0.55 0.53 0.57 0.54 0.53 0.60 0.58 0.58
0.37 0.39 0.39 0.42 0.46 0.53 0.66 0.66 0.71 0.65 0.68 0.72 0.72 0.71 0.70 0.68 0.69 0.60 0.63 0.64 0.66 0.69 0.65 0.59 0.57 0.48 0.42 0.40 0.49 0.60 0.61 0.62 0.54 0.45 0.53 0.63 0.56 0.54 0.49 0.50 0.61 0.60 0.60
0.56 0.56 0.55 0.56 0.60 0.68 0.75 0.69 0.67 0.61 0.60 0.59 0.55 0.51 0.49 0.47 0.47 0.48 0.50 0.52 0.45 0.42 0.42 0.38 0.35 0.34 0.36 0.41 0.52 0.63 0.65 0.65 0.57 0.51 0.54 0.66 0.58 0.52 0.46 0.47 0.55 0.56 0.60
0.81 0.82 0.81 0.79 0.76 0.74 0.71 0.59 0.52 0.46 0.44 0.41 0.38 0.36 0.35 0.35 0.41 0.47 0.47 0.45 0.43 0.40 0.41 0.42 0.42 0.41 0.45 0.48 0.53 0.61 0.73 0.86 0.79 0.58 0.49 0.54 0.51 0.47 0.48 0.49 0.53 0.59 0.59
0.78 0.75 0.74 0.70 0.64 0.56 0.50 0.42 0.37 0.32 0.30 0.28 0.27 0.29 0.33 0.34 0.44 0.53 0.48 0.47 0.47 0.42 0.43 0.45 0.44 0.42 0.39 0.41 0.48 0.47 0.56 0.83 0.85 0.67 0.42 0.46 0.51 0.60 0.73 0.54 0.51 0.58 0.62

GEFSMA_prec_meanprecacc_234.txt.gz
Total_Precipitation_Accumulation
1.14 1.10 1.01 0.91 0.80 0.77 0.77 0.74 0.65 0.60 0.54 0.47 0.41 0.40 0.39 0.34 0.31 0.30 0.29 0.25 0.27 0.40 0.56 0.70 0.80 0.81 0.80 0.79 0.73 0.69 0.65 0.58 0.51 0.45 0.39 0.35 0.31 0.28 0.28 0.29 0.30 0.30 0.31
1.30 1.24 1.13 1.08 0.96 0.86 0.83 0.82 0.74 0.73 0.73 0.67 0.56 0.48 0.44 0.40 0.35 0.32 0.31 0.31 0.31 0.32 0.43 0.61 0.75 0.85 0.95 1.01 0.96 0.89 0.79 0.70 0.64 0.60 0.53 0.45 0.40 0.38 0.38 0.37 0.36 0.34 0.31
1.42 1.34 1.29 1.18 1.05 0.98 0.95 0.97 0.94 0.91 0.84 0.78 0.70 0.64 0.59 0.53 0.47 0.41 0.38 0.35 0.36 0.36 0.42 0.55 0.68 0.81 0.96 1.14 1.24 1.23 1.09 0.92 0.79 0.71 0.66 0.60 0.54 0.50 0.49 0.49 0.47 0.44 0.41
1.50 1.50 1.44 1.41 1.26 1.17 1.12 1.06 1.05 1.01 0.91 0.84 0.77 0.73 0.70 0.67 0.63 0.60 0.56 0.50 0.46 0.40 0.42 0.53 0.64 0.76 0.88 1.05 1.27 1.40 1.36 1.19 0.99 0.87 0.78 0.73 0.70 0.69 0.68 0.67 0.62 0.55 0.50
1.59 1.55 1.41 1.41 1.47 1.36 1.24 1.17 1.11 1.07 0.99 0.93 0.90 0.83 0.77 0.73 0.71 0.70 0.71 0.67 0.63 0.58 0.52 0.56 0.59 0.61 0.70 0.85 1.03 1.26 1.40 1.34 1.14 1.00 0.91 0.87 0.86 0.84 0.80 0.76 0.72 0.66 0.61
1.60 1.54 1.42 1.40 1.45 1.42 1.31 1.24 1.15 1.11 1.07 1.07 1.03 0.94 0.85 0.79 0.77 0.75 0.72 0.73 0.72 0.68 0.64 0.59 0.55 0.56 0.59 0.68 0.85 1.05 1.26 1.35 1.30 1.17 1.05 0.99 0.95 0.93 0.94 0.93 0.89 0.81 0.77
1.64 1.63 1.52 1.49 1.49 1.44 1.37 1.38 1.40 1.31 1.21 1.20 1.14 0.96 0.85 0.80 0.75 0.74 0.72 0.67 0.65 0.66 0.66 0.64 0.58 0.54 0.55 0.61 0.68 0.84 1.10 1.33 1.41 1.38 1.27 1.18 1.11 1.06 1.06 1.09 1.09 1.05 0.99
1.78 1.73 1.71 1.69 1.62 1.53 1.48 1.45 1.46 1.44 1.35 1.34 1.31 1.23 1.01 0.87 0.76 0.69 0.69 0.65 0.63 0.64 0.64 0.68 0.68 0.60 0.53 0.53 0.58 0.70 0.86 1.13 1.39 1.52 1.52 1.43 1.35 1.29 1.27 1.27 1.29 1.27 1.23
2.00 1.83 1.77 1.83 1.79 1.66 1.57 1.52 1.49 1.47 1.51 1.48 1.41 1.46 1.22 0.94 0.79 0.72 0.68 0.64 0.63 0.66 0.69 0.70 0.73 0.69 0.59 0.52 0.51 0.58 0.67 0.80 1.11 1.46 1.64 1.63 1.56 1.50 1.54 1.57 1.59 1.58 1.52
2.08 2.02 1.93 1.87 1.88 1.83 1.70 1.64 1.60 1.56 1.58 1.56 1.49 1.34 1.24 1.05 0.96 0.82 0.70 0.67 0.65 0.63 0.64 0.67 0.70 0.73 0.74 0.69 0.66 0.64 0.64 0.67 0.88 1.28 1.63 1.78 1.81 1.81 1.84 1.86 1.89 1.93 1.89
2.09 2.05 1.98 1.87 1.77 1.73 1.74 1.74 1.69 1.64 1.56 1.46 1.40 1.31 1.24 1.09 0.93 0.89 0.76 0.66 0.67 0.65 0.63 0.66 0.70 0.74 0.77 0.77 0.74 0.78 0.81 0.77 0.87 1.15 1.53 1.80 1.97 2.10 2.20 2.19 2.11 2.07 2.03
2.12 2.08 2.06 1.93 1.78 1.67 1.60 1.62 1.65 1.64 1.61 1.52 1.41 1.34 1.28 1.21 1.07 1.02 0.95 0.78 0.75 0.71 0.70 0.71 0.70 0.72 0.73 0.75 0.80 0.97 0.95 0.97 1.05 1.24 1.56 1.91 2.09 2.18 2.27 2.35 2.36 2.30 2.17
1.93 1.94 1.98 1.97 1.87 1.78 1.76 1.72 1.70 1.63 1.60 1.55 1.48 1.39 1.33 1.23 1.13 1.16 1.19 1.04 0.89 0.77 0.73 0.75 0.77 0.80 0.82 0.86 0.93 1.15 1.13 1.19 1.26 1.43 1.70 1.95 2.06 2.08 2.10 2.23 2.38 2.45 2.44
1.81 1.82 1.81 1.81 1.82 1.76 1.72 1.72 1.69 1.65 1.63 1.57 1.50 1.41 1.31 1.21 1.17 1.22 1.29 1.35 1.27 1.03 0.87 0.82 0.83 0.91 0.99 1.06 1.24 1.39 1.24 1.40 1.44 1.57 1.76 1.98 1.94 1.86 1.83 1.94 2.11 2.28 2.31
1.67 1.70 1.72 1.65 1.63 1.64 1.64 1.61 1.56 1.49 1.47 1.46 1.41 1.39 1.32 1.23 1.23 1.26 1.33 1.48 1.67 1.56 1.23 0.98 1.00 1.05 1.11 1.22 1.45 1.36 1.27 1.54 1.55 1.52 1.56 1.59 1.55 1.52 1.56 1.62 1.68 1.76 1.81
1.37 1.45 1.51 1.51 1.49 1.52 1.55 1.51 1.43 1.35 1.31 1.23 1.20 1.24 1.26 1.22 1.23 1.24 1.32 1.42 1.57 1.68 1.52 1.12 0.99 1.05 1.17 1.26 1.47 1.36 1.31 1.51 1.46 1.44 1.42 1.38 1.32 1.29 1.33 1.36 1.35 1.34 1.34
1.12 1.19 1.29 1.38 1.39 1.40 1.43 1.42 1.32 1.27 1.22 1.14 1.10 1.12 1.13 1.10 1.15 1.17 1.21 1.31 1.42 1.58 1.64 1.35 1.15 1.14 1.23 1.25 1.25 1.16 1.11 1.14 1.14 1.26 1.20 1.17 1.15 1.11 1.08 1.13 1.17 1.18 1.15
1.00 1.03 1.03 1.05 1.12 1.18 1.24 1.29 1.26 1.20 1.15 1.09 1.04 1.05 1.05 1.06 1.11 1.15 1.20 1.28 1.34 1.41 1.48 1.39 1.19 1.08 1.04 1.00 0.98 0.94 0.90 0.86 0.85 1.02 0.99 0.94 0.93 0.92 0.88 0.88 0.95 1.02 1.02
0.83 0.90 0.90 0.88 0.87 0.88 0.94 1.03 1.10 1.14 1.12 1.07 1.06 1.07 1.06 1.08 1.12 1.15 1.20 1.26 1.27 1.24 1.22 1.19 1.05 0.91 0.84 0.81 0.83 0.80 0.78 0.78 0.71 0.81 0.87 0.84 0.82 0.78 0.75 0.75 0.77 0.84 0.88
0.57 0.61 0.65 0.68 0.73 0.76 0.76 0.81 0.88 0.97 1.05 1.07 1.09 1.09 1.10 1.15 1.22 1.26 1.26 1.24 1.20 1.16 1.10 1.06 0.98 0.88 0.79 0.72 0.74 0.77 0.75 0.74 0.70 0.63 0.73 0.75 0.77 0.77 0.72 0.65 0.62 0.63 0.70
0.39 0.42 0.48 0.51 0.58 0.63 0.67 0.70 0.73 0.79 0.86 0.92 1.02 1.09 1.14 1.23 1.26 1.20 1.09 1.01 0.95 0.95 0.94 0.94 0.88 0.79 0.71 0.66 0.65 0.61 0.62 0.65 0.68 0.63 0.62 0.62 0.62 0.62 0.62 0.64 0.60 0.58 0.61
0.35 0.36 0.39 0.44 0.49 0.53 0.69 0.70 0.64 0.65 0.75 0.81 0.86 0.93 1.00 1.05 0.99 0.96 0.91 0.84 0.85 0.89 0.88 0.80 0.71 0.62 0.52 0.48 0.49 0.55 0.62 0.72 0.74 0.60 0.58 0.58 0.56 0.60 0.57 0.56 0.63 0.61 0.60
0.38 0.40 0.40 0.44 0.47 0.55 0.67 0.68 0.73 0.67 0.70 0.75 0.74 0.74 0.72 0.70 0.70 0.61 0.64 0.65 0.67 0.70 0.67 0.61 0.58 0.49 0.43 0.41 0.51 0.62 0.63 0.64 0.57 0.47 0.56 0.65 0.59 0.57 0.51 0.53 0.63 0.62 0.61
0.58 0.58 0.56 0.58 0.61 0.69 0.76 0.71 0.69 0.63 0.62 0.62 0.58 0.53 0.51 0.49 0.48 0.49 0.51 0.52 0.46 0.43 0.43 0.39 0.36 0.35 0.37 0.42 0.53 0.64 0.67 0.67 0.59 0.52 0.56 0.68 0.60 0.54 0.49 0.49 0.56 0.57 0.61
0.84 0.83 0.82 0.80 0.77 0.76 0.72 0.61 0.54 0.48 0.47 0.44 0.40 0.38 0.38 0.37 0.43 0.49 0.48 0.47 0.44 0.41 0.42 0.43 0.43 0.42 0.46 0.49 0.54 0.63 0.75 0.89 0.81 0.59 0.51 0.55 0.52 0.49 0.50 0.51 0.55 0.60 0.61
0.80 0.77 0.76 0.72 0.65 0.57 0.51 0.44 0.39 0.34 0.33 0.30 0.30 0.31 0.35 0.36 0.46 0.55 0.50 0.49 0.48 0.43 0.44 0.46 0.45 0.43 0.40 0.42 0.49 0.49 0.57 0.84 0.86 0.68 0.42 0.47 0.51 0.60 0.75 0.55 0.53 0.60 0.64

GEFSMA_prec_meanprecacc_240.txt.gz
Total_Precipitation_Accumulation
1.17 1.13 1.04 0.94 0.83 0.80 0.79 0.77 0.67 0.62 0.56 0.50 0.44 0.42 0.39 0.35 0.31 0.31 0.30 0.27 0.29 0.44 0.62 0.76 0.85 0.86 0.84 0.83 0.77 0.72 0.67 0.59 0.52 0.46 0.39 0.35 0.31 0.29 0.29 0.30 0.33 0.32 0.32
1.35 1.28 1.15 1.10 0.98 0.89 0.86 0.84 0.76 0.76 0.76 0.70 0.60 0.51 0.45 0.41 0.36 0.33 0.32 0.32 0.32 0.35 0.48 0.67 0.81 0.92 1.01 1.07 1.02 0.95 0.84 0.74 0.67 0.61 0.54 0.46 0.41 0.39 0.39 0.39 0.39 0.36 0.32
1.48 1.40 1.34 1.21 1.07 1.00 0.98 1.01 0.98 0.95 0.88 0.81 0.73 0.68 0.62 0.55 0.48 0.43 0.39 0.36 0.37 0.38 0.45 0.60 0.75 0.88 1.04 1.23 1.32 1.31 1.17 0.99 0.84 0.74 0.69 0.62 0.56 0.51 0.51 0.51 0.50 0.47 0.42
1.56 1.56 1.49 1.44 1.29 1.21 1.17 1.09 1.07 1.04 0.95 0.88 0.81 0.78 0.74 0.70 0.65 0.62 0.58 0.52 0.48 0.41 0.44 0.57 0.69 0.83 0.97 1.14 1.35 1.47 1.43 1.24 1.04 0.92 0.82 0.77 0.73 0.71 0.70 0.69 0.65 0.58 0.52
1.64 1.61 1.49 1.48 1.51 1.39 1.28 1.22 1.14 1.10 1.02 0.97 0.95 0.89 0.83 0.79 0.75 0.74 0.74 0.70 0.65 0.60 0.54 0.58 0.63 0.68 0.82 0.98 1.12 1.33 1.46 1.40 1.20 1.06 0.96 0.91 0.90 0.88 0.84 0.79 0.76 0.70 0.64
1.66 1.61 1.49 1.50 1.56 1.50 1.36 1.29 1.21 1.15 1.10 1.10 1.08 1.00 0.93 0.85 0.82 0.80 0.76 0.76 0.74 0.70 0.66 0.61 0.58 0.61 0.71 0.88 1.04 1.19 1.36 1.43 1.38 1.24 1.12 1.05 1.00 0.99 0.99 0.97 0.92 0.85 0.81
1.68 1.70 1.60 1.58 1.59 1.53 1.46 1.46 1.48 1.37 1.25 1.23 1.16 0.99 0.91 0.86 0.81 0.80 0.77 0.69 0.67 0.68 0.69 0.67 0.60 0.56 0.61 0.73 0.85 0.99 1.21 1.43 1.50 1.46 1.35 1.24 1.17 1.11 1.11 1.14 1.13 1.09 1.03
1.82 1.77 1.77 1.76 1.70 1.62 1.56 1.53 1.55 1.51 1.41 1.38 1.33 1.26 1.06 0.93 0.81 0.74 0.73 0.67 0.65 0.66 0.67 0.71 0.71 0.63 0.57 0.59 0.65 0.79 0.95 1.23 1.49 1.60 1.60 1.49 1.41 1.35 1.32 1.32 1.34 1.32 1.28
2.03 1.87 1.81 1.89 1.85 1.73 1.64 1.59 1.56 1.53 1.56 1.52 1.44 1.48 1.25 0.97 0.82 0.75 0.70 0.66 0.65 0.68 0.70 0.72 0.75 0.72 0.62 0.55 0.54 0.61 0.73 0.89 1.22 1.56 1.73 1.73 1.65 1.58 1.61 1.63 1.65 1.63 1.58
2.13 2.06 1.97 1.94 1.96 1.91 1.76 1.70 1.66 1.61 1.62 1.60 1.53 1.36 1.26 1.07 0.97 0.83 0.72 0.68 0.67 0.65 0.66 0.69 0.72 0.76 0.76 0.72 0.69 0.67 0.68 0.72 0.94 1.34 1.70 1.86 1.89 1.89 1.92 1.93 1.98 2.02 1.98
2.14 2.09 2.02 1.90 1.81 1.79 1.79 1.78 1.73 1.68 1.60 1.50 1.43 1.34 1.25 1.09 0.94 0.90 0.77 0.67 0.68 0.65 0.64 0.67 0.72 0.77 0.79 0.79 0.75 0.80 0.84 0.80 0.90 1.20 1.59 1.86 2.04 2.18 2.27 2.26 2.19 2.15 2.12
2.16 2.12 2.09 1.96 1.82 1.71 1.65 1.67 1.69 1.68 1.65 1.55 1.44 1.37 1.30 1.22 1.08 1.03 0.96 0.79 0.75 0.71 0.70 0.72 0.72 0.74 0.76 0.78 0.82 0.99 0.98 0.99 1.09 1.29 1.61 1.96 2.15 2.26 2.35 2.41 2.42 2.36 2.23
1.95 1.98 2.01 1.99 1.91 1.81 1.81 1.77 1.75 1.68 1.64 1.58 1.50 1.42 1.36 1.25 1.14 1.17 1.20 1.05 0.90 0.77 0.74 0.75 0.78 0.81 0.84 0.88 0.95 1.17 1.15 1.21 1.28 1.46 1.73 1.99 2.10 2.13 2.17 2.31 2.45 2.51 2.49
1.83 1.85 1.85 1.84 1.85 1.79 1.76 1.76 1.74 1.70 1.68 1.62 1.53 1.43 1.33 1.23 1.19 1.23 1.30 1.37 1.28 1.04 0.88 0.82 0.84 0.92 1.00 1.08 1.26 1.41 1.26 1.42 1.46 1.58 1.78 2.00 1.97 1.89 1.86 2.00 2.20 2.35 2.37
1.69 1.72 1.75 1.68 1.66 1.67 1.67 1.65 1.60 1.52 1.52 1.51 1.45 1.42 1.34 1.25 1.24 1.27 1.33 1.49 1.68 1.58 1.24 0.99 1.00 1.05 1.12 1.24 1.47 1.38 1.29 1.56 1.56 1.53 1.58 1.61 1.57 1.54 1.59 1.66 1.75 1.85 1.89
1.39 1.46 1.53 1.54 1.52 1.55 1.58 1.55 1.47 1.39 1.35 1.28 1.25 1.29 1.29 1.25 1.25 1.26 1.33 1.43 1.57 1.68 1.53 1.12 1.00 1.06 1.18 1.27 1.49 1.37 1.32 1.53 1.48 1.46 1.45 1.41 1.35 1.31 1.34 1.39 1.40 1.41 1.43
1.14 1.21 1.30 1.39 1.41 1.43 1.46 1.46 1.37 1.32 1.26 1.18 1.14 1.17 1.17 1.13 1.18 1.19 1.23 1.32 1.43 1.58 1.64 1.35 1.15 1.15 1.23 1.25 1.26 1.17 1.13 1.15 1.15 1.27 1.22 1.18 1.18 1.14 1.12 1.16 1.22 1.23 1.19
1.03 1.05 1.05 1.06 1.14 1.21 1.28 1.33 1.30 1.25 1.20 1.13 1.08 1.10 1.10 1.10 1.15 1.18 1.23 1.30 1.35 1.42 1.49 1.40 1.19 1.09 1.04 1.01 0.99 0.95 0.91 0.87 0.86 1.03 1.01 0.96 0.95 0.94 0.90 0.90 0.99 1.05 1.05
0.86 0.92 0.92 0.90 0.89 0.90 0.97 1.07 1.14 1.18 1.16 1.11 1.11 1.11 1.10 1.12 1.17 1.19 1.23 1.28 1.28 1.25 1.23 1.20 1.06 0.91 0.84 0.81 0.84 0.81 0.79 0.79 0.72 0.83 0.88 0.86 0.84 0.80 0.77 0.76 0.80 0.86 0.90
0.59 0.64 0.68 0.71 0.76 0.78 0.79 0.84 0.92 1.02 1.10 1.12 1.14 1.14 1.14 1.18 1.25 1.29 1.29 1.26 1.22 1.18 1.11 1.07 0.99 0.89 0.80 0.73 0.75 0.78 0.76 0.75 0.71 0.64 0.74 0.76 0.78 0.79 0.74 0.67 0.63 0.65 0.72
0.42 0.45 0.51 0.55 0.61 0.65 0.70 0.74 0.77 0.83 0.91 0.98 1.08 1.15 1.18 1.27 1.30 1.23 1.11 1.03 0.97 0.96 0.95 0.95 0.89 0.80 0.72 0.67 0.67 0.62 0.63 0.66 0.69 0.64 0.63 0.63 0.64 0.64 0.65 0.67 0.63 0.61 0.63
0.38 0.39 0.43 0.46 0.52 0.56 0.72 0.75 0.68 0.68 0.78 0.86 0.92 0.98 1.05 1.10 1.03 1.00 0.93 0.86 0.87 0.90 0.89 0.81 0.71 0.62 0.53 0.48 0.49 0.56 0.63 0.73 0.76 0.62 0.61 0.60 0.59 0.63 0.59 0.59 0.67 0.66 0.64
0.41 0.44 0.44 0.47 0.49 0.57 0.70 0.71 0.77 0.70 0.73 0.78 0.79 0.80 0.77 0.75 0.74 0.63 0.67 0.68 0.69 0.72 0.68 0.62 0.59 0.49 0.43 0.41 0.52 0.63 0.64 0.65 0.59 0.49 0.59 0.69 0.62 0.60 0.54 0.56 0.67 0.66 0.66
0.60 0.60 0.59 0.61 0.64 0.72 0.79 0.74 0.73 0.66 0.65 0.64 0.60 0.58 0.55 0.53 0.52 0.52 0.54 0.55 0.48 0.45 0.44 0.40 0.37 0.35 0.37 0.43 0.54 0.66 0.69 0.70 0.61 0.54 0.58 0.72 0.63 0.57 0.52 0.51 0.59 0.61 0.65
0.86 0.86 0.85 0.82 0.80 0.78 0.75 0.64 0.57 0.51 0.50 0.46 0.43 0.41 0.41 0.40 0.46 0.52 0.51 0.49 0.46 0.43 0.44 0.45 0.45 0.44 0.48 0.51 0.55 0.65 0.77 0.91 0.83 0.61 0.52 0.56 0.54 0.51 0.52 0.54 0.57 0.63 0.63
0.82 0.79 0.78 0.73 0.67 0.58 0.53 0.47 0.42 0.36 0.36 0.33 0.32 0.33 0.38 0.40 0.49 0.58 0.53 0.51 0.51 0.45 0.45 0.48 0.46 0.45 0.42 0.43 0.51 0.50 0.59 0.87 0.89 0.70 0.43 0.48 0.52 0.62 0.76 0.57 0.55 0.62 0.65

GEFSMA_prec_meanprecacc_246.txt.gz
Total_Precipitation_Accumulation
1.21 1.20 1.10 1.00 0.89 0.85 0.85 0.83 0.71 0.64 0.58 0.52 0.48 0.44 0.40 0.35 0.32 0.31 0.31 0.28 0.32 0.48 0.67 0.81 0.90 0.91 0.88 0.88 0.81 0.76 0.71 0.62 0.54 0.47 0.41 0.36 0.33 0.30 0.30 0.31 0.35 0.34 0.34
1.38 1.31 1.23 1.19 1.07 0.97 0.93 0.91 0.80 0.79 0.77 0.72 0.62 0.54 0.47 0.42 0.36 0.33 0.32 0.33 0.33 0.37 0.51 0.71 0.86 0.96 1.06 1.13 1.08 1.00 0.88 0.78 0.71 0.63 0.55 0.47 0.42 0.40 0.40 0.40 0.40 0.38 0.34
1.51 1.43 1.38 1.26 1.13 1.07 1.05 1.06 1.02 0.98 0.91 0.84 0.75 0.70 0.64 0.57 0.49 0.43 0.40 0.37 0.38 0.39 0.46 0.62 0.78 0.92 1.09 1.28 1.39 1.37 1.22 1.04 0.89 0.77 0.71 0.64 0.57 0.51 0.52 0.52 0.52 0.49 0.45
1.59 1.58 1.53 1.48 1.31 1.23 1.21 1.13 1.11 1.07 0.97 0.90 0.83 0.80 0.77 0.72 0.66 0.63 0.59 0.54 0.50 0.43 0.45 0.58 0.72 0.86 1.01 1.19 1.41 1.53 1.49 1.29 1.08 0.95 0.86 0.81 0.76 0.73 0.71 0.70 0.68 0.61 0.55
1.67 1.63 1.51 1.51 1.54 1.42 1.31 1.26 1.18 1.13 1.04 0.99 0.97 0.91 0.86 0.84 0.78 0.76 0.76 0.72 0.68 0.62 0.55 0.60 0.64 0.70 0.86 1.03 1.18 1.40 1.53 1.45 1.25 1.10 1.02 0.97 0.95 0.93 0.87 0.81 0.79 0.73 0.68
1.67 1.63 1.52 1.53 1.59 1.54 1.40 1.32 1.25 1.21 1.14 1.13 1.11 1.04 0.97 0.94 0.90 0.85 0.81 0.80 0.78 0.74 0.69 0.63 0.60 0.63 0.74 0.93 1.12 1.30 1.46 1.53 1.45 1.30 1.18 1.10 1.06 1.04 1.03 1.01 0.95 0.88 0.84
1.70 1.72 1.62 1.62 1.63 1.58 1.51 1.50 1.50 1.42 1.32 1.29 1.21 1.03 0.96 0.98 0.93 0.86 0.81 0.73 0.70 0.71 0.71 0.70 0.63 0.59 0.64 0.79 0.96 1.14 1.40 1.60 1.62 1.55 1.42 1.30 1.21 1.15 1.16 1.20 1.19 1.14 1.07
1.84 1.79 1.80 1.80 1.75 1.67 1.61 1.58 1.59 1.56 1.46 1.45 1.41 1.32 1.10 1.01 0.93 0.82 0.77 0.71 0.67 0.68 0.68 0.73 0.73 0.65 0.59 0.63 0.72 0.87 1.07 1.37 1.64 1.73 1.70 1.55 1.45 1.37 1.36 1.37 1.39 1.37 1.32
2.05 1.90 1.85 1.93 1.90 1.78 1.69 1.64 1.60 1.57 1.60 1.58 1.51 1.55 1.31 1.03 0.89 0.82 0.75 0.69 0.67 0.69 0.71 0.73 0.76 0.73 0.64 0.58 0.59 0.66 0.78 0.97 1.34 1.71 1.87 1.82 1.70 1.62 1.65 1.67 1.68 1.66 1.61
2.15 2.08 2.00 1.99 2.02 1.97 1.81 1.76 1.72 1.66 1.67 1.65 1.59 1.42 1.31 1.11 1.02 0.89 0.76 0.71 0.69 0.66 0.67 0.70 0.73 0.77 0.77 0.74 0.72 0.71 0.72 0.77 1.01 1.44 1.83 1.95 1.95 1.93 1.95 1.96 2.00 2.05 2.01
2.16 2.13 2.06 1.95 1.87 1.86 1.88 1.86 1.79 1.74 1.66 1.55 1.48 1.39 1.31 1.14 0.98 0.95 0.81 0.69 0.70 0.67 0.65 0.68 0.73 0.77 0.80 0.80 0.77 0.83 0.87 0.83 0.96 1.28 1.68 1.93 2.08 2.22 2.31 2.29 2.23 2.18 2.15
2.17 2.14 2.13 2.01 1.87 1.77 1.72 1.74 1.76 1.74 1.70 1.61 1.49 1.41 1.35 1.28 1.13 1.08 1.00 0.81 0.77 0.73 0.72 0.73 0.72 0.74 0.76 0.79 0.82 1.00 0.99 1.02 1.12 1.34 1.68 2.01 2.19 2.30 2.40 2.46 2.47 2.40 2.27
1.97 2.00 2.04 2.03 1.95 1.86 1.87 1.83 1.81 1.73 1.69 1.64 1.56 1.46 1.40 1.29 1.18 1.20 1.24 1.08 0.92 0.78 0.75 0.77 0.79 0.82 0.84 0.89 0.96 1.18 1.16 1.22 1.30 1.49 1.77 2.03 2.13 2.16 2.20 2.35 2.50 2.56 2.56
1.84 1.86 1.87 1.87 1.89 1.83 1.81 1.82 1.79 1.75 1.73 1.67 1.59 1.48 1.38 1.27 1.23 1.27 1.35 1.41 1.33 1.07 0.90 0.84 0.86 0.93 1.01 1.08 1.27 1.42 1.27 1.43 1.47 1.59 1.80 2.03 2.00 1.92 1.89 2.02 2.24 2.40 2.44
1.71 1.73 1.76 1.70 1.69 1.70 1.71 1.70 1.65 1.57 1.56 1.55 1.51 1.48 1.39 1.28 1.28 1.30 1.37 1.53 1.73 1.62 1.27 1.01 1.02 1.07 1.13 1.24 1.48 1.39 1.30 1.57 1.57 1.54 1.59 1.62 1.58 1.56 1.60 1.68 1.77 1.88 1.95
1.39 1.47 1.54 1.55 1.54 1.59 1.62 1.59 1.51 1.42 1.38 1.32 1.30 1.33 1.34 1.28 1.28 1.29 1.36 1.45 1.60 1.71 1.55 1.14 1.01 1.07 1.20 1.28 1.50 1.38 1.33 1.54 1.48 1.47 1.45 1.42 1.36 1.32 1.35 1.40 1.41 1.42 1.45
1.15 1.22 1.31 1.41 1.43 1.46 1.50 1.49 1.41 1.37 1.30 1.21 1.18 1.21 1.21 1.16 1.20 1.22 1.26 1.35 1.46 1.61 1.66 1.36 1.16 1.15 1.24 1.27 1.28 1.18 1.14 1.16 1.16 1.28 1.22 1.19 1.18 1.15 1.13 1.17 1.23 1.24 1.20
1.04 1.06 1.06 1.07 1.15 1.23 1.31 1.36 1.33 1.29 1.24 1.17 1.11 1.13 1.14 1.14 1.18 1.20 1.26 1.33 1.39 1.45 1.51 1.41 1.20 1.09 1.05 1.02 1.00 0.96 0.92 0.88 0.86 1.04 1.02 0.97 0.96 0.95 0.91 0.91 1.00 1.07 1.06
0.87 0.94 0.94 0.92 0.90 0.91 1.00 1.11 1.18 1.21 1.20 1.15 1.15 1.14 1.12 1.16 1.19 1.21 1.25 1.31 1.31 1.28 1.26 1.22 1.07 0.92 0.85 0.82 0.85 0.83 0.80 0.80 0.73 0.83 0.89 0.86 0.84 0.81 0.78 0.77 0.81 0.87 0.91
0.61 0.65 0.70 0.72 0.77 0.79 0.80 0.86 0.96 1.06 1.14 1.16 1.18 1.18 1.17 1.21 1.28 1.31 1.31 1.29 1.24 1.21 1.14 1.10 1.02 0.91 0.81 0.73 0.76 0.79 0.78 0.76 0.72 0.64 0.74 0.77 0.79 0.80 0.75 0.68 0.64 0.65 0.72
0.43 0.46 0.52 0.56 0.62 0.67 0.72 0.77 0.79 0.86 0.95 1.02 1.12 1.19 1.22 1.30 1.33 1.25 1.13 1.05 0.99 0.99 0.98 0.98 0.91 0.82 0.74 0.68 0.67 0.63 0.64 0.67 0.70 0.64 0.63 0.64 0.64 0.65 0.66 0.68 0.64 0.61 0.64
0.39 0.41 0.44 0.49 0.55 0.59 0.76 0.79 0.72 0.71 0.81 0.90 0.96 1.03 1.10 1.15 1.07 1.02 0.95 0.88 0.89 0.93 0.92 0.83 0.74 0.64 0.54 0.49 0.50 0.56 0.64 0.74 0.77 0.63 0.61 0.61 0.59 0.64 0.60 0.60 0.68 0.67 0.65
0.43 0.45 0.46 0.49 0.52 0.60 0.74 0.76 0.82 0.74 0.76 0.81 0.83 0.84 0.82 0.79 0.79 0.67 0.69 0.70 0.71 0.74 0.71 0.64 0.61 0.51 0.44 0.42 0.53 0.63 0.64 0.66 0.59 0.49 0.59 0.69 0.63 0.61 0.55 0.57 0.68 0.67 0.67
0.61 0.62 0.61 0.63 0.67 0.74 0.82 0.77 0.77 0.71 0.69 0.67 0.64 0.62 0.61 0.58 0.57 0.57 0.57 0.57 0.51 0.47 0.46 0.42 0.39 0.37 0.38 0.44 0.55 0.67 0.69 0.70 0.62 0.54 0.58 0.72 0.64 0.58 0.52 0.52 0.60 0.62 0.67
0.87 0.87 0.87 0.84 0.82 0.81 0.78 0.66 0.60 0.55 0.54 0.50 0.46 0.45 0.47 0.46 0.51 0.59 0.56 0.53 0.49 0.45 0.46 0.48 0.48 0.47 0.50 0.54 0.58 0.66 0.79 0.92 0.85 0.62 0.52 0.57 0.54 0.51 0.53 0.54 0.58 0.65 0.66
0.84 0.81 0.80 0.76 0.69 0.60 0.56 0.49 0.45 0.40 0.40 0.37 0.37 0.38 0.44 0.46 0.55 0.63 0.59 0.56 0.54 0.48 0.48 0.50 0.49 0.47 0.45 0.46 0.53 0.52 0.60 0.88 0.90 0.71 0.44 0.48 0.52 0.62 0.77 0.58 0.56 0.64 0.67

GEFSMA_prec_meanprecacc_252.txt.gz
Total_Precipitation_Accumulation
1.25 1.23 1.12 1.03 0.94 0.91 0.91 0.89 0.78 0.68 0.61 0.55 0.50 0.48 0.43 0.37 0.33 0.33 0.33 0.29 0.33 0.51 0.70 0.85 0.94 0.94 0.92 0.91 0.84 0.80 0.74 0.66 0.58 0.50 0.43 0.38 0.34 0.31 0.31 0.32 0.35 0.34 0.35
1.40 1.34 1.26 1.22 1.10 1.03 1.00 0.98 0.89 0.88 0.85 0.76 0.65 0.56 0.50 0.44 0.38 0.35 0.34 0.34 0.34 0.39 0.53 0.74 0.90 1.00 1.10 1.17 1.12 1.04 0.93 0.82 0.75 0.67 0.58 0.49 0.43 0.41 0.41 0.41 0.41 0.38 0.35
1.53 1.44 1.40 1.28 1.14 1.10 1.11 1.14 1.11 1.09 1.01 0.90 0.79 0.73 0.66 0.59 0.52 0.45 0.41 0.39 0.39 0.40 0.47 0.64 0.81 0.95 1.13 1.34 1.45 1.42 1.26 1.08 0.92 0.80 0.74 0.66 0.59 0.53 0.53 0.54 0.53 0.50 0.46
1.61 1.60 1.55 1.50 1.33 1.25 1.24 1.19 1.19 1.17 1.05 0.96 0.87 0.83 0.79 0.74 0.68 0.65 0.61 0.56 0.51 0.43 0.46 0.59 0.73 0.88 1.04 1.24 1.48 1.59 1.54 1.32 1.10 0.98 0.88 0.83 0.78 0.75 0.73 0.72 0.69 0.62 0.56
1.69 1.65 1.53 1.53 1.57 1.44 1.33 1.29 1.23 1.20 1.12 1.05 1.00 0.94 0.89 0.86 0.81 0.78 0.78 0.74 0.70 0.64 0.57 0.60 0.65 0.71 0.87 1.06 1.24 1.48 1.59 1.49 1.28 1.13 1.04 1.00 0.98 0.96 0.90 0.84 0.81 0.74 0.69
1.70 1.65 1.53 1.54 1.61 1.56 1.42 1.34 1.28 1.25 1.20 1.20 1.17 1.07 0.99 0.96 0.93 0.88 0.82 0.81 0.80 0.76 0.70 0.64 0.61 0.64 0.75 0.94 1.14 1.35 1.53 1.58 1.49 1.33 1.21 1.13 1.09 1.07 1.06 1.03 0.97 0.90 0.86
1.74 1.75 1.65 1.63 1.65 1.60 1.53 1.53 1.53 1.45 1.36 1.35 1.28 1.09 0.99 1.01 0.96 0.90 0.85 0.75 0.71 0.72 0.72 0.71 0.64 0.60 0.65 0.81 0.98 1.17 1.44 1.66 1.67 1.59 1.46 1.34 1.26 1.19 1.19 1.22 1.22 1.18 1.12
1.88 1.83 1.83 1.83 1.77 1.69 1.63 1.60 1.61 1.58 1.50 1.50 1.47 1.37 1.15 1.07 0.98 0.86 0.82 0.74 0.70 0.69 0.69 0.74 0.75 0.67 0.60 0.64 0.74 0.91 1.12 1.44 1.73 1.83 1.80 1.66 1.55 1.47 1.43 1.41 1.42 1.41 1.37
2.10 1.95 1.89 1.96 1.93 1.80 1.71 1.66 1.63 1.60 1.63 1.62 1.56 1.60 1.35 1.06 0.94 0.88 0.79 0.73 0.71 0.73 0.73 0.74 0.77 0.75 0.66 0.59 0.60 0.69 0.84 1.03 1.40 1.80 1.99 1.96 1.85 1.76 1.75 1.72 1.71 1.68 1.63
2.19 2.12 2.05 2.04 2.06 2.00 1.84 1.79 1.75 1.70 1.71 1.69 1.64 1.47 1.35 1.14 1.04 0.92 0.81 0.76 0.73 0.70 0.70 0.72 0.74 0.78 0.79 0.75 0.74 0.73 0.74 0.80 1.05 1.49 1.90 2.05 2.07 2.03 2.03 2.02 2.05 2.08 2.03
2.21 2.17 2.09 1.99 1.92 1.91 1.92 1.90 1.83 1.78 1.70 1.59 1.53 1.43 1.35 1.18 1.01 0.97 0.84 0.74 0.75 0.71 0.69 0.71 0.75 0.79 0.82 0.81 0.79 0.85 0.89 0.86 0.99 1.32 1.73 2.02 2.20 2.31 2.37 2.34 2.26 2.21 2.17
2.23 2.19 2.17 2.05 1.90 1.81 1.77 1.79 1.82 1.79 1.75 1.66 1.54 1.46 1.39 1.31 1.15 1.10 1.04 0.85 0.81 0.77 0.76 0.77 0.75 0.76 0.78 0.81 0.85 1.02 1.01 1.04 1.15 1.39 1.75 2.11 2.29 2.38 2.47 2.51 2.51 2.43 2.29
2.02 2.04 2.08 2.07 1.98 1.89 1.91 1.88 1.86 1.79 1.75 1.69 1.61 1.51 1.44 1.33 1.22 1.24 1.27 1.13 0.96 0.83 0.79 0.80 0.83 0.85 0.86 0.91 0.99 1.20 1.18 1.24 1.32 1.52 1.84 2.10 2.19 2.20 2.24 2.39 2.53 2.59 2.58
1.90 1.91 1.90 1.90 1.92 1.86 1.84 1.85 1.84 1.81 1.79 1.73 1.65 1.54 1.44 1.32 1.27 1.32 1.39 1.46 1.38 1.12 0.94 0.87 0.89 0.96 1.03 1.10 1.29 1.44 1.29 1.44 1.48 1.62 1.84 2.08 2.04 1.95 1.92 2.05 2.26 2.42 2.45
1.78 1.79 1.80 1.73 1.72 1.73 1.74 1.73 1.68 1.61 1.62 1.62 1.56 1.53 1.45 1.35 1.34 1.36 1.42 1.58 1.77 1.67 1.33 1.06 1.05 1.10 1.16 1.26 1.49 1.40 1.31 1.58 1.59 1.56 1.61 1.65 1.61 1.58 1.63 1.70 1.79 1.91 1.97
1.45 1.52 1.58 1.58 1.57 1.61 1.65 1.63 1.54 1.45 1.42 1.37 1.36 1.39 1.40 1.34 1.34 1.35 1.41 1.51 1.65 1.76 1.60 1.18 1.04 1.10 1.23 1.31 1.52 1.39 1.33 1.55 1.50 1.49 1.47 1.43 1.37 1.34 1.37 1.42 1.43 1.44 1.47
1.18 1.25 1.35 1.44 1.46 1.48 1.52 1.52 1.44 1.40 1.33 1.25 1.23 1.27 1.27 1.22 1.27 1.28 1.30 1.39 1.50 1.66 1.70 1.39 1.18 1.18 1.27 1.29 1.29 1.20 1.14 1.17 1.18 1.31 1.24 1.20 1.19 1.16 1.14 1.18 1.24 1.26 1.23
1.08 1.09 1.08 1.10 1.19 1.26 1.34 1.38 1.35 1.31 1.27 1.20 1.15 1.18 1.21 1.21 1.24 1.26 1.31 1.36 1.42 1.49 1.55 1.44 1.22 1.12 1.08 1.04 1.01 0.98 0.93 0.89 0.88 1.07 1.04 0.99 0.97 0.96 0.92 0.93 1.01 1.08 1.07
0.92 0.97 0.96 0.94 0.93 0.95 1.03 1.14 1.20 1.23 1.22 1.18 1.19 1.18 1.17 1.22 1.26 1.27 1.31 1.35 1.34 1.31 1.29 1.25 1.10 0.94 0.87 0.85 0.88 0.85 0.82 0.81 0.75 0.85 0.91 0.88 0.86 0.82 0.79 0.79 0.82 0.88 0.91
0.64 0.69 0.73 0.75 0.80 0.81 0.83 0.90 0.99 1.08 1.16 1.19 1.22 1.22 1.21 1.26 1.35 1.38 1.36 1.33 1.28 1.23 1.17 1.13 1.04 0.94 0.83 0.76 0.79 0.82 0.81 0.79 0.74 0.67 0.76 0.79 0.80 0.82 0.76 0.69 0.65 0.66 0.73
0.46 0.49 0.55 0.59 0.64 0.69 0.74 0.79 0.81 0.88 0.97 1.05 1.15 1.23 1.27 1.36 1.39 1.33 1.19 1.09 1.03 1.02 1.01 1.00 0.94 0.84 0.77 0.71 0.71 0.66 0.67 0.70 0.73 0.67 0.65 0.66 0.66 0.66 0.67 0.69 0.65 0.62 0.65
0.42 0.44 0.48 0.52 0.58 0.61 0.78 0.81 0.75 0.74 0.84 0.93 0.99 1.06 1.14 1.20 1.12 1.08 1.01 0.93 0.93 0.97 0.96 0.87 0.76 0.65 0.56 0.51 0.52 0.59 0.66 0.77 0.80 0.66 0.63 0.62 0.61 0.65 0.61 0.60 0.69 0.67 0.65
0.46 0.49 0.50 0.53 0.56 0.64 0.78 0.80 0.86 0.78 0.80 0.84 0.86 0.88 0.86 0.84 0.85 0.73 0.75 0.75 0.75 0.78 0.75 0.68 0.64 0.52 0.46 0.43 0.54 0.65 0.67 0.69 0.62 0.51 0.61 0.71 0.64 0.62 0.56 0.57 0.69 0.68 0.68
0.64 0.64 0.64 0.66 0.70 0.78 0.87 0.82 0.82 0.76 0.73 0.71 0.67 0.66 0.65 0.62 0.62 0.65 0.64 0.63 0.55 0.50 0.49 0.45 0.41 0.38 0.40 0.46 0.57 0.69 0.72 0.74 0.65 0.56 0.59 0.74 0.65 0.59 0.53 0.53 0.61 0.63 0.68
0.89 0.89 0.88 0.86 0.85 0.84 0.82 0.71 0.65 0.60 0.59 0.54 0.50 0.49 0.51 0.50 0.56 0.65 0.64 0.60 0.55 0.49 0.49 0.51 0.51 0.50 0.54 0.56 0.60 0.69 0.82 0.95 0.89 0.65 0.55 0.59 0.56 0.52 0.54 0.56 0.59 0.65 0.66
0.85 0.82 0.81 0.77 0.71 0.63 0.59 0.53 0.49 0.45 0.45 0.42 0.40 0.42 0.50 0.51 0.60 0.69 0.67 0.64 0.61 0.53 0.51 0.53 0.52 0.51 0.48 0.50 0.56 0.54 0.63 0.91 0.93 0.74 0.47 0.50 0.54 0.64 0.79 0.59 0.57 0.64 0.68

GEFSMA_prec_meanprecacc_258.txt.gz
Total_Precipitation_Accumulation
1.26 1.25 1.14 1.04 0.96 0.96 0.96 0.93 0.81 0.70 0.64 0.56 0.51 0.49 0.44 0.38 0.34 0.34 0.33 0.30 0.35 0.52 0.72 0.87 0.97 0.99 0.94 0.93 0.88 0.83 0.78 0.68 0.59 0.52 0.44 0.39 0.36 0.33 0.34 0.34 0.37 0.36 0.36
1.43 1.36 1.28 1.24 1.12 1.05 1.04 1.03 0.94 0.93 0.89 0.80 0.68 0.58 0.52 0.45 0.40 0.36 0.35 0.34 0.35 0.40 0.55 0.76 0.93 1.05 1.14 1.20 1.15 1.07 0.95 0.84 0.77 0.69 0.60 0.50 0.45 0.43 0.44 0.43 0.43 0.40 0.37
1.56 1.47 1.42 1.30 1.16 1.11 1.13 1.17 1.16 1.14 1.07 0.97 0.84 0.77 0.69 0.62 0.54 0.46 0.42 0.39 0.39 0.41 0.48 0.66 0.83 0.99 1.18 1.39 1.49 1.45 1.29 1.11 0.95 0.82 0.76 0.68 0.61 0.55 0.56 0.57 0.56 0.52 0.48
1.65 1.64 1.58 1.52 1.35 1.27 1.26 1.21 1.21 1.20 1.11 1.04 0.96 0.91 0.84 0.78 0.71 0.67 0.63 0.57 0.52 0.44 0.47 0.60 0.74 0.91 1.08 1.29 1.54 1.64 1.58 1.35 1.13 1.00 0.90 0.85 0.80 0.77 0.75 0.74 0.73 0.65 0.58
1.75 1.70 1.58 1.57 1.60 1.47 1.35 1.31 1.25 1.22 1.16 1.11 1.08 1.03 0.97 0.93 0.85 0.81 0.80 0.76 0.71 0.65 0.57 0.61 0.66 0.73 0.91 1.12 1.30 1.54 1.62 1.51 1.29 1.14 1.06 1.01 1.00 0.98 0.93 0.86 0.83 0.77 0.72
1.77 1.71 1.59 1.60 1.66 1.61 1.46 1.37 1.29 1.27 1.23 1.25 1.23 1.15 1.08 1.03 1.00 0.93 0.85 0.83 0.82 0.78 0.72 0.65 0.62 0.65 0.77 0.99 1.19 1.40 1.57 1.60 1.51 1.35 1.23 1.16 1.11 1.10 1.10 1.06 1.00 0.92 0.88
1.81 1.82 1.71 1.69 1.71 1.67 1.58 1.56 1.55 1.47 1.38 1.38 1.34 1.15 1.07 1.07 1.02 0.96 0.89 0.78 0.73 0.75 0.76 0.74 0.66 0.61 0.66 0.82 1.02 1.23 1.50 1.70 1.70 1.62 1.48 1.37 1.29 1.23 1.24 1.27 1.26 1.22 1.14
1.96 1.91 1.90 1.90 1.83 1.76 1.71 1.66 1.65 1.61 1.52 1.52 1.51 1.43 1.22 1.15 1.05 0.92 0.87 0.77 0.73 0.71 0.72 0.78 0.79 0.69 0.61 0.65 0.75 0.94 1.18 1.50 1.77 1.86 1.82 1.68 1.57 1.49 1.48 1.47 1.47 1.46 1.41
2.18 2.03 1.96 2.02 2.00 1.88 1.79 1.72 1.67 1.63 1.66 1.64 1.58 1.65 1.41 1.14 1.03 0.97 0.88 0.78 0.75 0.76 0.75 0.76 0.81 0.79 0.69 0.61 0.61 0.70 0.87 1.09 1.46 1.85 2.02 1.99 1.88 1.82 1.84 1.82 1.81 1.78 1.72
2.29 2.23 2.16 2.12 2.12 2.07 1.92 1.85 1.79 1.72 1.73 1.72 1.65 1.49 1.40 1.21 1.12 1.00 0.90 0.84 0.79 0.75 0.74 0.74 0.77 0.81 0.82 0.78 0.76 0.75 0.76 0.84 1.12 1.55 1.94 2.09 2.09 2.07 2.09 2.09 2.14 2.19 2.15
2.28 2.25 2.19 2.10 2.03 1.99 2.00 1.99 1.88 1.82 1.73 1.62 1.55 1.45 1.38 1.22 1.07 1.04 0.91 0.79 0.79 0.76 0.74 0.74 0.78 0.82 0.86 0.85 0.82 0.88 0.92 0.89 1.04 1.37 1.79 2.06 2.23 2.35 2.42 2.38 2.31 2.27 2.25
2.28 2.24 2.24 2.13 2.01 1.93 1.88 1.89 1.90 1.84 1.79 1.68 1.56 1.48 1.42 1.34 1.19 1.16 1.10 0.90 0.84 0.79 0.78 0.79 0.78 0.79 0.81 0.85 0.88 1.07 1.05 1.07 1.19 1.44 1.81 2.15 2.33 2.43 2.52 2.56 2.56 2.47 2.33
2.09 2.10 2.13 2.14 2.07 1.99 2.01 1.99 1.98 1.88 1.82 1.74 1.63 1.53 1.47 1.36 1.25 1.28 1.32 1.19 1.01 0.85 0.80 0.82 0.85 0.87 0.89 0.94 1.03 1.24 1.22 1.28 1.35 1.56 1.89 2.16 2.24 2.26 2.29 2.43 2.57 2.62 2.61
1.95 1.98 1.97 1.97 1.99 1.94 1.93 1.94 1.93 1.92 1.88 1.80 1.70 1.57 1.47 1.35 1.31 1.37 1.44 1.51 1.44 1.16 0.96 0.89 0.91 0.99 1.07 1.14 1.33 1.48 1.31 1.47 1.51 1.65 1.88 2.14 2.10 2.00 1.96 2.09 2.29 2.45 2.47
1.83 1.84 1.86 1.78 1.78 1.80 1.81 1.80 1.76 1.69 1.71 1.70 1.63 1.59 1.49 1.39 1.39 1.41 1.47 1.63 1.83 1.73 1.36 1.07 1.07 1.13 1.18 1.29 1.53 1.44 1.34 1.61 1.61 1.59 1.64 1.69 1.66 1.63 1.66 1.73 1.82 1.93 1.99
1.51 1.59 1.64 1.64 1.62 1.66 1.70 1.68 1.60 1.52 1.48 1.44 1.43 1.46 1.46 1.39 1.39 1.40 1.47 1.57 1.71 1.81 1.64 1.20 1.07 1.13 1.25 1.34 1.55 1.42 1.37 1.59 1.53 1.51 1.50 1.46 1.41 1.38 1.41 1.45 1.46 1.47 1.49
1.25 1.32 1.42 1.50 1.51 1.53 1.57 1.56 1.49 1.45 1.39 1.31 1.29 1.33 1.34 1.29 1.33 1.33 1.36 1.46 1.57 1.71 1.74 1.42 1.20 1.20 1.30 1.32 1.33 1.23 1.18 1.20 1.21 1.34 1.27 1.23 1.23 1.20 1.18 1.22 1.28 1.28 1.25
1.12 1.15 1.14 1.16 1.25 1.31 1.38 1.43 1.39 1.35 1.32 1.25 1.20 1.24 1.26 1.26 1.30 1.31 1.35 1.42 1.47 1.54 1.60 1.48 1.26 1.15 1.11 1.07 1.05 1.02 0.96 0.92 0.91 1.10 1.07 1.02 1.01 1.00 0.96 0.96 1.05 1.11 1.09
0.95 1.01 1.01 1.00 0.98 1.00 1.07 1.18 1.25 1.28 1.26 1.23 1.23 1.23 1.23 1.28 1.31 1.32 1.36 1.40 1.39 1.35 1.33 1.30 1.14 0.98 0.91 0.89 0.92 0.89 0.87 0.85 0.78 0.89 0.95 0.93 0.90 0.86 0.84 0.83 0.85 0.91 0.95
0.67 0.73 0.78 0.80 0.84 0.86 0.87 0.93 1.02 1.12 1.20 1.23 1.26 1.27 1.26 1.32 1.40 1.42 1.41 1.39 1.34 1.29 1.22 1.16 1.08 0.98 0.88 0.81 0.84 0.87 0.86 0.83 0.78 0.70 0.80 0.82 0.84 0.86 0.80 0.74 0.69 0.68 0.75
0.49 0.52 0.59 0.63 0.69 0.73 0.77 0.82 0.84 0.91 1.00 1.09 1.19 1.26 1.31 1.41 1.45 1.39 1.24 1.14 1.09 1.09 1.06 1.04 0.98 0.89 0.81 0.76 0.75 0.70 0.71 0.75 0.77 0.71 0.69 0.70 0.70 0.70 0.71 0.73 0.69 0.66 0.67
0.45 0.47 0.52 0.56 0.62 0.66 0.84 0.87 0.80 0.78 0.88 0.96 1.02 1.08 1.17 1.23 1.16 1.14 1.08 0.99 0.99 1.02 1.01 0.91 0.79 0.69 0.59 0.55 0.56 0.62 0.69 0.81 0.86 0.71 0.68 0.67 0.65 0.70 0.65 0.64 0.72 0.71 0.68
0.49 0.52 0.53 0.57 0.60 0.68 0.83 0.85 0.93 0.85 0.86 0.90 0.90 0.91 0.89 0.87 0.88 0.76 0.79 0.80 0.80 0.82 0.79 0.72 0.67 0.55 0.48 0.45 0.57 0.68 0.70 0.72 0.66 0.56 0.66 0.76 0.69 0.66 0.60 0.61 0.72 0.71 0.71
0.66 0.67 0.66 0.69 0.73 0.81 0.90 0.86 0.87 0.81 0.79 0.75 0.71 0.70 0.69 0.65 0.66 0.68 0.68 0.67 0.59 0.53 0.52 0.47 0.43 0.41 0.43 0.49 0.60 0.73 0.76 0.78 0.70 0.62 0.65 0.79 0.70 0.64 0.57 0.57 0.65 0.66 0.71
0.90 0.90 0.90 0.89 0.87 0.86 0.84 0.73 0.68 0.64 0.64 0.58 0.53 0.52 0.55 0.53 0.60 0.70 0.69 0.65 0.59 0.53 0.52 0.53 0.53 0.52 0.56 0.60 0.64 0.75 0.89 1.03 0.96 0.73 0.62 0.64 0.60 0.58 0.59 0.60 0.63 0.69 0.69
0.87 0.84 0.83 0.80 0.73 0.65 0.61 0.55 0.51 0.47 0.48 0.44 0.42 0.45 0.54 0.56 0.65 0.75 0.73 0.70 0.67 0.58 0.55 0.57 0.55 0.53 0.51 0.52 0.59 0.58 0.68 0.98 1.00 0.81 0.53 0.55 0.59 0.69 0.84 0.65 0.61 0.67 0.70

GEFSMA_prec_meanprecacc_264.txt.gz
Total_Precipitation_Accumulation
1.28 1.27 1.17 1.08 0.99 0.97 0.97 0.95 0.83 0.71 0.64 0.57 0.52 0.50 0.45 0.39 0.35 0.35 0.35 0.34 0.39 0.56 0.75 0.90 1.00 1.04 1.00 1.00 0.94 0.88 0.82 0.71 0.62 0.54 0.46 0.41 0.38 0.35 0.37 0.37 0.40 0.38 0.38
1.46 1.38 1.29 1.26 1.16 1.09 1.07 1.05 0.96 0.94 0.90 0.80 0.68 0.59 0.53 0.48 0.42 0.39 0.37 0.37 0.39 0.44 0.58 0.79 0.96 1.09 1.20 1.28 1.23 1.12 0.99 0.88 0.80 0.72 0.62 0.52 0.47 0.45 0.47 0.47 0.47 0.43 0.39
1.60 1.51 1.45 1.33 1.19 1.18 1.20 1.22 1.18 1.16 1.09 0.98 0.84 0.78 0.71 0.65 0.58 0.50 0.45 0.42 0.42 0.43 0.51 0.68 0.87 1.03 1.24 1.46 1.57 1.51 1.34 1.15 0.98 0.86 0.79 0.71 0.63 0.57 0.58 0.60 0.59 0.56 0.51
1.68 1.67 1.61 1.55 1.38 1.30 1.33 1.31 1.26 1.23 1.14 1.06 0.97 0.92 0.86 0.81 0.76 0.72 0.67 0.59 0.54 0.46 0.49 0.62 0.77 0.94 1.13 1.36 1.61 1.71 1.63 1.40 1.17 1.04 0.93 0.87 0.82 0.79 0.77 0.76 0.75 0.68 0.62
1.81 1.76 1.63 1.61 1.64 1.52 1.41 1.40 1.34 1.28 1.21 1.16 1.12 1.06 0.99 0.95 0.89 0.86 0.84 0.79 0.74 0.67 0.59 0.63 0.68 0.75 0.96 1.18 1.35 1.61 1.68 1.57 1.35 1.19 1.09 1.03 1.01 1.00 0.95 0.89 0.86 0.80 0.75
1.84 1.79 1.66 1.67 1.73 1.67 1.51 1.43 1.37 1.33 1.28 1.31 1.30 1.20 1.12 1.06 1.03 0.96 0.90 0.87 0.86 0.81 0.75 0.67 0.64 0.67 0.81 1.04 1.25 1.47 1.64 1.65 1.56 1.39 1.26 1.18 1.13 1.12 1.12 1.09 1.03 0.95 0.90
1.90 1.91 1.80 1.79 1.80 1.73 1.63 1.62 1.62 1.53 1.44 1.43 1.40 1.22 1.14 1.12 1.06 1.00 0.94 0.83 0.77 0.79 0.81 0.78 0.68 0.63 0.67 0.86 1.07 1.31 1.58 1.77 1.76 1.66 1.52 1.40 1.32 1.25 1.26 1.30 1.29 1.24 1.17
2.09 2.02 2.01 2.02 1.97 1.87 1.79 1.73 1.73 1.68 1.58 1.57 1.56 1.48 1.28 1.21 1.10 0.96 0.91 0.83 0.78 0.76 0.75 0.82 0.83 0.71 0.63 0.66 0.77 0.99 1.28 1.63 1.88 1.93 1.86 1.71 1.60 1.52 1.50 1.49 1.50 1.48 1.43
2.32 2.19 2.11 2.16 2.14 2.01 1.90 1.81 1.76 1.71 1.72 1.69 1.62 1.69 1.46 1.20 1.08 1.01 0.92 0.84 0.81 0.81 0.79 0.80 0.84 0.82 0.71 0.63 0.63 0.72 0.92 1.22 1.61 1.94 2.08 2.03 1.93 1.86 1.88 1.85 1.83 1.79 1.74
2.40 2.38 2.31 2.27 2.28 2.22 2.04 1.94 1.87 1.80 1.81 1.78 1.70 1.53 1.43 1.25 1.17 1.05 0.94 0.90 0.86 0.81 0.80 0.79 0.80 0.84 0.85 0.81 0.78 0.78 0.80 0.89 1.20 1.64 2.02 2.15 2.15 2.13 2.14 2.13 2.17 2.21 2.17
2.39 2.36 2.31 2.22 2.16 2.17 2.17 2.11 1.97 1.89 1.80 1.69 1.61 1.50 1.41 1.25 1.10 1.09 0.96 0.85 0.87 0.83 0.80 0.80 0.83 0.86 0.89 0.88 0.85 0.91 0.96 0.94 1.10 1.46 1.88 2.16 2.32 2.43 2.49 2.44 2.35 2.30 2.27
2.37 2.34 2.33 2.21 2.08 2.01 2.00 2.05 2.04 1.95 1.88 1.75 1.62 1.54 1.46 1.37 1.22 1.19 1.15 0.95 0.91 0.87 0.85 0.85 0.82 0.84 0.87 0.91 0.95 1.12 1.10 1.13 1.25 1.52 1.91 2.27 2.45 2.53 2.61 2.65 2.62 2.50 2.35
2.15 2.17 2.20 2.20 2.12 2.05 2.07 2.07 2.09 2.01 1.92 1.83 1.70 1.59 1.52 1.41 1.29 1.31 1.37 1.25 1.07 0.92 0.87 0.89 0.90 0.91 0.92 0.97 1.09 1.32 1.29 1.35 1.42 1.63 1.98 2.26 2.38 2.39 2.41 2.53 2.66 2.69 2.65
1.98 2.02 2.02 2.02 2.03 1.99 1.98 2.00 2.01 2.02 1.99 1.90 1.78 1.64 1.52 1.40 1.36 1.42 1.48 1.56 1.49 1.22 1.02 0.95 0.96 1.03 1.09 1.15 1.35 1.52 1.36 1.53 1.58 1.73 1.96 2.22 2.21 2.15 2.11 2.21 2.39 2.53 2.54
1.84 1.86 1.89 1.82 1.82 1.83 1.85 1.85 1.83 1.77 1.81 1.81 1.72 1.66 1.55 1.44 1.44 1.47 1.53 1.69 1.89 1.78 1.42 1.12 1.12 1.17 1.21 1.31 1.55 1.46 1.37 1.65 1.67 1.65 1.71 1.76 1.73 1.73 1.79 1.87 1.95 2.03 2.06
1.53 1.60 1.66 1.67 1.67 1.72 1.75 1.72 1.66 1.58 1.56 1.54 1.54 1.56 1.53 1.45 1.44 1.44 1.52 1.62 1.77 1.87 1.70 1.26 1.11 1.17 1.29 1.36 1.57 1.44 1.40 1.62 1.56 1.56 1.55 1.52 1.46 1.45 1.50 1.57 1.59 1.59 1.60
1.26 1.34 1.44 1.53 1.55 1.58 1.63 1.63 1.55 1.51 1.46 1.39 1.39 1.44 1.42 1.36 1.39 1.39 1.42 1.51 1.64 1.79 1.83 1.49 1.27 1.26 1.34 1.35 1.35 1.25 1.20 1.23 1.25 1.39 1.33 1.29 1.28 1.26 1.25 1.31 1.38 1.38 1.37
1.13 1.16 1.16 1.19 1.28 1.36 1.45 1.50 1.46 1.42 1.38 1.32 1.28 1.33 1.36 1.35 1.38 1.39 1.43 1.47 1.52 1.60 1.67 1.56 1.34 1.24 1.18 1.12 1.09 1.05 0.99 0.95 0.94 1.15 1.13 1.08 1.07 1.05 1.03 1.04 1.13 1.20 1.18
0.96 1.02 1.03 1.02 1.02 1.05 1.13 1.24 1.32 1.35 1.32 1.28 1.30 1.29 1.30 1.36 1.40 1.40 1.43 1.47 1.44 1.39 1.38 1.35 1.20 1.05 0.98 0.94 0.96 0.94 0.91 0.89 0.81 0.93 1.00 0.98 0.96 0.92 0.90 0.90 0.94 1.00 1.03
0.68 0.74 0.79 0.82 0.87 0.90 0.93 0.99 1.08 1.18 1.26 1.28 1.31 1.33 1.33 1.39 1.47 1.50 1.48 1.45 1.39 1.33 1.26 1.22 1.14 1.04 0.94 0.86 0.87 0.91 0.91 0.89 0.83 0.75 0.85 0.87 0.89 0.91 0.86 0.79 0.77 0.78 0.84
0.49 0.53 0.60 0.65 0.71 0.77 0.82 0.87 0.90 0.98 1.06 1.14 1.24 1.32 1.37 1.48 1.53 1.48 1.33 1.22 1.16 1.14 1.11 1.10 1.04 0.95 0.88 0.83 0.80 0.74 0.75 0.79 0.82 0.76 0.74 0.74 0.74 0.73 0.74 0.77 0.74 0.73 0.76
0.46 0.48 0.53 0.58 0.64 0.69 0.88 0.92 0.86 0.84 0.93 1.02 1.08 1.14 1.22 1.30 1.23 1.22 1.16 1.07 1.06 1.09 1.06 0.97 0.86 0.75 0.65 0.60 0.60 0.65 0.72 0.84 0.89 0.74 0.71 0.71 0.70 0.74 0.68 0.68 0.77 0.76 0.75
0.49 0.52 0.54 0.58 0.62 0.71 0.86 0.89 0.97 0.90 0.91 0.95 0.96 0.98 0.96 0.93 0.94 0.82 0.86 0.86 0.86 0.89 0.86 0.78 0.74 0.61 0.53 0.51 0.62 0.73 0.73 0.75 0.68 0.58 0.68 0.79 0.73 0.70 0.63 0.64 0.77 0.76 0.76
0.67 0.68 0.68 0.70 0.75 0.83 0.93 0.89 0.90 0.85 0.83 0.79 0.75 0.75 0.75 0.72 0.72 0.75 0.74 0.73 0.65 0.59 0.57 0.52 0.49 0.46 0.48 0.55 0.67 0.78 0.80 0.82 0.73 0.65 0.68 0.82 0.75 0.68 0.61 0.60 0.68 0.69 0.75
0.92 0.92 0.92 0.90 0.89 0.88 0.87 0.77 0.71 0.67 0.67 0.61 0.57 0.57 0.59 0.58 0.66 0.77 0.75 0.71 0.66 0.59 0.58 0.60 0.59 0.58 0.63 0.67 0.72 0.82 0.96 1.09 1.01 0.77 0.65 0.68 0.65 0.62 0.63 0.64 0.67 0.72 0.72
0.89 0.86 0.85 0.81 0.75 0.67 0.63 0.58 0.54 0.50 0.51 0.46 0.45 0.47 0.56 0.59 0.69 0.80 0.78 0.75 0.73 0.64 0.60 0.62 0.62 0.60 0.57 0.59 0.67 0.64 0.74 1.04 1.06 0.85 0.56 0.58 0.63 0.74 0.89 0.70 0.65 0.71 0.73

GEFSMA_prec_meanprecacc_270.txt.gz
Total_Precipitation_Accumulation
1.33 1.30 1.18 1.10 1.01 0.99 0.99 0.97 0.86 0.76 0.67 0.58 0.53 0.50 0.46 0.39 0.36 0.37 0.36 0.36 0.43 0.60 0.80 0.93 1.03 1.07 1.04 1.06 1.02 0.95 0.87 0.76 0.66 0.58 0.51 0.46 0.43 0.40 0.42 0.42 0.44 0.42 0.41
1.54 1.46 1.35 1.29 1.19 1.11 1.08 1.07 0.97 0.98 0.94 0.83 0.69 0.60 0.54 0.48 0.42 0.39 0.38 0.39 0.42 0.48 0.62 0.83 0.99 1.12 1.24 1.34 1.30 1.19 1.04 0.93 0.85 0.77 0.67 0.58 0.52 0.50 0.52 0.53 0.52 0.48 0.43
1.69 1.61 1.57 1.41 1.24 1.22 1.23 1.24 1.19 1.17 1.11 1.00 0.86 0.79 0.72 0.66 0.58 0.51 0.46 0.44 0.45 0.47 0.54 0.71 0.89 1.07 1.28 1.53 1.64 1.58 1.39 1.20 1.04 0.92 0.86 0.77 0.69 0.62 0.64 0.65 0.64 0.61 0.56
1.74 1.73 1.69 1.64 1.46 1.37 1.40 1.36 1.30 1.26 1.16 1.08 0.99 0.93 0.87 0.82 0.77 0.73 0.68 0.61 0.57 0.49 0.53 0.66 0.80 0.97 1.18 1.43 1.70 1.79 1.69 1.45 1.22 1.08 0.99 0.94 0.88 0.84 0.82 0.81 0.79 0.72 0.65
1.85 1.80 1.67 1.65 1.68 1.56 1.46 1.45 1.41 1.34 1.25 1.19 1.14 1.07 1.00 0.96 0.89 0.87 0.86 0.81 0.76 0.69 0.62 0.67 0.71 0.78 1.00 1.23 1.43 1.71 1.77 1.63 1.40 1.23 1.13 1.08 1.07 1.06 1.01 0.94 0.91 0.83 0.78
1.87 1.83 1.71 1.71 1.76 1.70 1.54 1.47 1.41 1.40 1.34 1.35 1.34 1.23 1.14 1.07 1.03 0.98 0.92 0.90 0.88 0.83 0.77 0.70 0.67 0.70 0.84 1.09 1.31 1.55 1.73 1.74 1.62 1.43 1.30 1.22 1.18 1.16 1.16 1.14 1.08 0.99 0.94
1.93 1.95 1.85 1.84 1.85 1.78 1.68 1.66 1.66 1.58 1.49 1.48 1.45 1.29 1.20 1.16 1.08 1.02 0.96 0.86 0.80 0.82 0.83 0.80 0.71 0.66 0.70 0.89 1.12 1.37 1.68 1.88 1.85 1.72 1.55 1.43 1.35 1.29 1.30 1.35 1.34 1.28 1.20
2.12 2.07 2.07 2.10 2.04 1.94 1.86 1.80 1.78 1.73 1.62 1.62 1.62 1.55 1.35 1.29 1.15 0.98 0.93 0.86 0.81 0.78 0.78 0.85 0.85 0.74 0.66 0.68 0.81 1.05 1.36 1.74 2.02 2.08 1.98 1.78 1.65 1.56 1.54 1.54 1.56 1.54 1.48
2.33 2.22 2.17 2.25 2.24 2.11 1.99 1.91 1.84 1.76 1.77 1.74 1.66 1.75 1.54 1.27 1.13 1.04 0.94 0.87 0.86 0.85 0.82 0.82 0.86 0.84 0.74 0.65 0.65 0.77 1.00 1.33 1.78 2.16 2.29 2.16 1.99 1.89 1.91 1.91 1.89 1.86 1.80
2.41 2.39 2.36 2.33 2.36 2.32 2.14 2.05 1.97 1.88 1.87 1.84 1.76 1.58 1.48 1.30 1.22 1.10 0.97 0.94 0.92 0.87 0.83 0.82 0.83 0.87 0.89 0.84 0.81 0.81 0.86 0.97 1.30 1.74 2.11 2.21 2.19 2.16 2.17 2.18 2.24 2.28 2.22
2.40 2.37 2.34 2.27 2.23 2.25 2.28 2.24 2.08 1.98 1.87 1.74 1.66 1.55 1.45 1.29 1.14 1.13 0.99 0.88 0.92 0.89 0.84 0.83 0.87 0.91 0.94 0.92 0.89 0.93 0.99 1.00 1.17 1.52 1.94 2.21 2.36 2.46 2.52 2.49 2.42 2.38 2.34
2.38 2.35 2.35 2.25 2.13 2.07 2.06 2.15 2.16 2.04 1.94 1.81 1.67 1.58 1.49 1.40 1.25 1.23 1.18 0.98 0.94 0.92 0.91 0.89 0.86 0.88 0.92 0.96 0.99 1.16 1.13 1.18 1.32 1.58 1.95 2.32 2.50 2.58 2.66 2.70 2.69 2.59 2.43
2.16 2.18 2.22 2.23 2.16 2.09 2.12 2.12 2.16 2.09 1.99 1.88 1.75 1.63 1.56 1.44 1.32 1.34 1.40 1.28 1.11 0.96 0.92 0.93 0.93 0.95 0.97 1.03 1.13 1.36 1.34 1.40 1.50 1.70 2.03 2.32 2.44 2.45 2.47 2.59 2.72 2.77 2.74
1.99 2.03 2.03 2.03 2.07 2.02 2.03 2.05 2.05 2.08 2.07 1.96 1.83 1.68 1.57 1.45 1.41 1.46 1.51 1.60 1.54 1.27 1.08 1.00 0.99 1.06 1.14 1.22 1.41 1.55 1.39 1.57 1.65 1.79 2.01 2.28 2.28 2.22 2.18 2.28 2.46 2.60 2.62
1.85 1.87 1.90 1.83 1.84 1.86 1.88 1.89 1.87 1.82 1.87 1.88 1.79 1.72 1.60 1.48 1.48 1.51 1.58 1.73 1.93 1.83 1.47 1.17 1.16 1.20 1.26 1.37 1.63 1.52 1.41 1.68 1.72 1.71 1.75 1.81 1.79 1.80 1.88 1.95 2.02 2.10 2.13
1.53 1.61 1.67 1.68 1.68 1.74 1.77 1.76 1.69 1.63 1.61 1.58 1.58 1.60 1.58 1.49 1.48 1.49 1.56 1.66 1.81 1.91 1.74 1.29 1.14 1.20 1.34 1.42 1.65 1.52 1.46 1.66 1.61 1.63 1.59 1.56 1.51 1.50 1.57 1.66 1.68 1.67 1.68
1.27 1.35 1.45 1.54 1.56 1.60 1.65 1.65 1.58 1.54 1.50 1.43 1.43 1.48 1.46 1.40 1.44 1.43 1.46 1.55 1.68 1.84 1.87 1.52 1.29 1.29 1.39 1.42 1.43 1.33 1.27 1.29 1.29 1.46 1.38 1.32 1.33 1.31 1.31 1.38 1.48 1.48 1.44
1.13 1.17 1.17 1.20 1.29 1.37 1.46 1.53 1.50 1.45 1.42 1.36 1.31 1.37 1.39 1.39 1.42 1.43 1.47 1.51 1.56 1.64 1.71 1.60 1.37 1.27 1.23 1.18 1.16 1.13 1.07 1.02 1.00 1.22 1.21 1.14 1.11 1.10 1.08 1.10 1.21 1.29 1.26
0.96 1.03 1.03 1.02 1.03 1.06 1.14 1.26 1.35 1.38 1.35 1.31 1.33 1.33 1.34 1.40 1.44 1.44 1.48 1.51 1.48 1.43 1.42 1.39 1.23 1.08 1.03 1.01 1.05 1.03 1.00 0.98 0.88 1.00 1.09 1.06 1.02 0.98 0.95 0.96 1.01 1.09 1.11
0.69 0.74 0.79 0.82 0.87 0.91 0.94 1.01 1.11 1.21 1.29 1.31 1.34 1.37 1.37 1.44 1.52 1.54 1.53 1.50 1.44 1.38 1.31 1.26 1.17 1.07 0.98 0.92 0.96 1.00 1.00 0.98 0.92 0.82 0.94 0.96 0.97 0.97 0.92 0.86 0.84 0.85 0.93
0.51 0.54 0.61 0.65 0.72 0.78 0.84 0.89 0.93 1.01 1.09 1.17 1.27 1.36 1.41 1.52 1.58 1.53 1.38 1.27 1.21 1.19 1.16 1.14 1.07 0.99 0.92 0.88 0.87 0.81 0.82 0.86 0.90 0.83 0.82 0.83 0.81 0.78 0.79 0.83 0.82 0.82 0.85
0.47 0.49 0.53 0.58 0.65 0.69 0.89 0.94 0.89 0.88 0.97 1.06 1.12 1.18 1.27 1.35 1.28 1.27 1.21 1.12 1.12 1.15 1.12 1.02 0.90 0.79 0.69 0.66 0.66 0.72 0.79 0.91 0.95 0.80 0.77 0.78 0.76 0.79 0.71 0.72 0.83 0.82 0.82
0.52 0.54 0.55 0.59 0.63 0.72 0.87 0.91 1.01 0.94 0.95 0.98 1.00 1.02 1.01 0.97 0.98 0.86 0.91 0.92 0.92 0.95 0.91 0.84 0.80 0.65 0.58 0.56 0.69 0.80 0.80 0.80 0.73 0.62 0.73 0.85 0.79 0.76 0.66 0.67 0.81 0.81 0.81
0.70 0.70 0.69 0.71 0.76 0.84 0.94 0.91 0.93 0.88 0.86 0.82 0.78 0.78 0.79 0.75 0.76 0.79 0.79 0.79 0.69 0.63 0.61 0.57 0.53 0.50 0.52 0.60 0.74 0.87 0.89 0.89 0.78 0.69 0.72 0.88 0.80 0.73 0.65 0.63 0.71 0.73 0.78
0.95 0.94 0.94 0.92 0.90 0.89 0.88 0.78 0.74 0.70 0.69 0.64 0.59 0.59 0.62 0.61 0.70 0.82 0.80 0.77 0.70 0.63 0.62 0.64 0.64 0.62 0.68 0.73 0.79 0.92 1.06 1.18 1.10 0.83 0.70 0.74 0.69 0.67 0.68 0.68 0.70 0.75 0.75
0.91 0.88 0.86 0.83 0.76 0.68 0.64 0.60 0.57 0.54 0.54 0.48 0.47 0.49 0.59 0.62 0.73 0.85 0.84 0.81 0.77 0.67 0.64 0.66 0.65 0.64 0.62 0.64 0.73 0.71 0.82 1.12 1.14 0.93 0.62 0.64 0.68 0.79 0.95 0.75 0.69 0.74 0.76